[[{"header":{"parameterUnit":"m.s-1","parameterCategory":1,"la1":31.0,"la2":29.5877,"lo1":-88.7671,"lo2":-86.6584,"dy":0.0162,"dx":0.0185,"nx":115,"ny":88,"refTime":"2024-05-04T18:00:00:Z","depth":0,"parameterNumber":2,"parameterNumberName":"U-component_of_WINDS"},"data":[0.0,0.0,0.0,0.0,0.0,0.0,0.0,0.0,0.0,0.0,0.0,0.0,0.0,0.0,0.0,0.0,0.0,0.0,0.0,0.0,0.0,0.0,0.0,0.0,0.0,0.0,0.0,0.0,0.0,0.0,0.0,0.0,0.0,0.0,0.0,0.0,0.0,0.0,0.0,0.0,0.0,0.0,0.0,0.0,0.0,0.0,0.0,0.0,0.0,0.0,0.0,0.0,0.0,0.0,0.0,0.0,0.0,0.0,0.0,0.0,0.0,0.0,0.0,0.0,0.0,0.0,0.0,0.0,0.0,0.0,0.0,0.0,0.0,0.0,0.0,0.0,0.0,0.0,0.0,0.0,0.0,0.0,0.0,0.0,0.0,0.0,0.0,0.0,0.0,0.0,0.0,0.0,0.0,0.0,0.0,0.0,0.0,0.0,0.0,0.0,0.0,0.0,0.0,0.0,0.0,0.0,0.0,0.0,0.0,0.0,0.0,0.0,0.0,0.0,0.0,0.0,0.0,0.0,0.0,0.0,0.0,0.0,0.0,0.0,0.0,0.0,0.0,0.0,0.0,0.0,0.0,0.0,0.0,0.0,0.0,0.0,0.0,0.0,0.0,0.0,0.0,0.0,0.0,0.0,0.0,0.0,0.0,0.0,0.0,0.0,0.0,0.0,0.0,0.0,0.0,0.0,0.0,0.0,0.0,0.0,0.0,0.0,0.0,0.0,0.0,0.0,0.0,0.0,0.0,0.0,0.0,0.0,0.0,0.0,0.0,0.0,0.0,0.0,0.0,0.0,0.0,0.0,0.0,0.0,0.0,0.0,0.0,0.0,0.0,0.0,0.0,0.0,0.0,0.0,0.0,0.0,0.0,0.0,0.0,0.0,0.0,0.0,0.0,0.0,0.0,0.0,0.0,0.0,0.0,0.0,0.0,0.0,0.0,0.0,0.0,0.0,0.0,0.0,0.0,0.0,0.0,0.0,0.0,0.0,0.0,0.0,0.0,0.0,0.0,0.0,0.0,0.0,0.0,0.0,0.0,0.0,0.0,0.0,0.0,0.0,0.0,0.0,0.0,0.0,0.0,0.0,0.0,0.0,0.0,0.0,0.0,0.0,0.0,0.0,0.0,0.0,0.0,0.0,0.0,0.0,0.0,0.0,0.0,0.0,0.0,0.0,0.0,0.0,0.0,0.0,0.0,0.0,0.0,0.0,0.0,0.0,0.0,0.0,0.0,0.0,0.0,0.0,0.0,0.0,0.0,0.0,0.0,0.0,0.0,0.0,0.0,0.0,0.0,0.0,0.0,0.0,0.0,0.0,0.0,0.0,0.0,0.0,0.0,0.0,0.0,0.0,0.0,0.0,0.0,0.0,0.0,0.0,0.0,0.0,0.0,0.0,0.0,0.0,0.0,0.0,0.0,0.0,0.0,0.0,0.0,0.0,0.0,0.0,0.0,0.0,0.0,0.0,0.0,0.0,0.0,0.0,0.0,0.0,0.0,0.0,0.0,0.0,0.0,0.0,0.0,0.0,0.0,0.0,0.0,0.0,0.0,0.0,0.0,0.0,0.0,0.0,0.0,0.0,0.0,0.0,0.0,0.0,0.0,0.0,0.0,0.0,0.0,0.0,0.0,0.0,0.0,0.0,0.0,0.0,0.0,0.0,0.0,0.0,0.0,0.0,0.0,0.0,0.0,0.0,0.0,0.0,0.0,0.0,0.0,0.0,0.0,0.0,0.0,0.0,0.0,0.0,0.0,0.0,0.0,0.0,0.0,0.0,0.0,0.0,0.0,0.0,0.0,0.0,0.0,0.0,0.0,0.0,0.0,0.0,0.0,0.0,0.0,0.0,0.0,0.0,0.0,0.0,0.0,0.0,0.0,0.0,0.0,0.0,0.0,0.0,0.0,0.0,0.0,0.0,0.0,0.0,0.0,0.0,0.0,0.0,0.0,0.0,0.0,0.0,0.0,0.0,0.0,0.0,0.0,0.0,0.0,0.0,0.0,0.0,0.0,0.0,0.0,0.0,0.0,0.0,0.0,0.0,0.0,0.0,0.0,0.0,0.0,0.0,0.0,0.0,0.0,0.0,0.0,0.0,0.0,0.0,0.0,0.0,0.0,0.0,0.0,0.0,0.0,0.0,0.0,0.0,0.0,0.0,0.0,0.0,0.0,0.0,0.0,0.0,0.0,0.0,0.0,0.0,0.0,0.0,0.0,0.0,0.0,0.0,0.0,0.0,0.0,0.0,0.0,0.0,0.0,0.0,0.0,0.0,0.0,0.0,0.0,0.0,0.0,0.0,0.0,0.0,0.0,0.0,0.0,0.0,0.0,0.0,0.0,0.0,0.0,0.0,0.0,0.0,0.0,0.0,0.0,0.0,0.0,0.0,0.0,0.0,0.0,0.0,0.0,0.0,0.0,0.0,0.0,0.0,0.0,0.0,0.0,0.0,0.0,0.0,0.0,0.0,0.0,0.0,0.0,0.0,0.0,0.0,0.0,0.0,0.0,0.0,0.0,0.0,0.0,0.0,0.0,0.0,0.0,0.0,0.0,0.0,0.0,0.0,0.0,0.0,0.0,0.0,0.0,0.0,0.0,0.0,0.0,0.0,0.0,0.0,0.0,0.0,0.0,0.0,0.0,0.0,0.0,0.0,0.0,0.0,0.0,0.0,0.0,0.0,0.0,0.0,0.0,0.0,0.0,0.0,0.0,0.0,0.0,0.0,0.0,0.0,0.0,0.0,0.0,0.0,0.0,0.0,0.0,0.0,0.0,0.0,0.0,0.0,0.0,0.0,0.0,0.0,0.0,0.0,0.0,0.0,0.0,0.0,0.0,0.0,0.0,0.0,0.0,0.0,0.0,0.0,0.0,0.0,0.0,0.0,0.0,0.0,0.0,0.0,0.0,0.0,0.0,0.0,0.0,0.0,0.0,0.0,0.0,0.0,0.0,0.0,0.0,0.0,0.0,0.0,0.0,0.0,0.0,0.0,0.0,0.0,0.0,0.0,0.0,0.0,0.0,0.0,0.0,0.0,0.0,0.0,0.0,0.0,0.0,0.0,0.0,0.0,0.0,0.0,0.0,0.0,0.0,0.0,0.0,0.0,0.0,0.0,0.0,0.0,0.0,0.0,0.0,0.0,0.0,0.0,0.0,0.0,0.0,0.0,0.0,0.0,0.0,0.0,0.0,0.0,0.0,0.0,0.0,0.0,0.0,0.0,0.0,0.0,0.0,0.0,0.0,0.0,0.0,0.0,0.0,0.0,0.0,0.0,0.0,0.0,0.0,0.0,0.0,0.0,0.0,0.0,0.0,0.0,0.0,0.0,0.0,0.0,0.0,0.0,0.0,0.0,0.0,0.0,0.0,0.0,0.0,0.0,0.0,0.0,0.0,0.0,0.0,0.0,0.0,0.0,0.0,0.0,0.0,0.0,0.0,0.0,0.0,0.0,0.0,0.0,0.0,0.0,0.0,0.0,0.0,0.0,0.0,0.0,0.0,0.0,0.0,0.0,0.0,0.0,0.0,0.0,0.0,0.0,0.0,0.0,0.0,0.0,0.0,0.0,0.0,0.0,0.0,0.0,0.0,0.0,0.0,0.0,0.0,0.0,0.0,0.0,0.0,0.0,0.0,0.0,0.0,0.0,0.0,0.0,0.0,0.0,0.0,0.0,0.0,0.0,0.0,0.0,0.0,0.0,0.0,0.0,0.0,0.0,0.0,0.0,0.0,0.0,0.0,0.0,0.0,0.0,0.0,0.0,0.0,0.0,0.0,0.0,0.0,0.0,0.0,0.0,0.0,0.0,0.0,0.0,0.0,0.0,0.0,0.0,0.0,0.0,0.0,0.0,0.0,0.0,0.0,0.0,0.0,0.0,0.0,0.0,0.0,0.0,0.0,0.0,0.0,0.0,0.0,0.0,0.0,0.0,0.0,0.0,0.0,0.0,0.0,0.0,0.0,0.0,0.0,0.0,0.0,0.0,0.0,0.0,0.0,0.0,0.0,0.0,0.0,0.0,0.0,0.0,0.0,0.0,0.0,0.0,0.0,0.0,0.0,0.0,0.0,0.0,0.0,0.0,0.0,0.0,0.0,0.0,0.0,0.0,0.0,0.0,0.0,0.0,0.0,0.0,0.0,0.0,0.0,0.0,0.0,0.0,0.0,0.0,0.0,0.0,0.0,0.0,0.0,0.0,0.0,0.0,0.0,0.0,0.0,0.0,0.0,0.0,0.0,0.0,0.0,0.0,0.0,0.0,0.0,0.0,0.0,0.0,-2.135,0.0,0.0,0.0,0.0,0.0,0.0,0.0,0.0,0.0,0.0,0.0,0.0,0.0,0.0,0.0,0.0,0.0,0.0,0.0,0.0,0.0,0.0,0.0,0.0,0.0,0.0,0.0,0.0,0.0,0.0,0.0,0.0,0.0,0.0,0.0,0.0,0.0,0.0,0.0,0.0,0.0,0.0,0.0,0.0,0.0,0.0,0.0,0.0,0.0,0.0,0.0,0.0,0.0,0.0,0.0,0.0,0.0,0.0,0.0,0.0,0.0,0.0,0.0,0.0,0.0,0.0,0.0,0.0,0.0,0.0,0.0,0.0,0.0,0.0,0.0,0.0,0.0,0.0,0.0,0.0,0.0,0.0,0.0,0.0,0.0,0.0,0.0,0.0,0.0,0.0,0.0,0.0,0.0,0.0,0.0,0.0,0.0,0.0,0.0,0.0,0.0,0.0,0.0,0.0,0.0,0.0,0.0,0.0,0.0,0.0,-2.1462,-2.1427,-2.1043,-2.0846,-2.0846,0.0,0.0,0.0,0.0,0.0,0.0,0.0,0.0,0.0,0.0,0.0,0.0,0.0,0.0,0.0,0.0,0.0,0.0,0.0,0.0,0.0,0.0,0.0,0.0,0.0,0.0,0.0,0.0,0.0,0.0,0.0,0.0,0.0,0.0,0.0,0.0,0.0,0.0,0.0,0.0,0.0,0.0,0.0,0.0,0.0,0.0,0.0,0.0,0.0,0.0,0.0,0.0,0.0,0.0,0.0,0.0,0.0,0.0,0.0,0.0,0.0,0.0,0.0,0.0,0.0,0.0,0.0,0.0,0.0,0.0,0.0,0.0,0.0,0.0,0.0,0.0,0.0,0.0,0.0,0.0,0.0,0.0,0.0,0.0,0.0,0.0,0.0,0.0,0.0,0.0,0.0,0.0,0.0,0.0,0.0,0.0,0.0,0.0,0.0,0.0,0.0,0.0,0.0,0.0,0.0,0.0,0.0,0.0,0.0,0.0,0.0,0.0,-2.1731,-2.1846,-2.2,0.0,0.0,0.0,0.0,0.0,0.0,0.0,0.0,0.0,0.0,0.0,0.0,0.0,0.0,0.0,0.0,0.0,0.0,0.0,0.0,0.0,0.0,0.0,0.0,0.0,0.0,0.0,0.0,0.0,0.0,0.0,0.0,0.0,0.0,0.0,0.0,0.0,0.0,0.0,0.0,0.0,0.0,0.0,0.0,0.0,0.0,0.0,0.0,0.0,0.0,0.0,0.0,0.0,0.0,0.0,0.0,0.0,0.0,0.0,0.0,0.0,0.0,0.0,0.0,0.0,0.0,0.0,0.0,0.0,0.0,0.0,0.0,0.0,0.0,0.0,0.0,0.0,0.0,0.0,0.0,0.0,0.0,0.0,0.0,0.0,0.0,0.0,0.0,0.0,0.0,0.0,0.0,0.0,0.0,0.0,0.0,0.0,0.0,0.0,0.0,0.0,0.0,0.0,0.0,0.0,0.0,0.0,0.0,0.0,0.0,-2.2928,-2.5923,-2.5967,0.0,-2.7044,0.0,0.0,0.0,0.0,0.0,0.0,0.0,0.0,0.0,0.0,0.0,0.0,0.0,0.0,0.0,0.0,0.0,0.0,0.0,0.0,0.0,0.0,0.0,0.0,0.0,0.0,0.0,0.0,0.0,0.0,0.0,0.0,0.0,0.0,0.0,0.0,0.0,0.0,0.0,0.0,0.0,0.0,0.0,0.0,0.0,0.0,0.0,0.0,0.0,0.0,0.0,0.0,0.0,0.0,0.0,0.0,0.0,0.0,0.0,0.0,0.0,0.0,0.0,0.0,0.0,0.0,0.0,0.0,0.0,0.0,0.0,0.0,0.0,0.0,0.0,0.0,0.0,0.0,0.0,0.0,0.0,0.0,0.0,0.0,0.0,0.0,0.0,0.0,0.0,0.0,0.0,0.0,0.0,0.0,0.0,0.0,0.0,0.0,0.0,0.0,0.0,0.0,0.0,0.0,0.0,0.0,0.0,0.0,0.0,0.0,-2.3928,-2.5808,-2.5808,-2.5769,0.0,0.0,0.0,0.0,0.0,0.0,0.0,0.0,0.0,0.0,0.0,0.0,0.0,0.0,0.0,0.0,0.0,0.0,0.0,0.0,0.0,0.0,0.0,0.0,0.0,0.0,0.0,0.0,0.0,0.0,0.0,0.0,0.0,0.0,0.0,0.0,0.0,0.0,0.0,0.0,0.0,0.0,0.0,0.0,0.0,0.0,0.0,0.0,0.0,0.0,0.0,0.0,0.0,0.0,0.0,0.0,0.0,0.0,0.0,0.0,0.0,0.0,0.0,0.0,0.0,0.0,0.0,0.0,0.0,0.0,0.0,0.0,0.0,0.0,0.0,0.0,0.0,0.0,0.0,0.0,0.0,0.0,0.0,0.0,0.0,0.0,0.0,0.0,0.0,0.0,0.0,0.0,0.0,0.0,0.0,0.0,0.0,0.0,0.0,0.0,0.0,0.0,0.0,0.0,0.0,0.0,0.0,0.0,0.0,0.0,-2.3966,-2.5159,-2.6572,-2.6038,-2.5274,-2.4471,0.0,0.0,0.0,0.0,0.0,0.0,0.0,0.0,0.0,0.0,0.0,0.0,0.0,0.0,0.0,0.0,0.0,0.0,0.0,0.0,0.0,0.0,0.0,0.0,0.0,0.0,0.0,0.0,0.0,0.0,0.0,0.0,0.0,0.0,0.0,0.0,0.0,0.0,0.0,0.0,0.0,0.0,0.0,0.0,0.0,0.0,0.0,0.0,0.0,0.0,0.0,0.0,0.0,0.0,0.0,0.0,0.0,0.0,0.0,0.0,0.0,0.0,0.0,0.0,0.0,0.0,0.0,0.0,0.0,0.0,0.0,0.0,0.0,0.0,0.0,0.0,0.0,0.0,0.0,0.0,0.0,0.0,0.0,0.0,0.0,0.0,0.0,0.0,0.0,0.0,0.0,0.0,0.0,0.0,0.0,0.0,0.0,0.0,0.0,0.0,0.0,0.0,0.0,0.0,0.0,0.0,0.0,0.0,-2.9385,-2.6808,-2.6808,-2.9962,-2.7808,-2.6115,0.0,0.0,0.0,0.0,0.0,0.0,0.0,0.0,0.0,0.0,0.0,0.0,0.0,0.0,0.0,0.0,0.0,0.0,0.0,0.0,0.0,0.0,0.0,0.0,0.0,0.0,0.0,0.0,0.0,0.0,0.0,0.0,0.0,0.0,0.0,0.0,0.0,0.0,0.0,0.0,0.0,0.0,0.0,0.0,0.0,0.0,0.0,0.0,0.0,0.0,0.0,0.0,0.0,0.0,0.0,0.0,0.0,0.0,0.0,0.0,0.0,0.0,0.0,0.0,0.0,0.0,0.0,0.0,0.0,0.0,0.0,0.0,0.0,0.0,0.0,0.0,0.0,0.0,0.0,0.0,0.0,0.0,0.0,0.0,0.0,0.0,0.0,0.0,0.0,0.0,0.0,0.0,0.0,0.0,0.0,0.0,0.0,0.0,0.0,0.0,0.0,0.0,0.0,0.0,0.0,0.0,0.0,0.0,0.0,-2.3846,-2.4808,-2.7192,-3.0923,-2.7692,-2.6154,0.0,0.0,0.0,0.0,0.0,0.0,0.0,0.0,0.0,0.0,0.0,0.0,0.0,0.0,0.0,0.0,0.0,0.0,0.0,0.0,0.0,0.0,0.0,0.0,0.0,0.0,0.0,0.0,0.0,0.0,0.0,0.0,0.0,0.0,0.0,0.0,0.0,0.0,0.0,0.0,0.0,0.0,0.0,0.0,0.0,0.0,0.0,0.0,0.0,0.0,0.0,0.0,0.0,0.0,0.0,0.0,0.0,0.0,0.0,0.0,0.0,0.0,0.0,0.0,0.0,0.0,0.0,0.0,0.0,0.0,0.0,0.0,0.0,0.0,0.0,0.0,0.0,0.0,0.0,0.0,0.0,0.0,0.0,0.0,0.0,0.0,0.0,0.0,0.0,0.0,0.0,0.0,0.0,0.0,0.0,0.0,0.0,0.0,0.0,0.0,0.0,0.0,0.0,0.0,0.0,0.0,0.0,0.0,0.0,-2.2774,0.0,-2.8077,-3.0198,-2.7115,-2.5346,0.0,0.0,0.0,0.0,0.0,0.0,0.0,0.0,0.0,0.0,0.0,0.0,0.0,0.0,0.0,0.0,0.0,0.0,0.0,0.0,0.0,0.0,0.0,0.0,0.0,0.0,0.0,0.0,0.0,0.0,0.0,0.0,0.0,0.0,0.0,0.0,0.0,0.0,0.0,0.0,0.0,0.0,0.0,0.0,0.0,0.0,0.0,0.0,0.0,0.0,0.0,0.0,0.0,0.0,0.0,0.0,0.0,0.0,0.0,0.0,0.0,0.0,0.0,0.0,0.0,0.0,0.0,0.0,0.0,0.0,0.0,0.0,0.0,0.0,0.0,0.0,0.0,0.0,0.0,0.0,0.0,0.0,0.0,0.0,0.0,0.0,0.0,0.0,0.0,0.0,0.0,0.0,0.0,0.0,0.0,0.0,0.0,0.0,0.0,0.0,0.0,0.0,0.0,0.0,0.0,0.0,0.0,0.0,-2.2774,-2.7505,-2.9269,-2.9429,-2.8005,-2.6192,-2.3769,0.0,0.0,0.0,0.0,0.0,0.0,0.0,0.0,0.0,0.0,0.0,0.0,0.0,0.0,0.0,0.0,0.0,0.0,0.0,0.0,0.0,0.0,0.0,0.0,0.0,0.0,0.0,0.0,0.0,0.0,0.0,0.0,0.0,0.0,0.0,0.0,0.0,0.0,0.0,0.0,0.0,0.0,0.0,0.0,0.0,0.0,0.0,0.0,0.0,0.0,0.0,0.0,0.0,0.0,0.0,0.0,0.0,0.0,0.0,0.0,0.0,0.0,0.0,0.0,0.0,0.0,0.0,0.0,0.0,0.0,0.0,0.0,0.0,0.0,0.0,0.0,0.0,0.0,0.0,0.0,0.0,0.0,0.0,0.0,0.0,0.0,0.0,0.0,0.0,0.0,0.0,0.0,0.0,0.0,0.0,0.0,0.0,0.0,0.0,0.0,0.0,0.0,0.0,0.0,0.0,0.0,0.0,0.0,0.0,-2.4432,-2.6621,-2.8659,-3.0275,-2.5428,-2.3851,0.0,0.0,0.0,0.0,0.0,0.0,0.0,0.0,0.0,0.0,0.0,0.0,0.0,0.0,0.0,0.0,0.0,0.0,0.0,0.0,0.0,0.0,0.0,0.0,0.0,0.0,0.0,0.0,0.0,0.0,0.0,0.0,0.0,0.0,0.0,0.0,0.0,0.0,0.0,0.0,0.0,0.0,0.0,0.0,0.0,0.0,0.0,0.0,0.0,0.0,0.0,0.0,0.0,0.0,0.0,0.0,0.0,0.0,0.0,0.0,0.0,0.0,0.0,0.0,0.0,0.0,0.0,0.0,0.0,0.0,0.0,0.0,0.0,0.0,0.0,0.0,0.0,0.0,0.0,0.0,0.0,0.0,0.0,0.0,0.0,0.0,0.0,0.0,0.0,0.0,0.0,0.0,0.0,0.0,0.0,0.0,0.0,0.0,0.0,0.0,0.0,0.0,0.0,0.0,0.0,0.0,0.0,0.0,0.0,-2.6697,-2.8775,-3.0462,-3.1698,-2.6928,-2.4928,-2.6125,0.0,0.0,0.0,0.0,0.0,0.0,0.0,0.0,0.0,0.0,0.0,0.0,0.0,0.0,0.0,0.0,0.0,0.0,0.0,0.0,0.0,0.0,0.0,0.0,0.0,0.0,0.0,0.0,0.0,0.0,0.0,0.0,0.0,0.0,0.0,0.0,0.0,0.0,0.0,0.0,0.0,0.0,0.0,0.0,0.0,0.0,0.0,0.0,0.0,0.0,0.0,0.0,0.0,0.0,0.0,0.0,0.0,0.0,0.0,0.0,0.0,0.0,0.0,0.0,0.0,0.0,0.0,0.0,0.0,0.0,0.0,0.0,0.0,0.0,0.0,0.0,0.0,0.0,0.0,0.0,0.0,0.0,0.0,0.0,0.0,0.0,0.0,0.0,0.0,0.0,0.0,0.0,0.0,0.0,0.0,0.0,0.0,0.0,0.0,0.0,0.0,0.0,0.0,0.0,0.0,0.0,0.0,0.0,-3.3199,-3.5154,-3.5038,-3.25,-3.0275,-2.6933,0.0,0.0,0.0,0.0,0.0,0.0,0.0,0.0,0.0,0.0,0.0,0.0,0.0,0.0,0.0,0.0,0.0,0.0,0.0,0.0,0.0,0.0,0.0,0.0,0.0,0.0,0.0,0.0,0.0,0.0,0.0,0.0,0.0,0.0,0.0,0.0,0.0,0.0,0.0,0.0,0.0,0.0,0.0,0.0,0.0,0.0,0.0,0.0,0.0,0.0,0.0,0.0,0.0,0.0,0.0,0.0,0.0,0.0,0.0,0.0,0.0,0.0,0.0,0.0,0.0,0.0,0.0,0.0,0.0,0.0,0.0,0.0,0.0,0.0,0.0,0.0,0.0,0.0,0.0,0.0,0.0,0.0,0.0,0.0,0.0,0.0,0.0,0.0,0.0,0.0,0.0,0.0,0.0,0.0,0.0,0.0,0.0,0.0,0.0,0.0,0.0,0.0,0.0,0.0,0.0,0.0,0.0,0.0,0.0,-3.6699,-4.2008,-4.3316,-4.0123,-3.3577,-2.9462,0.0,0.0,0.0,0.0,0.0,0.0,0.0,0.0,0.0,0.0,0.0,0.0,0.0,0.0,0.0,0.0,0.0,0.0,0.0,0.0,0.0,0.0,0.0,0.0,0.0,0.0,0.0,0.0,0.0,0.0,0.0,0.0,0.0,0.0,0.0,0.0,0.0,0.0,0.0,0.0,0.0,0.0,0.0,0.0,0.0,0.0,0.0,0.0,0.0,0.0,0.0,0.0,0.0,0.0,0.0,0.0,0.0,0.0,0.0,0.0,0.0,0.0,0.0,0.0,0.0,0.0,0.0,0.0,0.0,0.0,0.0,0.0,0.0,0.0,0.0,0.0,0.0,0.0,0.0,0.0,0.0,0.0,0.0,0.0,0.0,0.0,0.0,0.0,0.0,0.0,0.0,0.0,0.0,0.0,0.0,0.0,0.0,0.0,0.0,0.0,0.0,0.0,0.0,0.0,0.0,0.0,0.0,0.0,-3.6507,-4.0623,-4.6932,-4.9317,-4.7394,-3.9462,-3.3308,0.0,0.0,0.0,0.0,0.0,0.0,0.0,0.0,0.0,0.0,0.0,0.0,0.0,0.0,0.0,0.0,0.0,0.0,0.0,0.0,0.0,0.0,0.0,0.0,0.0,0.0,0.0,0.0,0.0,0.0,0.0,0.0,0.0,0.0,0.0,0.0,0.0,0.0,0.0,0.0,0.0,0.0,0.0,0.0,0.0,0.0,0.0,0.0,0.0,0.0,0.0,0.0,0.0,0.0,0.0,0.0,0.0,0.0,0.0,0.0,0.0,0.0,0.0,0.0,0.0,0.0,0.0,0.0,0.0,0.0,0.0,0.0,0.0,0.0,0.0,0.0,0.0,0.0,0.0,0.0,0.0,0.0,0.0,0.0,0.0,0.0,0.0,0.0,0.0,0.0,0.0,0.0,0.0,0.0,0.0,0.0,0.0,0.0,0.0,0.0,0.0,0.0,0.0,0.0,0.0,0.0,0.0,0.0,-3.9315,-4.4355,-5.0356,-5.3423,-5.3115,-4.5769,-3.75,0.0,0.0,0.0,0.0,0.0,0.0,0.0,0.0,0.0,0.0,0.0,0.0,0.0,0.0,0.0,0.0,0.0,0.0,0.0,0.0,0.0,0.0,0.0,0.0,0.0,0.0,0.0,0.0,0.0,0.0,0.0,0.0,0.0,0.0,0.0,0.0,0.0,0.0,0.0,0.0,0.0,0.0,0.0,0.0,0.0,0.0,0.0,0.0,0.0,0.0,0.0,0.0,0.0,0.0,0.0,0.0,0.0,0.0,0.0,0.0,0.0,0.0,0.0,0.0,0.0,0.0,0.0,0.0,0.0,0.0,0.0,0.0,0.0,0.0,0.0,0.0,0.0,0.0,0.0,0.0,0.0,0.0,0.0,0.0,0.0,0.0,0.0,0.0,0.0,0.0,0.0,0.0,0.0,0.0,0.0,0.0,0.0,0.0,0.0,0.0,0.0,0.0,0.0,0.0,0.0,0.0,0.0,0.0,-4.02,-4.5287,-5.1779,-5.4836,-5.415,-4.5453,-3.7976,0.0,0.0,0.0,0.0,0.0,0.0,0.0,0.0,0.0,0.0,0.0,0.0,0.0,0.0,0.0,0.0,0.0,0.0,0.0,0.0,0.0,0.0,0.0,0.0,0.0,0.0,0.0,0.0,0.0,0.0,0.0,0.0,0.0,0.0,0.0,0.0,0.0,0.0,0.0,0.0,0.0,0.0,0.0,0.0,0.0,0.0,0.0,0.0,-2.0084,0.0,0.0,0.0,0.0,0.0,0.0,0.0,0.0,0.0,0.0,0.0,0.0,0.0,0.0,0.0,0.0,0.0,0.0,0.0,0.0,0.0,0.0,0.0,0.0,0.0,0.0,0.0,0.0,0.0,0.0,0.0,0.0,0.0,0.0,0.0,0.0,0.0,0.0,0.0,0.0,0.0,0.0,0.0,0.0,0.0,0.0,0.0,0.0,0.0,0.0,0.0,0.0,0.0,0.0,0.0,0.0,0.0,0.0,0.0,-4.147,-4.7278,-5.2472,-5.4731,-5.3622,-4.6713,-3.99,0.0,0.0,0.0,0.0,0.0,0.0,0.0,0.0,0.0,0.0,0.0,0.0,0.0,0.0,0.0,0.0,0.0,0.0,0.0,0.0,0.0,0.0,0.0,0.0,0.0,0.0,0.0,0.0,0.0,0.0,0.0,0.0,0.0,0.0,0.0,0.0,0.0,0.0,0.0,0.0,0.0,0.0,0.0,0.0,0.0,0.0,0.0,0.0,0.0,0.0,0.0,0.0,0.0,0.0,0.0,0.0,0.0,0.0,0.0,0.0,0.0,0.0,0.0,0.0,0.0,0.0,0.0,0.0,0.0,0.0,0.0,0.0,0.0,0.0,0.0,0.0,0.0,0.0,0.0,0.0,0.0,0.0,0.0,0.0,0.0,0.0,0.0,0.0,0.0,0.0,0.0,0.0,0.0,0.0,0.0,0.0,0.0,0.0,0.0,0.0,0.0,0.0,0.0,0.0,0.0,0.0,0.0,-3.6469,-4.2585,-4.951,-5.2856,-5.4087,-5.3154,-4.8193,-4.1925,-3.4395,0.0,0.0,0.0,0.0,0.0,0.0,0.0,0.0,0.0,0.0,0.0,0.0,0.0,0.0,0.0,0.0,0.0,0.0,0.0,0.0,0.0,0.0,0.0,0.0,0.0,0.0,0.0,0.0,0.0,0.0,0.0,0.0,0.0,0.0,0.0,0.0,0.0,0.0,-1.7485,-1.8989,0.0,0.0,0.0,0.0,0.0,0.0,0.0,0.0,-1.9908,0.0,0.0,0.0,0.0,0.0,0.0,0.0,0.0,0.0,0.0,0.0,0.0,0.0,0.0,0.0,0.0,0.0,0.0,0.0,0.0,0.0,0.0,0.0,0.0,0.0,0.0,0.0,0.0,0.0,0.0,0.0,0.0,0.0,0.0,0.0,0.0,0.0,0.0,0.0,0.0,0.0,0.0,0.0,0.0,0.0,0.0,0.0,0.0,0.0,0.0,0.0,0.0,0.0,0.0,0.0,0.0,-3.5507,-3.7353,-4.2547,-5.1231,-5.3433,-5.4066,-5.3025,-4.8174,-4.1878,-3.4373,0.0,0.0,0.0,0.0,0.0,0.0,0.0,0.0,0.0,0.0,0.0,0.0,0.0,0.0,0.0,0.0,0.0,0.0,0.0,0.0,0.0,0.0,0.0,0.0,0.0,0.0,0.0,0.0,0.0,0.0,0.0,0.0,0.0,0.0,0.0,0.0,0.0,0.0,0.0,-2.0771,-2.1379,0.0,0.0,0.0,0.0,0.0,0.0,0.0,0.0,-2.0128,0.0,0.0,0.0,0.0,0.0,0.0,0.0,0.0,0.0,0.0,0.0,0.0,0.0,0.0,0.0,0.0,0.0,0.0,0.0,0.0,0.0,0.0,0.0,0.0,0.0,0.0,0.0,0.0,0.0,0.0,0.0,0.0,0.0,0.0,0.0,0.0,0.0,0.0,0.0,0.0,0.0,0.0,0.0,0.0,0.0,0.0,0.0,0.0,0.0,0.0,0.0,0.0,0.0,0.0,0.0,-3.4507,-3.8623,-4.3893,-5.0394,-5.2672,-5.292,-5.1093,-4.5755,-3.9879,0.0,0.0,0.0,0.0,0.0,0.0,0.0,0.0,0.0,0.0,0.0,0.0,0.0,0.0,0.0,0.0,0.0,0.0,0.0,0.0,0.0,0.0,0.0,0.0,0.0,0.0,0.0,0.0,0.0,0.0,0.0,0.0,0.0,0.0,0.0,0.0,0.0,0.0,0.0,0.0,-2.14,-2.1683,-2.1679,0.0,0.0,0.0,0.0,0.0,0.0,-2.0729,-2.0336,0.0,0.0,0.0,0.0,0.0,0.0,0.0,0.0,0.0,0.0,0.0,0.0,0.0,0.0,0.0,0.0,0.0,0.0,0.0,0.0,0.0,0.0,0.0,0.0,0.0,0.0,0.0,0.0,0.0,0.0,0.0,0.0,0.0,0.0,0.0,0.0,0.0,0.0,0.0,0.0,0.0,0.0,0.0,0.0,0.0,0.0,0.0,0.0,0.0,0.0,0.0,0.0,0.0,0.0,0.0,-3.2929,-3.9277,-4.4701,-4.8971,-5.1431,-5.1488,-4.9009,-4.2964,-3.7485,0.0,0.0,0.0,0.0,0.0,0.0,0.0,0.0,0.0,0.0,0.0,0.0,0.0,0.0,0.0,0.0,0.0,0.0,0.0,0.0,0.0,0.0,0.0,0.0,0.0,0.0,0.0,0.0,0.0,0.0,0.0,0.0,0.0,0.0,0.0,0.0,0.0,0.0,0.0,0.0,0.0,-2.2394,-2.307,-2.2339,0.0,0.0,0.0,0.0,-2.0797,-2.1839,0.0,0.0,0.0,0.0,0.0,0.0,0.0,0.0,0.0,0.0,0.0,0.0,0.0,0.0,0.0,0.0,0.0,0.0,0.0,0.0,0.0,0.0,0.0,0.0,0.0,0.0,0.0,0.0,0.0,0.0,0.0,0.0,0.0,0.0,0.0,0.0,0.0,0.0,0.0,0.0,0.0,0.0,0.0,0.0,0.0,0.0,0.0,0.0,0.0,0.0,0.0,0.0,0.0,0.0,0.0,0.0,-3.2852,-3.8084,-4.3239,-4.8048,-5.0048,-5.0096,-4.8202,-4.1028,-3.5767,0.0,0.0,0.0,0.0,0.0,0.0,0.0,0.0,0.0,0.0,0.0,0.0,0.0,0.0,0.0,0.0,0.0,0.0,0.0,0.0,0.0,0.0,0.0,0.0,0.0,0.0,0.0,0.0,0.0,0.0,0.0,0.0,0.0,0.0,0.0,0.0,0.0,0.0,0.0,0.0,0.0,-2.464,-2.2683,-2.328,-2.3516,0.0,0.0,-2.5579,-2.4173,-2.7028,0.0,0.0,0.0,0.0,0.0,0.0,0.0,0.0,0.0,0.0,0.0,0.0,0.0,0.0,0.0,0.0,0.0,0.0,0.0,0.0,0.0,0.0,0.0,0.0,0.0,0.0,0.0,0.0,0.0,0.0,0.0,0.0,0.0,0.0,0.0,0.0,0.0,0.0,0.0,0.0,0.0,0.0,0.0,0.0,0.0,0.0,0.0,0.0,0.0,0.0,0.0,0.0,0.0,0.0,0.0,-2.9165,-3.3622,-3.91,-4.3696,-4.7232,-4.8528,-4.8296,-4.6589,-3.8213,-3.2934,0.0,0.0,0.0,0.0,0.0,0.0,0.0,0.0,0.0,0.0,0.0,0.0,0.0,0.0,0.0,0.0,0.0,0.0,0.0,0.0,0.0,0.0,0.0,0.0,0.0,0.0,0.0,0.0,0.0,0.0,0.0,0.0,0.0,0.0,0.0,0.0,0.0,0.0,0.0,0.0,0.0,0.0,-2.3911,-2.5437,0.0,0.0,0.0,-2.7118,-2.5968,0.0,0.0,0.0,0.0,0.0,0.0,0.0,0.0,0.0,0.0,0.0,0.0,0.0,0.0,0.0,0.0,0.0,0.0,0.0,0.0,0.0,0.0,0.0,0.0,0.0,0.0,0.0,0.0,0.0,0.0,0.0,0.0,0.0,0.0,0.0,0.0,0.0,0.0,0.0,0.0,0.0,0.0,0.0,0.0,0.0,0.0,0.0,0.0,0.0,0.0,0.0,0.0,0.0,0.0,0.0,0.0,0.0,-3.4186,-3.9791,-4.3921,-4.6378,-4.7221,-4.6797,-4.4977,-3.6608,0.0,0.0,0.0,0.0,0.0,0.0,0.0,0.0,0.0,0.0,0.0,0.0,0.0,0.0,0.0,0.0,0.0,0.0,0.0,0.0,0.0,0.0,0.0,0.0,0.0,0.0,0.0,-1.7238,0.0,0.0,0.0,0.0,0.0,0.0,0.0,0.0,0.0,0.0,0.0,0.0,0.0,0.0,-2.6964,-2.5373,-2.759,-2.9053,0.0,0.0,-2.8831,-2.7604,-2.8979,-2.8862,0.0,0.0,0.0,0.0,0.0,0.0,0.0,0.0,0.0,0.0,0.0,0.0,0.0,0.0,0.0,0.0,0.0,0.0,0.0,0.0,0.0,0.0,0.0,0.0,0.0,0.0,0.0,0.0,0.0,0.0,0.0,0.0,0.0,0.0,0.0,0.0,0.0,0.0,0.0,0.0,0.0,0.0,0.0,0.0,0.0,0.0,0.0,0.0,0.0,0.0,0.0,0.0,0.0,0.0,0.0,-3.4093,-3.9166,-4.2994,-4.541,-4.632,-4.5946,-4.4135,-3.7444,-3.269,0.0,0.0,0.0,0.0,0.0,0.0,0.0,0.0,0.0,0.0,0.0,0.0,0.0,0.0,0.0,0.0,0.0,0.0,0.0,0.0,0.0,0.0,0.0,0.0,0.0,0.0,0.0,0.0,0.0,0.0,0.0,0.0,0.0,0.0,0.0,0.0,0.0,0.0,0.0,0.0,0.0,-2.7651,-2.6767,-2.9343,-3.106,0.0,0.0,-3.1605,-2.9389,-3.2921,-3.3303,-2.5568,0.0,0.0,0.0,0.0,0.0,0.0,0.0,0.0,0.0,0.0,0.0,0.0,0.0,0.0,0.0,0.0,0.0,0.0,0.0,0.0,0.0,0.0,0.0,0.0,0.0,0.0,0.0,0.0,0.0,0.0,0.0,0.0,0.0,0.0,0.0,0.0,0.0,0.0,0.0,0.0,0.0,0.0,0.0,0.0,0.0,0.0,0.0,0.0,0.0,0.0,0.0,0.0,0.0,-3.0219,-3.4903,-3.89,-4.2398,-4.5247,-4.5218,-4.4518,-4.332,-3.6706,-3.1996,0.0,0.0,0.0,0.0,0.0,0.0,0.0,0.0,0.0,0.0,0.0,0.0,0.0,0.0,0.0,0.0,0.0,0.0,0.0,0.0,0.0,0.0,0.0,0.0,0.0,0.0,0.0,0.0,-2.0344,-2.0739,-2.0548,0.0,0.0,0.0,0.0,0.0,0.0,0.0,0.0,0.0,0.0,-2.916,-3.001,-3.2462,0.0,0.0,-3.4608,-3.4563,-3.2478,-3.329,-3.2465,-2.7405,-2.5411,0.0,0.0,0.0,0.0,0.0,0.0,0.0,0.0,0.0,0.0,0.0,0.0,0.0,0.0,0.0,0.0,0.0,0.0,0.0,0.0,0.0,0.0,0.0,0.0,0.0,0.0,0.0,0.0,0.0,0.0,0.0,0.0,0.0,0.0,0.0,0.0,0.0,0.0,0.0,0.0,0.0,0.0,0.0,0.0,0.0,0.0,0.0,0.0,0.0,0.0,0.0,0.0,-3.0355,-3.5381,-3.8753,-4.2055,-4.5285,-4.4508,-4.3675,-4.2679,-3.6978,-3.2546,0.0,0.0,0.0,0.0,0.0,0.0,0.0,0.0,0.0,0.0,0.0,0.0,0.0,0.0,0.0,0.0,0.0,0.0,0.0,0.0,0.0,0.0,0.0,0.0,0.0,0.0,0.0,0.0,-2.0886,-2.118,-2.0584,0.0,0.0,0.0,0.0,0.0,0.0,0.0,0.0,0.0,0.0,-3.0655,-3.1934,-3.3982,-3.5327,-3.5226,-3.5218,-3.4785,-3.3423,-3.2747,-3.1308,-2.8201,0.0,0.0,0.0,0.0,0.0,0.0,0.0,0.0,0.0,0.0,0.0,0.0,0.0,0.0,0.0,0.0,0.0,0.0,0.0,0.0,0.0,0.0,0.0,0.0,0.0,0.0,0.0,0.0,0.0,0.0,-2.7625,0.0,0.0,0.0,0.0,0.0,0.0,0.0,0.0,0.0,0.0,0.0,0.0,0.0,0.0,0.0,0.0,0.0,0.0,0.0,0.0,0.0,0.0,-3.0241,-3.5216,-3.8597,-4.1925,-4.5097,-4.4437,-4.3596,-4.2717,-3.8629,-3.48,-3.1408,0.0,0.0,0.0,0.0,0.0,0.0,0.0,0.0,0.0,0.0,0.0,0.0,0.0,0.0,0.0,0.0,0.0,0.0,0.0,0.0,0.0,0.0,0.0,0.0,0.0,0.0,-1.9462,-2.0079,-2.0539,0.0,0.0,0.0,0.0,0.0,0.0,0.0,0.0,0.0,0.0,-2.8867,-3.1952,-3.1815,-3.3197,-3.4204,-3.3937,-3.2597,-3.1568,-3.1507,-3.1433,-3.0401,0.0,0.0,0.0,0.0,0.0,0.0,0.0,0.0,0.0,0.0,0.0,0.0,0.0,0.0,0.0,0.0,0.0,0.0,0.0,0.0,0.0,0.0,0.0,0.0,0.0,0.0,0.0,-3.205,-3.1057,0.0,0.0,0.0,0.0,0.0,0.0,0.0,0.0,0.0,0.0,0.0,-3.4374,-3.3823,0.0,0.0,0.0,0.0,0.0,0.0,0.0,0.0,0.0,0.0,0.0,0.0,-3.0586,-3.4494,-3.835,-4.1417,-4.3541,-4.334,-4.2795,-4.1925,-3.8391,-3.4151,-2.9115,0.0,0.0,0.0,0.0,0.0,0.0,0.0,0.0,0.0,0.0,0.0,0.0,0.0,0.0,0.0,0.0,0.0,0.0,0.0,0.0,0.0,0.0,0.0,0.0,0.0,-2.0401,0.0,0.0,0.0,0.0,0.0,0.0,0.0,0.0,0.0,0.0,0.0,-2.4617,-2.6462,-2.863,-3.0272,-3.09,-3.2836,-3.4165,0.0,0.0,0.0,0.0,0.0,0.0,0.0,0.0,0.0,0.0,0.0,0.0,0.0,0.0,-2.8418,-2.3766,-2.3169,-2.3506,-2.3922,0.0,0.0,0.0,0.0,0.0,0.0,0.0,0.0,0.0,0.0,0.0,0.0,0.0,0.0,-3.5373,0.0,-3.4265,0.0,0.0,0.0,0.0,0.0,0.0,0.0,0.0,-3.5122,-3.6651,-3.8197,-3.7929,-3.7976,0.0,-3.6586,-3.3209,0.0,0.0,0.0,0.0,0.0,0.0,0.0,0.0,-3.1309,-3.4127,-3.8227,-4.1149,-4.269,-4.2499,-4.1954,-4.1074,-3.7827,-3.396,-2.9567,-2.6708,-2.4049,0.0,0.0,0.0,0.0,0.0,0.0,0.0,0.0,0.0,0.0,0.0,0.0,0.0,0.0,0.0,0.0,0.0,0.0,0.0,0.0,0.0,0.0,0.0,-2.1465,0.0,0.0,0.0,0.0,0.0,0.0,0.0,0.0,0.0,-2.4199,-2.5002,-2.6341,-2.8492,-2.9853,-3.0629,-3.0613,0.0,0.0,0.0,0.0,0.0,0.0,0.0,-3.0025,-2.9329,-2.9451,-3.0178,-3.1752,-3.2662,-3.297,-3.2478,0.0,0.0,-2.7377,-2.6783,-2.7108,-2.7521,-2.7615,-2.7687,-2.7954,-2.8255,-2.8536,0.0,0.0,0.0,0.0,0.0,0.0,0.0,0.0,-3.7445,-3.7971,0.0,-3.7589,0.0,0.0,0.0,0.0,0.0,-3.7339,0.0,0.0,-4.1256,-4.2326,-3.9546,-4.0272,-4.0157,-3.9317,-3.924,-3.75,-3.4274,-3.1012,0.0,0.0,0.0,0.0,0.0,0.0,-3.2328,-3.4167,-3.8226,-4.1113,-4.2641,-4.1915,-4.1036,-4.0072,-3.6863,-3.4342,-3.2585,-2.9414,-2.7216,-2.6077,-2.1552,0.0,0.0,0.0,0.0,0.0,0.0,0.0,0.0,0.0,0.0,0.0,0.0,0.0,0.0,0.0,0.0,0.0,0.0,0.0,0.0,-2.2575,0.0,0.0,0.0,0.0,0.0,0.0,0.0,0.0,0.0,0.0,-2.463,-2.6659,-2.8755,-3.0373,0.0,0.0,0.0,0.0,-3.2077,-2.8548,-2.9292,-3.0063,-2.9354,-3.1115,-3.2391,-3.1949,0.0,0.0,-3.5479,-3.4783,-3.4026,-3.3117,-3.3429,-3.3351,-3.2855,-3.1925,-3.1561,-3.2246,-3.1355,-3.0737,-3.1305,-3.1264,-3.0873,-5.0359,0.0,0.0,0.0,0.0,-4.3703,-4.5184,-4.757,-4.6729,-4.5583,-4.4284,-4.3252,0.0,0.0,0.0,0.0,0.0,0.0,-3.9573,-4.0731,-4.3596,-4.5048,-4.5305,-4.6156,-4.6118,-4.5239,-4.3433,-4.2068,-4.1046,-3.8371,-3.4091,-2.8337,0.0,0.0,0.0,0.0,-3.2912,-3.5774,-3.8762,-4.0807,-4.1839,-4.1074,-3.9393,-3.6757,-3.5152,-3.3242,-3.0987,-2.9994,-2.849,-2.6378,-2.4828,0.0,0.0,0.0,0.0,0.0,0.0,0.0,0.0,0.0,0.0,0.0,0.0,0.0,0.0,0.0,0.0,0.0,0.0,0.0,-2.1812,-2.3575,-2.3602,0.0,0.0,0.0,0.0,0.0,0.0,0.0,0.0,0.0,-2.9193,-2.946,-2.9985,0.0,0.0,-3.0795,-2.9613,-3.0926,-3.1591,-3.0539,-3.1237,0.0,-3.2375,-3.2509,-3.2939,-3.3913,-3.6734,-3.8529,-3.7454,-3.7973,-3.8306,-3.7527,-3.7517,-3.7739,-3.8186,-3.6064,-3.4318,-3.4318,-3.458,-3.4882,-3.5112,-3.5486,-3.5776,-5.9376,-5.3683,-5.0279,-4.9121,-4.9519,-4.9541,-5.0726,-5.2537,-5.1697,-5.0627,-4.9404,-4.7952,-4.5583,-4.2603,-4.0807,0.0,0.0,0.0,-4.3502,-4.5392,-4.6997,-4.8143,-4.8831,-4.971,-4.948,-4.8258,-4.6413,-4.5152,-4.4475,-4.1676,-3.7835,-3.3065,0.0,0.0,-3.0343,-3.2721,-3.4963,-3.6982,-3.9173,-4.0692,-4.1457,-4.0043,-3.798,-3.5297,-3.4426,-3.2821,-3.03,-3.0529,-2.966,-2.738,-2.6486,-2.5243,0.0,0.0,0.0,0.0,0.0,0.0,0.0,0.0,0.0,0.0,0.0,-2.1372,0.0,0.0,0.0,0.0,-2.2862,-2.2975,-2.318,-2.4236,0.0,0.0,0.0,0.0,0.0,0.0,0.0,-2.5831,-2.7996,-3.021,-3.2082,-3.2305,-3.2551,-3.3246,-3.2698,-3.1961,-3.1029,0.0,-3.2736,-3.1997,-3.2816,-3.361,-3.377,-3.4247,-3.5092,-3.6692,-3.8634,-3.9963,-3.9429,-3.9843,-4.0085,-3.9815,-3.9588,-3.9677,-4.0309,-3.868,-3.7368,-3.7559,-3.7819,-3.8078,-3.8185,-3.8623,-3.9008,-6.6598,-6.5108,-5.8116,-5.5021,-5.4715,-5.4677,-5.4715,-5.4639,-5.3798,-5.376,-5.418,-5.1811,-5.055,-5.0092,-4.7188,0.0,-4.6729,-4.7674,-4.8525,-4.9366,-5.1009,-5.1353,-5.055,-5.1314,-5.0856,-4.9301,-4.8372,-4.7073,-4.5392,-4.2364,-4.0272,-3.9317,-3.8541,-3.6799,-3.4282,-3.6378,-3.7632,-3.7712,-3.9279,-4.0463,-4.1227,-3.8858,-3.6795,-3.5114,-3.4273,-3.26,-3.0192,-3.0911,-3.0494,-2.857,-2.7091,-2.6447,-2.6647,0.0,0.0,0.0,0.0,0.0,0.0,0.0,0.0,0.0,0.0,0.0,0.0,0.0,0.0,0.0,-2.4685,0.0,-2.5541,-2.5034,0.0,0.0,0.0,-2.7336,-2.8656,-2.8374,-2.8631,-3.0063,0.0,0.0,-3.3697,-3.4905,-3.5784,-3.6419,-3.588,-3.5094,-3.4184,-3.4845,-3.4909,-3.3274,-3.4338,-3.5124,-3.477,-3.6227,-3.8044,-3.9406,-3.9984,-4.0289,-4.0714,-4.043,-4.0178,-4.0123,-3.9901,-3.9661,-3.9771,-3.9992,-4.0611,-4.1055,-4.0625,-4.021,-4.0284,-4.0323,-4.0323,-7.0228,-6.8088,-6.5643,-6.2777,-5.9835,-5.9835,-5.9797,-5.9759,-5.897,-5.8001,-5.6855,-5.5021,-5.2766,-5.0283,-5.0168,-4.9519,-4.8525,-5.0015,-5.0818,-5.1123,-5.2728,-5.3034,-5.2231,-5.2422,-5.2002,-5.0971,-4.948,-4.822,-4.7188,-4.5736,-4.394,-4.1991,-4.1695,-3.9058,-3.4251,-3.5198,-3.646,-3.7674,-3.8094,-3.8744,-3.9508,-3.775,-3.5993,-3.4312,-3.286,-3.0911,-2.8427,-2.9726,-2.9618,-2.7813,-2.837,-2.7875,-2.606,-2.2936,0.0,0.0,0.0,0.0,0.0,0.0,0.0,0.0,0.0,-2.0556,-1.9947,0.0,-2.2886,0.0,-2.6133,-2.7731,-2.7284,-2.8154,0.0,0.0,-2.7813,-2.8106,-2.731,-2.9182,-3.0442,-3.021,-3.2326,-3.4307,-3.5569,-3.6448,-3.7272,-3.797,-3.6731,-3.5803,-3.6157,-3.6454,-3.6395,-3.5962,-3.7154,-3.8275,-3.7826,-3.8799,-3.9674,-4.0148,-4.0652,-4.1,-4.0555,-4.0333,-3.9985,-3.9364,-3.9054,-3.9286,-4.0111,-3.994,-4.0076,-4.1002,-4.0852,-4.043,-4.0508,-4.0516,-4.0516,-7.1374,-6.9655,-6.8394,-6.633,-6.3809,-6.3083,-6.2548,-6.2128,-6.1287,-6.0179,-5.8918,-5.7619,-5.5594,-5.3187,-5.3607,-5.311,-5.2002,-5.2881,-5.3289,-5.3339,-5.4256,-5.4218,-5.3378,-5.2996,-5.2384,-5.157,-4.9901,-4.8831,-4.8334,-4.7111,-4.5812,-4.4437,-4.4093,-4.1724,-3.753,-3.7063,-3.7368,-3.8285,-3.8285,-3.8514,-3.8935,-3.7712,-3.5878,-3.3509,-3.179,-2.9574,-2.6708,-2.7478,-2.7325,-2.5969,-2.6525,-2.641,-2.5261,-2.2703,-2.0996,0.0,0.0,0.0,0.0,0.0,0.0,0.0,0.0,0.0,0.0,0.0,-2.4584,-2.462,-2.7369,-2.8743,-2.7871,-2.8594,-2.8998,-2.8778,-2.9549,-3.0124,-3.0308,-3.1935,-3.3109,-3.3403,-3.5018,-3.6413,-3.7257,-3.7867,-3.836,-3.8826,-3.8051,-3.7502,-3.7677,-3.7737,-3.7708,-3.7669,-3.847,-3.8971,-3.8469,-3.8787,-3.9046,-3.9098,-3.9532,-3.9839,-3.9765,-3.9876,-3.977,-3.941,-3.9259,-3.9462,-4.0222,-4.0099,-4.0078,-4.0626,-4.0709,-4.0538,-4.0516,-4.0516,-4.0439,-7.0954,-6.996,-6.8279,-6.7171,-6.6407,-6.4611,-6.3541,-6.3006,-6.2128,-6.1249,-6.0346,-5.9606,-5.8345,-5.6778,-5.674,-5.6243,-5.539,-5.539,-5.539,-5.539,-5.539,-5.4944,-5.4065,-5.3225,-5.2384,-5.1532,-4.9977,-4.9148,-4.8869,-4.7417,-4.65,-4.6156,-4.5468,-4.3978,-4.1724,-4.0119,-3.9164,-3.8858,-3.9126,-3.9279,-3.9126,-3.7789,-3.5687,-3.2776,-3.0643,-2.8128,-2.5224,-2.5153,-2.4798,-2.3917,-2.3819,-2.4182,-2.5035,-2.27,-2.1722,0.0,-2.1832,0.0,0.0,0.0,0.0,0.0,0.0,0.0,0.0,-2.6686,-2.6833,-2.7053,-2.8598,-2.9269,-2.847,-2.8521,-2.9414,-3.1433,-3.1715,-3.2596,-3.4674,-3.5078,-3.5752,-3.7309,-3.7603,-3.7918,-3.8557,-3.8906,-3.9027,-3.905,-3.9117,-3.8968,-3.8766,-3.8715,-3.8737,-3.8765,-3.8676,-3.8339,-3.7646,-3.7544,-3.764,-3.7588,-3.7991,-3.8234,-3.8975,-3.9256,-3.9464,-3.9705,-3.9717,-3.9851,-4.0215,-4.028,-4.0363,-4.0471,-4.0499,-4.0508,-4.0516,-4.0516,-4.0246,-6.9769,-6.8203,-6.656,-6.5796,-6.5452,-6.3121,-6.2815,-6.3885,-6.3045,-6.1822,-6.0422,-6.0217,-5.9224,-5.7695,-5.7657,-5.6816,-5.539,-5.539,-5.539,-5.539,-5.539,-5.4944,-5.4065,-5.3225,-5.2384,-5.1582,-5.055,-4.9366,-4.8056,-4.7712,-4.6489,-4.4503,-4.4322,-4.3663,-4.2565,0.0,0.0,0.0,-3.9966,-4.0731,-3.9919,-3.5832,-3.3349,-3.2623,-2.8434,0.0,-2.4263,-2.4803,-2.4745,-2.3765,-2.4783,0.0,0.0,0.0,0.0,0.0,0.0,0.0,0.0,0.0,0.0,0.0,-2.8253,-2.7677,-2.6712,-2.72,-2.8117,-2.9402,-3.0441,-3.1176,-3.1641,-3.2302,-3.2852,-3.3256,-3.333,-3.3807,-3.4894,-3.5591,-3.645,-3.7382,-3.8065,-3.8505,-3.8579,-3.875,-3.8743,-3.8685,-3.8825,-3.8825,-3.8683,-3.8975,-3.9232,-3.9017,-3.8437,-3.7761,-3.6949,-3.733,-3.7539,-3.7617,-3.8095,-3.8538,-3.8715,-3.8781,-3.8979,-3.9285,-3.9285,-3.9464,-3.9927,-4.003,-4.0072,-4.0342,-4.0427,-4.0507,-4.0508,-4.0477,-4.0246,-6.9425,0.0,-6.698,-6.6139,0.0,-6.3579,-6.3121,-6.3465,-6.2204,-6.1211,-6.0422,-6.0384,-5.9682,-5.8498,-5.8077,-5.7199,-5.5976,-5.5594,-5.539,-5.5352,-5.4944,-5.4524,-5.4065,-5.2805,-5.2002,-5.157,-5.0703,-4.9862,-4.9022,-4.817,-4.7139,-4.5878,-4.5086,-4.4437,-4.4017,-4.3606,-4.1915,-3.9011,-3.9393,-3.9852,-4.0148,-3.6948,-3.4762,-3.3883,-3.03,0.0,0.0,0.0,0.0,0.0,0.0,0.0,0.0,-2.6952,0.0,-2.8301,-2.7996,-2.8301,-2.9439,-2.9597,-3.0099,-3.1262,-3.1372,-3.0675,-2.9108,-3.0063,-3.1091,-3.1898,-3.2339,-3.2742,-3.3146,-3.355,-3.3807,-3.3807,-3.3807,-3.4124,-3.4894,-3.5371,-3.5958,-3.6758,-3.7257,-3.7514,-3.7514,-3.7514,-3.7514,-3.7514,-3.7514,-3.7551,-3.7617,-3.844,-3.8938,-3.8381,-3.7613,-3.6786,-3.6098,-3.6172,-3.6464,-3.6383,-3.6726,-3.74,-3.819,-3.8428,-3.8667,-3.9199,-3.9324,-3.9389,-3.9667,-3.9835,-3.9848,-3.9662,-3.9729,-3.9676,-3.94,-3.9885,-4.0131,-6.8967,-6.7439,-6.7324,-6.6369,-6.4917,-6.4076,-6.3236,-6.2357,0.0,0.0,0.0,-6.0384,-5.9835,-5.8828,-5.8192,-5.7351,-5.6358,-5.5708,-5.539,-5.5365,-5.4677,-5.418,-5.3798,-5.2461,-5.1646,-5.1353,-5.0627,-5.013,-4.9824,-4.8476,-4.7635,-4.7264,-4.5965,-4.5277,-4.5288,-4.5125,-4.3634,-4.0845,-3.9317,-3.9126,-4.0186,-3.8171,-3.6413,-3.5037,-3.2286,-3.0147,-2.8765,-2.8006,-2.7662,-2.765,-2.679,-2.6739,-2.7676,-2.7551,-2.7897,-2.8815,-2.9475,-3.0491,-3.1935,-3.2045,-3.2669,-3.4137,-3.4247,-3.355,-3.1935,-3.3036,-3.3807,-3.3807,-3.3807,-3.3807,-3.3807,-3.3807,-3.3807,-3.3807,-3.3917,-3.4321,-3.4931,-3.5151,-3.5605,-3.6156,-3.634,-3.6303,-3.634,-3.6376,-3.6303,-3.6303,-3.6413,-3.6303,-3.645,-3.7434,-3.7904,-3.7118,-3.6456,-3.5766,-3.5055,-3.5018,-3.5004,-3.5165,-3.543,-3.6083,-3.7236,-3.7914,-3.8403,-3.8977,-3.9289,-3.9427,-3.9488,-3.9702,-3.9602,-3.9039,-3.9117,-3.9073,-3.8469,-3.9392,-3.9838,-6.7286,-6.5681,-6.5008,-6.4153,-6.3197,-6.2357,-6.1516,-6.0714,-6.0499,-6.0384,-6.0384,-6.0384,-5.9529,-5.8077,-5.7925,-5.7046,-5.5594,-5.5441,-5.539,-5.539,-5.5288,-5.4409,-5.2996,-5.2728,-5.1888,-5.055,-5.0359,-4.9557,-4.8246,-4.7941,-4.7073,-4.5812,-4.543,-4.5277,-4.5239,-4.4551,-4.3624,-4.245,-4.2221,-4.1495,-4.0263,-3.6528,-3.4434,-3.4006,-3.0414,-2.8122,-2.7886,-2.7621,-2.7462,-2.7682,-2.7711,-2.848,-3.0141,-3.0528,-3.1397,-3.2816,-3.3073,-3.355,-3.4417,-3.4491,-3.4894,-3.5826,-3.5936,-3.5238,-3.366,-3.366,-3.3807,-3.3807,-3.388,-3.3807,-3.3807,-3.3844,-3.3844,-3.3844,-3.4417,-3.4894,-3.4968,-3.5555,-3.6009,-3.6156,-3.6303,-3.6229,-3.6156,-3.6193,-3.6119,-3.6229,-3.6009,-3.6193,-3.6156,-3.645,-3.6266,-3.5591,-3.5261,-3.4857,-3.4321,-3.4564,-3.4857,-3.5004,-3.556,-3.6035,-3.6564,-3.71,-3.7706,-3.8106,-3.8704,-3.9133,-3.9402,-3.9539,-3.9519,-3.9483,-3.9533,-3.9385,-3.8716,-3.9427,-3.946,-6.8279,-6.6789,-6.6369,-6.5184,-6.3503,-6.2166,-6.1134,-6.0422,-6.0384,-6.0384,-6.0384,-6.0384,-5.995,-5.9224,-5.8307,-5.7504,-5.6702,-5.5823,-5.539,-5.5365,-5.4906,-5.4295,-5.3454,-5.2575,-5.1735,-5.1009,-5.0512,-4.9901,-4.9175,-4.8716,-4.7876,-4.6653,-4.5736,-4.5277,-4.5277,-4.4895,-4.4284,-4.3443,-4.2565,-4.1495,-4.031,-3.7941,-3.6489,-3.6001,-3.3662,-3.2241,-3.1782,-3.163,-3.1583,-3.1597,-3.1553,-3.188,-3.2583,-3.3081,-3.3683,-3.438,-3.4908,-3.5312,-3.5665,-3.5716,-3.5899,-3.6266,-3.6303,-3.6009,-3.5238,-3.5128,-3.5128,-3.5165,-3.5179,-3.4945,-3.4504,-3.4454,-3.427,-3.3844,-3.4124,-3.4344,-3.4394,-3.4651,-3.4908,-3.4945,-3.4945,-3.4945,-3.4945,-3.4945,-3.4945,-3.4945,-3.4945,-3.4945,-3.4981,-3.4981,-3.4981,-3.4968,-3.4637,-3.4247,-3.388,-3.4064,-3.4307,-3.4344,-3.4688,-3.5312,-3.5973,-3.6391,-3.6779,-3.7985,-3.836,-3.8455,-3.8943,-3.9192,-3.915,-3.8714,-3.8612,-3.8307,-3.7755,-3.7649,-3.7533,-6.9005,-6.763,-6.7209,-6.5719,-6.3518,-6.1975,-6.0981,-6.0422,-6.0384,-6.0384,-6.0384,-6.0384,-6.0293,-5.995,-5.8536,-5.781,-5.7428,-5.6091,-5.539,-5.5326,-5.4715,-5.4295,-5.3989,-5.2728,-5.2066,-5.1811,-5.1009,-5.0474,-5.0245,-4.948,-4.8563,-4.7444,-4.6003,-4.5277,-4.5277,-4.5277,-4.4895,-4.3968,-4.2526,-4.138,-4.0578,-3.9546,-3.8667,-3.8018,-3.7177,-3.6366,-3.5564,-3.5416,-3.5271,-3.4973,-3.4651,-3.4401,-3.43,-3.4568,-3.4821,-3.5041,-3.5628,-3.6193,-3.6523,-3.6743,-3.6853,-3.6853,-3.6817,-3.6853,-3.6853,-3.6817,-3.667,-3.6376,-3.6229,-3.5973,-3.5408,-3.5298,-3.5041,-3.4431,-3.4541,-3.4578,-3.4174,-3.4247,-3.4174,-3.3954,-3.3807,-3.3844,-3.3807,-3.3807,-3.388,-3.3917,-3.3807,-3.3807,-3.3807,-3.3807,-3.41,-3.438,-3.416,-3.388,-3.3807,-3.3844,-3.3844,-3.3807,-3.391,-3.4512,-3.5345,-3.5395,-3.5998,-3.7654,-3.8059,-3.8184,-3.864,-3.8848,-3.8776,-3.838,-3.8252,-3.7727,-3.7065,-3.6546,-3.6182,-6.763,-6.6636,-6.5337,-6.3503,-6.1898,-6.0943,-6.0499,-6.0422,-6.0384,-6.0384,-6.0384,-6.0384,-5.995,-5.9185,-5.8345,-5.7542,-5.6778,-5.5823,-5.539,-5.539,-5.5326,-5.4868,-5.418,-5.3913,-5.3454,-5.269,-5.1849,-5.1073,-5.0359,-4.948,-4.8296,-4.6691,-4.5736,-4.5316,-4.5316,-4.5316,-4.4857,-4.4006,-4.3128,-4.2259,-4.1351,-3.9852,-3.8973,-3.8897,-3.8056,-3.7215,-3.6405,-3.6169,-3.577,-3.5183,-3.4626,-3.4358,-3.4435,-3.4166,-3.4284,-3.4968,-3.5114,-3.5752,-3.7235,-3.8065,-3.8395,-3.8453,-3.8395,-3.838,-3.8395,-3.8432,-3.7845,-3.6743,-3.634,-3.6376,-3.6193,-3.6193,-3.6083,-3.5899,-3.6464,-3.6611,-3.5261,-3.5605,-3.5495,-3.3917,-3.3844,-3.3807,-3.3807,-3.3807,-3.3807,-3.3807,-3.3807,-3.3807,-3.3807,-3.3807,-3.3807,-3.3917,-3.3844,-3.3844,-3.3807,-3.3807,-3.3807,-3.382,-3.3979,-3.4238,-3.4616,-3.5601,-3.6895,-3.6808,-3.7821,-3.8492,-3.8596,-3.8735,-3.8796,-3.8632,-3.8572,-3.8626,-3.8174,-3.7475,-3.6925,-6.7897,-6.6636,-6.5987,-6.4382,-6.2357,-6.0943,-6.0384,-6.0384,-6.0384,-6.0384,-6.0384,-6.0384,-6.0179,-5.9797,-5.8994,-5.8154,-5.7313,-5.6511,-5.5823,-5.5441,-5.539,-5.5212,-5.4868,-5.4333,-5.3874,-5.3531,-5.2728,-5.1888,-5.0971,-4.9748,-4.8727,-4.7952,-4.6691,-4.6003,-4.5965,-4.5545,-4.5135,-4.4743,-4.394,-4.309,-4.2183,-4.0616,-3.9546,-3.9011,-3.8629,-3.8094,-3.7283,-3.7098,-3.6862,-3.6511,-3.6209,-3.5972,-3.5812,-3.6072,-3.6279,-3.6515,-3.6927,-3.7477,-3.8138,-3.8542,-3.8689,-3.8689,-3.8689,-3.8689,-3.8689,-3.8689,-3.8395,-3.7881,-3.7734,-3.7551,-3.7074,-3.7015,-3.6831,-3.645,-3.6597,-3.6523,-3.5885,-3.5628,-3.5188,-3.4564,-3.4064,-3.3807,-3.3807,-3.3807,-3.3807,-3.3807,-3.3807,-3.3807,-3.3807,-3.3807,-3.3807,-3.3807,-3.3807,-3.3807,-3.3807,-3.3807,-3.3807,-3.3834,-3.39,-3.3937,-3.4539,-3.4697,-3.5467,-3.6154,-3.7161,-3.7868,-3.7941,-3.8553,-3.8882,-3.8627,-3.8128,-3.7931,-3.7742,-3.7261,-3.6599,-6.8012,-6.6713,-6.6216,-6.4688,-6.2471,-6.1249,-6.0599,-6.0422,-6.0384,-6.0384,-6.0384,-6.0384,-6.0384,-6.0269,-5.9491,-5.8765,-5.8116,-5.7084,-5.632,-5.5747,-5.5517,-5.539,-5.5326,-5.4791,-5.4448,-5.4333,-5.3569,-5.2614,-5.1544,-5.0168,-4.9339,-4.8907,-4.757,-4.6768,-4.6462,-4.5889,-4.5507,-4.525,-4.4437,-4.3701,-4.3013,-4.1724,-4.0454,-3.947,-3.9355,-3.8935,-3.8094,-3.8056,-3.785,-3.749,-3.7432,-3.7225,-3.6845,-3.729,-3.7512,-3.7573,-3.8248,-3.8689,-3.8689,-3.8689,-3.8689,-3.8689,-3.8689,-3.8689,-3.8689,-3.8689,-3.8689,-3.8652,-3.8689,-3.8358,-3.797,-3.7823,-3.7566,-3.7037,-3.6964,-3.689,-3.6633,-3.6009,-3.5555,-3.5041,-3.4491,-3.4027,-3.388,-3.3807,-3.3807,-3.3807,-3.3807,-3.3807,-3.3807,-3.3807,-3.3807,-3.3807,-3.3807,-3.3807,-3.3807,-3.3807,-3.3807,-3.3834,-3.3873,-3.4123,-3.4683,-3.4463,-3.4835,-3.6228,-3.6586,-3.7151,-3.7919,-3.8567,-3.8433,-3.7673,-3.7168,-3.6928,-3.6815,-3.654,-3.6348,-6.7477,-6.6483,-6.4993,-6.3388,-6.1669,-6.1554,-6.1096,-6.0384,-6.0384,-6.0384,-6.0384,-6.0384,-6.0384,-6.0346,-5.9529,-5.9095,-5.8828,-5.7351,-5.6587,-5.6396,-5.5747,-5.539,-5.539,-5.5352,-5.5313,-5.5174,-5.4448,-5.3225,-5.1646,-5.0703,-4.9862,-4.911,-4.822,-4.7341,-4.6691,-4.6462,-4.6042,-4.5288,-4.4513,-4.4006,-4.3815,-4.31,-4.1867,-4.0435,-4.0263,-3.9814,-3.9049,-3.8926,-3.8573,-3.7742,-3.7595,-3.7343,-3.7049,-3.6932,-3.7104,-3.7537,-3.8285,-3.8689,-3.8689,-3.8689,-3.8689,-3.8689,-3.8689,-3.8689,-3.8689,-3.8689,-3.8689,-3.8689,-3.8689,-3.8652,-3.8579,-3.8505,-3.8505,-3.8469,-3.8505,-3.8138,-3.7529,-3.7257,-3.6597,-3.5518,-3.5078,-3.4674,-3.399,-3.3807,-3.3844,-3.3844,-3.3807,-3.3807,-3.3807,-3.3807,-3.3807,-3.3807,-3.3807,-3.3807,-3.3807,-3.3807,-3.3807,-3.3834,-3.3926,-3.408,-3.4377,-3.4772,-3.5523,-3.6213,-3.6737,-3.735,-3.8133,-3.8081,-3.7479,-3.6825,-3.6248,-3.5958,-3.6727,-3.6336,-3.6254,-6.6636,-6.5757,-6.4649,-6.3503,-6.2433,-6.186,-6.1134,-6.0422,-6.0384,-6.0384,-6.0384,-6.0384,-6.0384,-6.0384,-6.0064,-5.9644,-5.9019,-5.7925,-5.7122,-5.6549,-5.5785,-5.539,-5.539,-5.539,-5.539,-5.5365,-5.5059,-5.4027,-5.2346,-5.1009,-5.0168,-4.9786,-4.906,-4.8181,-4.7379,-4.6757,-4.6118,-4.5364,-4.4972,-4.459,-4.4045,-4.3701,-4.2914,-4.1673,-4.1235,-4.0692,-3.9852,-3.9651,-3.9429,-3.9125,-3.8877,-3.8625,-3.835,-3.8104,-3.8052,-3.8264,-3.8542,-3.8689,-3.8689,-3.8689,-3.8689,-3.8689,-3.8689,-3.8689,-3.8689,-3.8689,-3.8689,-3.8689,-3.8689,-3.8689,-3.8689,-3.8689,-3.8689,-3.8689,-3.8689,-3.8579,-3.8248,-3.7823,-3.7235,-3.6633,-3.6193,-3.5495,-3.4821,-3.4564,-3.4344,-3.3917,-3.3807,-3.3807,-3.3807,-3.3807,-3.3807,-3.3807,-3.3807,-3.3807,-3.3807,-3.3807,-3.3807,-3.3834,-3.3887,-3.39,-3.4086,-3.429,-3.4883,-3.5108,-3.594,-3.6435,-3.6779,-3.6726,-3.6199,-3.6547,-3.5936,-3.5899,-3.7174,-3.6646,-3.6641,-6.5948,-6.5337,-6.4802,-6.4114,-6.3236,-6.2395,-6.1554,-6.079,-6.0523,-6.0384,-6.0384,-6.0384,-6.0384,-6.0384,-6.0384,-6.0102,-5.9415,-5.8421,-5.7581,-5.6931,-5.5899,-5.539,-5.539,-5.539,-5.539,-5.5326,-5.5097,-5.418,-5.2805,-5.1391,-5.0588,-5.0283,-4.9748,-4.8907,-4.7876,-4.7215,-4.6424,-4.5545,-4.5213,-4.4816,-4.4309,-4.4167,-4.3634,-4.2659,-4.2208,-4.1499,-4.0501,-3.9992,-3.9773,-3.9751,-3.9599,-3.9389,-3.9133,-3.8855,-3.8689,-3.8689,-3.8689,-3.8689,-3.8689,-3.8689,-3.8689,-3.8689,-3.8689,-3.8689,-3.8689,-3.8689,-3.8689,-3.8689,-3.8689,-3.8689,-3.8689,-3.8689,-3.8689,-3.8689,-3.8689,-3.8689,-3.8689,-3.8212,-3.7823,-3.7382,-3.6707,-3.6046,-3.5518,-3.5188,-3.4784,-3.4234,-3.399,-3.3807,-3.3807,-3.3807,-3.3807,-3.3807,-3.3807,-3.3807,-3.3807,-3.3807,-3.3807,-3.382,-3.3834,-3.382,-3.3847,-3.4016,-3.4166,-3.4281,-3.4535,-3.4944,-3.5132,-3.5185,-3.5528,-3.6021,-3.5659,-3.5264,-3.6167,-3.6883,-3.6745,-6.5413,-6.5375,-6.5375,-6.4802,-6.3885,-6.3121,-6.2357,-6.1363,-6.0714,-6.0384,-6.0384,-6.0384,-6.0384,-6.0384,-6.0384,-6.0384,-5.9988,-5.8612,-5.7925,-5.7734,-5.6167,-5.5441,-5.5517,-5.5441,-5.539,-5.5365,-5.4562,-5.3683,-5.2766,-5.1888,-5.1085,-5.0436,-5.0245,-4.9404,-4.7865,-4.7712,-4.6948,-4.5644,-4.5057,-4.4812,-4.4763,-4.4472,-4.395,-4.3192,-4.3018,-4.223,-4.0777,-3.9977,-3.9577,-3.9502,-3.9477,-3.9363,-3.9055,-3.8855,-3.8689,-3.8689,-3.8689,-3.8726,-3.8762,-3.8726,-3.8726,-3.8799,-3.8726,-3.8689,-3.8689,-3.8689,-3.8689,-3.8689,-3.8689,-3.8689,-3.8689,-3.8689,-3.8689,-3.8689,-3.8689,-3.8689,-3.8689,-3.8689,-3.8395,-3.7676,-3.7015,-3.6413,-3.6156,-3.5628,-3.5114,-3.4821,-3.4247,-3.3807,-3.3807,-3.3807,-3.3807,-3.3807,-3.3807,-3.3807,-3.3807,-3.3807,-3.3807,-3.3807,-3.3807,-3.3807,-3.3807,-3.3926,-3.411,-3.4224,-3.4334,-3.4669,-3.4669,-3.4686,-3.4592,-3.4884,-3.4525,-3.4694,-3.5462,-3.6174,-3.6318,-6.5413,-6.5413,-6.5413,-6.4573,-6.3388,-6.3006,-6.2128,-6.0828,-6.0499,-6.0384,-6.0384,-6.0384,-6.0384,-6.0384,-6.0384,-6.0384,-6.0269,-5.8727,-5.8192,-5.8307,-5.6434,-5.5708,-5.6052,-5.567,-5.539,-5.525,-5.4524,-5.3645,-5.2805,-5.1964,-5.1162,-5.0474,-5.0283,-4.9748,-4.8678,-4.8094,-4.7121,-4.5931,-4.5152,-4.4714,-4.4546,-4.4438,-4.4172,-4.3707,-4.3133,-4.2248,-4.1058,-4.036,-3.9815,-3.9293,-3.9064,-3.8906,-3.884,-3.875,-3.8689,-3.8689,-3.8689,-3.8982,-3.9386,-3.9056,-3.9019,-3.9313,-3.9056,-3.8726,-3.8689,-3.8762,-3.8762,-3.8726,-3.8689,-3.8689,-3.8689,-3.8689,-3.8726,-3.8689,-3.8689,-3.8689,-3.8689,-3.8689,-3.8579,-3.8395,-3.8102,-3.7734,-3.7125,-3.6413,-3.5701,-3.5151,-3.438,-3.388,-3.3844,-3.3844,-3.3807,-3.3807,-3.3807,-3.3807,-3.3807,-3.3807,-3.3807,-3.3807,-3.3807,-3.3807,-3.3807,-3.3844,-3.4027,-3.4137,-3.4247,-3.4284,-3.4234,-3.4224,-3.4157,-3.4121,-3.4162,-3.455,-3.5126,-3.5522,-3.584,-6.5413,-6.5413,-6.5413,-6.4649,-6.3388,-6.3045,-6.2128,-6.0905,-6.0523,-6.0384,-6.0384,-6.0384,-6.0384,-6.0384,-6.0384,-6.0384,-6.0269,-5.8956,-5.8803,-5.9033,-5.6625,-5.5899,-5.6396,-5.5785,-5.539,-5.525,-5.4524,-5.3645,-5.2766,-5.2002,-5.1162,-5.0436,-5.0283,-4.9901,-4.9098,-4.8208,-4.7228,-4.6139,-4.513,-4.4519,-4.4256,-4.411,-4.398,-4.3754,-4.3294,-4.2516,-4.1622,-4.1209,-4.054,-3.9586,-3.9237,-3.9019,-3.8762,-3.8982,-3.9129,-3.9203,-3.946,-3.9863,-4.023,-3.9921,-3.979,-4.0157,-3.99,-3.9643,-3.9606,-3.9606,-3.9606,-3.9591,-3.9627,-3.946,-3.9239,-3.9129,-3.9019,-3.8726,-3.8689,-3.8689,-3.8689,-3.8689,-3.8689,-3.8652,-3.8652,-3.8432,-3.7955,-3.7272,-3.6597,-3.5936,-3.4968,-3.4234,-3.4174,-3.399,-3.3917,-3.3844,-3.3807,-3.3807,-3.3807,-3.3807,-3.3807,-3.3807,-3.3807,-3.3807,-3.3807,-3.3807,-3.3917,-3.3917,-3.399,-3.4027,-3.4027,-3.3954,-3.392,-3.388,-3.41,-3.4644,-3.5256,-3.544,-3.5728,-6.5413,-6.5413,-6.5413,-6.484,-6.3923,-6.3236,-6.2319,-6.1402,-6.0714,-6.0384,-6.0384,-6.0384,-6.0384,-6.0384,-6.0384,-6.0384,-6.0231,-5.9453,-5.9415,-5.9248,-5.7273,-5.6,-5.6243,-5.5708,-5.539,-5.5275,-5.4639,-5.3798,-5.2996,-5.2193,-5.1226,-5.055,-5.0359,-4.9977,-4.924,-4.8323,-4.7322,-4.624,-4.5122,-4.4362,-4.4008,-4.3697,-4.3549,-4.3549,-4.3475,-4.3054,-4.2303,-4.2099,-4.1475,-4.021,-3.9989,-3.968,-3.9203,-3.957,-3.9974,-4.001,-4.0671,-4.0948,-4.1095,-4.0912,-4.0948,-4.1111,-4.0985,-4.1095,-4.0875,-4.0765,-4.0765,-4.0802,-4.0875,-4.0671,-4.012,-3.9974,-3.9643,-3.8946,-3.8762,-3.8726,-3.8689,-3.8689,-3.8689,-3.8689,-3.8689,-3.8689,-3.8542,-3.7881,-3.7456,-3.7088,-3.6009,-3.5261,-3.4931,-3.4614,-3.4027,-3.3917,-3.399,-3.3807,-3.3807,-3.3807,-3.3807,-3.3807,-3.3807,-3.3807,-3.3954,-3.399,-3.41,-3.4064,-3.4137,-3.4064,-3.4064,-3.4247,-3.4357,-3.4541,-3.4816,-3.5108,-3.5399,-3.5664,-3.5863,-6.5413,-6.5413,-6.5413,-6.4573,-6.3312,-6.2968,-6.2051,-6.079,-6.0523,-6.0384,-6.0384,-6.0384,-6.0384,-6.0384,-6.0384,-6.0384,-6.0193,-5.9529,-5.9568,-5.9922,-5.7976,-5.6359,-5.5822,-5.5543,-5.5428,-5.5377,-5.5161,-5.4639,-5.3722,-5.2869,-5.2028,-5.1276,-5.0591,-5.0183,-4.9839,-4.8858,-4.7844,-4.6704,-4.5559,-4.4491,-4.3791,-4.3583,-4.3515,-4.3497,-4.3497,-4.3094,-4.2396,-4.2286,-4.1846,-4.0912,-4.0765,-4.0691,-4.0451,-4.0671,-4.0781,-4.0855,-4.1022,-4.1442,-4.1772,-4.1479,-4.1442,-4.1846,-4.1552,-4.1132,-4.1095,-4.1132,-4.1132,-4.1095,-4.1095,-4.1058,-4.0855,-4.0781,-4.0377,-3.968,-3.9093,-3.8762,-3.8689,-3.8689,-3.8689,-3.8689,-3.8689,-3.8689,-3.8542,-3.8102,-3.7603,-3.7419,-3.6743,-3.5922,-3.5789,-3.5114,-3.4504,-3.438,-3.4344,-3.399,-3.3807,-3.3807,-3.3807,-3.3807,-3.3807,-3.3844,-3.4064,-3.4357,-3.4564,-3.4711,-3.5128,-3.5202,-3.5202,-3.5298,-3.5349,-3.5238,-3.534,-3.5542,-3.5929,-3.626,-3.6356,-6.5413,-6.5413,-6.5413,-6.4649,-6.3465,-6.3083,-6.2128,-6.1019,-6.0537,-6.0384,-6.0384,-6.0384,-6.0384,-6.0384,-6.0384,-6.0384,-6.0293,-5.9873,-5.995,-6.0022,-5.86,-5.7187,-5.6284,-5.6107,-5.6002,-5.5687,-5.5834,-5.5212,-5.4193,-5.3429,-5.2616,-5.1611,-5.0773,-5.0303,-4.9974,-4.8967,-4.8031,-4.7086,-4.5903,-4.479,-4.4083,-4.3662,-4.3497,-4.3497,-4.3461,-4.3221,-4.2837,-4.28,-4.2396,-4.1699,-4.1515,-4.1552,-4.1442,-4.1535,-4.1572,-4.1625,-4.1902,-4.2359,-4.258,-4.2323,-4.2359,-4.2653,-4.2323,-4.2176,-4.2176,-4.2103,-4.2103,-4.2176,-4.2103,-4.1956,-4.1609,-4.1315,-4.0744,-3.9974,-3.946,-3.9093,-3.8762,-3.8689,-3.8689,-3.8689,-3.8689,-3.8689,-3.8689,-3.8248,-3.8065,-3.7881,-3.7382,-3.6978,-3.6684,-3.5752,-3.5078,-3.5004,-3.4527,-3.4064,-3.388,-3.3844,-3.3807,-3.3807,-3.399,-3.399,-3.4454,-3.4821,-3.5114,-3.5481,-3.5973,-3.6303,-3.6229,-3.6083,-3.5899,-3.5862,-3.5885,-3.6207,-3.6669,-3.7043,-3.7147,-6.5413,-6.5413,-6.5413,-6.4955,-6.4076,-6.3274,-6.2357,-6.1516,-6.0657,-6.0299,-6.0299,-6.0285,-6.0159,-6.0285,-6.0203,-6.0313,-6.0313,-6.0279,-6.0208,-5.99,-5.8992,-5.7918,-5.6966,-5.6878,-5.6608,-5.6201,-5.6445,-5.5701,-5.459,-5.3926,-5.2997,-5.1999,-5.1088,-5.0387,-4.9939,-4.8942,-4.8109,-4.7429,-4.6298,-4.5372,-4.4798,-4.4158,-4.3791,-4.3754,-4.3534,-4.3497,-4.3387,-4.3351,-4.3037,-4.2119,-4.2286,-4.2323,-4.2156,-4.2323,-4.2396,-4.2506,-4.291,-4.3314,-4.3424,-4.3314,-4.3387,-4.3351,-4.3387,-4.3497,-4.3277,-4.3204,-4.3204,-4.3167,-4.3461,-4.302,-4.247,-4.1772,-4.1111,-4.0524,-4.0194,-3.9643,-3.9056,-3.8762,-3.8689,-3.8689,-3.8689,-3.8689,-3.8689,-3.8689,-3.8652,-3.8358,-3.7918,-3.7749,-3.7345,-3.6633,-3.6046,-3.5701,-3.5004,-3.4064,-3.3954,-3.3917,-3.3844,-3.3844,-3.4137,-3.4344,-3.5004,-3.5408,-3.5738,-3.6156,-3.6853,-3.7074,-3.6964,-3.678,-3.656,-3.6817,-3.711,-3.7367,-3.7691,-3.8,-3.8199,-6.5413,-6.5413,-6.5413,-6.4955,-6.4114,-6.3274,-6.2433,-6.1526,-6.0411,-5.9953,-5.9874,-5.9605,-5.9502,-5.9502,-5.9809,-5.9922,-5.9953,-6.0144,-6.0099,-5.943,-5.9246,-5.8554,-5.7707,-5.7229,-5.6752,-5.6579,-5.663,-5.6095,-5.5195,-5.4328,-5.3623,-5.2693,-5.1753,-5.1067,-5.0294,-4.9699,-4.8864,-4.7779,-4.6943,-4.6286,-4.5589,-4.4892,-4.4415,-4.4342,-4.3791,-4.3497,-4.3497,-4.3497,-4.3387,-4.3258,-4.3167,-4.3094,-4.3074,-4.313,-4.313,-4.3167,-4.3314,-4.3497,-4.3497,-4.3497,-4.3497,-4.3497,-4.3497,-4.3497,-4.3497,-4.3497,-4.3497,-4.3497,-4.3461,-4.3404,-4.3147,-4.2506,-4.1956,-4.1589,-4.1148,-4.0524,-3.9753,-3.9093,-3.8799,-3.8726,-3.8689,-3.8689,-3.8689,-3.8689,-3.8689,-3.8673,-3.8579,-3.8469,-3.7955,-3.7331,-3.689,-3.6413,-3.5605,-3.4761,-3.438,-3.427,-3.4174,-3.4284,-3.4541,-3.5055,-3.5716,-3.6083,-3.645,-3.7074,-3.7808,-3.7845,-3.7661,-3.7514,-3.7294,-3.7808,-3.8175,-3.8212,-3.8322,-3.8762,-3.8851,-6.5413,-6.5413,-6.5413,-6.5146,-6.4611,-6.3465,-6.2536,-6.1713,-6.0399,-5.9673,-5.9502,-5.9289,-5.9215,-5.9215,-5.9415,-5.952,-5.9554,-5.9689,-5.952,-5.9046,-5.8872,-5.8566,-5.809,-5.7555,-5.7218,-5.7004,-5.6797,-5.6251,-5.5445,-5.4517,-5.3619,-5.2994,-5.2265,-5.1227,-5.0382,-5.0007,-4.9122,-4.807,-4.7353,-4.6856,-4.6415,-4.57,-4.5002,-4.4635,-4.3938,-4.3497,-4.3497,-4.3497,-4.3497,-4.3497,-4.3497,-4.3497,-4.3497,-4.3497,-4.3497,-4.3497,-4.3497,-4.3497,-4.3497,-4.3497,-4.3497,-4.3497,-4.3497,-4.3497,-4.3497,-4.3497,-4.3497,-4.3497,-4.3497,-4.3461,-4.3478,-4.3204,-4.2763,-4.2286,-4.1956,-4.1315,-4.0561,-3.9753,-3.9056,-3.8836,-3.8689,-3.8689,-3.8689,-3.8689,-3.8689,-3.8689,-3.8689,-3.8542,-3.8358,-3.7808,-3.7492,-3.6964,-3.6193,-3.5532,-3.5004,-3.4747,-3.4564,-3.4821,-3.5224,-3.5899,-3.6648,-3.6942,-3.7162,-3.7845,-3.8505,-3.8469,-3.8322,-3.8175,-3.8102,-3.8285,-3.8505,-3.8652,-3.8726,-3.8836,-3.8799,-6.5298,-6.5298,-6.5298,-6.5298,-6.5085,-6.3741,-6.2803,-6.2075,-6.0594,-5.9656,-5.914,-5.9065,-5.891,-5.9007,-5.9084,-5.914,-5.9234,-5.9215,-5.9084,-5.873,-5.8669,-5.8412,-5.806,-5.7853,-5.7715,-5.7386,-5.7166,-5.6556,-5.5697,-5.4707,-5.4203,-5.331,-5.2747,-5.189,-5.0657,-4.9914,-4.9466,-4.8584,-4.7811,-4.7369,-4.7149,-4.6507,-4.5736,-4.5002,-4.3975,-4.3698,-4.3681,-4.3644,-4.3497,-4.3497,-4.3497,-4.3497,-4.3497,-4.3497,-4.3497,-4.3497,-4.3497,-4.3497,-4.3497,-4.3497,-4.3497,-4.3497,-4.3497,-4.3497,-4.3497,-4.3497,-4.3497,-4.3497,-4.3497,-4.3497,-4.3497,-4.3387,-4.3094,-4.269,-4.2506,-4.2103,-4.1405,-4.0634,-4.0047,-3.9129,-3.9056,-3.9056,-3.8836,-3.8689,-3.8689,-3.8689,-3.8689,-3.8652,-3.8469,-3.8322,-3.7991,-3.7676,-3.6964,-3.6193,-3.5642,-3.5445,-3.5261,-3.5481,-3.5936,-3.6597,-3.7456,-3.797,-3.8264,-3.8579,-3.8982,-3.8982,-3.9019,-3.8946,-3.8872,-3.8836,-3.8872,-3.9056,-3.8982,-3.8836,-3.8799,-6.4917,-6.4917,-6.4917,-6.4917,-6.4816,-6.4222,-6.3251,-6.2214,-6.0845,-5.9702,-5.8727,-5.8369,-5.8275,-5.8304,-5.8566,-5.887,-5.9046,-5.9046,-5.891,-5.8607,-5.8524,-5.8326,-5.8088,-5.796,-5.7918,-5.7904,-5.77,-5.7263,-5.6688,-5.6294,-5.5207,-5.4354,-5.3955,-5.3051,-5.1785,-5.0969,-5.0141,-4.928,-4.8489,-4.8122,-4.7829,-4.7186,-4.6471,-4.5626,-4.4469,-4.4048,-4.4195,-4.3864,-4.3497,-4.3497,-4.3497,-4.3497,-4.3497,-4.3497,-4.3497,-4.3497,-4.3497,-4.3497,-4.3497,-4.3497,-4.3497,-4.3497,-4.3497,-4.3497,-4.3497,-4.3497,-4.3497,-4.3497,-4.3497,-4.3497,-4.3497,-4.3497,-4.3461,-4.3277,-4.313,-4.291,-4.2286,-4.1846,-4.1222,-4.012,-3.979,-3.946,-3.9129,-3.8836,-3.8689,-3.8689,-3.8689,-3.8689,-3.8615,-3.8579,-3.8505,-3.8175,-3.7808,-3.7,-3.6266,-3.6193,-3.6119,-3.6303,-3.667,-3.711,-3.797,-3.8961,-3.9439,-3.9386,-3.9496,-3.9606,-3.9643,-3.9533,-3.9239,-3.8872,-3.9129,-3.9423,-3.9093,-3.8836,-3.8946,-6.4445,-6.4445,-6.4445,-6.4445,-6.4313,-6.3759,-6.2802,-6.1618,-6.0559,-5.945,-5.8548,-5.8074,-5.7997,-5.8065,-5.8186,-5.8412,-5.8561,-5.8566,-5.8476,-5.8319,-5.8297,-5.8231,-5.802,-5.7997,-5.7997,-5.7983,-5.7923,-5.7593,-5.6822,-5.6294,-5.5831,-5.5155,-5.4656,-5.3775,-5.2711,-5.1814,-5.0765,-4.9831,-4.9187,-4.8746,-4.8306,-4.7516,-4.6856,-4.6324,-4.5406,-4.4819,-4.4525,-4.4415,-4.3901,-4.3571,-4.3497,-4.3497,-4.3497,-4.3497,-4.3497,-4.3497,-4.3497,-4.3497,-4.3497,-4.3497,-4.3497,-4.3497,-4.3497,-4.3497,-4.3497,-4.3497,-4.3497,-4.3497,-4.3497,-4.3497,-4.3497,-4.3497,-4.3497,-4.3497,-4.3497,-4.3314,-4.3057,-4.2947,-4.2176,-4.1111,-4.0414,-3.99,-3.946,-3.9129,-3.8799,-3.8689,-3.8689,-3.8689,-3.8689,-3.8689,-3.8689,-3.8469,-3.8102,-3.7624,-3.7,-3.6964,-3.6927,-3.711,-3.7477,-3.797,-3.8484,-3.9439,-3.9769,-3.9753,-3.99,-4.0487,-3.968,-3.935,-3.9129,-3.8982,-3.9056,-3.9129,-3.8946,-3.8872,-3.9129,-6.3992,-6.3954,-6.3992,-6.3954,-6.39,-6.3418,-6.2375,-6.114,-6.0428,-5.9316,-5.8079,-5.7997,-5.7997,-5.7997,-5.7997,-5.8006,-5.7997,-5.8006,-5.8065,-5.8065,-5.8042,-5.802,-5.7997,-5.7997,-5.7997,-5.7997,-5.796,-5.7666,-5.7189,-5.6675,-5.6161,-5.5684,-5.506,-5.4252,-5.3445,-5.238,-5.1206,-5.0528,-4.9867,-4.937,-4.8563,-4.7626,-4.7223,-4.7186,-4.6434,-4.5626,-4.5388,-4.4801,-4.4378,-4.3901,-4.3625,-4.3497,-4.3497,-4.3497,-4.3497,-4.3497,-4.3497,-4.3497,-4.3497,-4.3497,-4.3497,-4.3497,-4.3497,-4.3497,-4.3497,-4.3497,-4.3497,-4.3497,-4.3497,-4.3497,-4.3497,-4.3497,-4.3497,-4.3497,-4.3497,-4.3461,-4.3424,-4.3314,-4.3094,-4.2103,-4.1075,-4.0341,-3.99,-3.9129,-3.8762,-3.8689,-3.8689,-3.8689,-3.8689,-3.8689,-3.8689,-3.8542,-3.8322,-3.8028,-3.7771,-3.7771,-3.7734,-3.7808,-3.8322,-3.8872,-3.935,-3.99,-4.0084,-4.0414,-4.1295,-4.1589,-4.0414,-3.9496,-3.9606,-3.957,-3.9129,-3.9019,-3.9203,-3.9496,-3.9827,-6.358,-6.358,-6.358,-6.3543,-6.3609,-6.3742,-6.282,-6.1171,-6.0868,-5.9775,-5.7997,-5.7997,-5.7997,-5.7997,-5.7997,-5.7997,-5.7997,-5.7997,-5.7997,-5.7997,-5.7997,-5.7997,-5.7997,-5.7997,-5.7997,-5.7997,-5.7997,-5.796,-5.7703,-5.7556,-5.7262,-5.6638,-5.5868,-5.506,-5.4216,-5.3004,-5.1961,-5.1593,-5.0949,-5.0215,-4.9334,-4.8012,-4.7736,-4.7645,-4.6948,-4.6214,-4.6287,-4.548,-4.4691,-4.4471,-4.3828,-4.3534,-4.3497,-4.3497,-4.3497,-4.3497,-4.3497,-4.3497,-4.3497,-4.3497,-4.3497,-4.3497,-4.3497,-4.3497,-4.3497,-4.3497,-4.3497,-4.3497,-4.3497,-4.3497,-4.3497,-4.3497,-4.3497,-4.3497,-4.3497,-4.3497,-4.3497,-4.3461,-4.3331,-4.3037,-4.1919,-4.1001,-4.0341,-3.946,-3.8689,-3.8689,-3.8689,-3.8726,-3.8689,-3.8689,-3.8689,-3.8615,-3.8615,-3.8395,-3.8542,-3.8579,-3.8726,-3.8652,-3.9203,-3.979,-4.012,-4.0524,-4.1001,-4.1479,-4.2323,-4.2433,-4.1295,-4.0634,-4.0487,-4.0194,-3.9863,-3.9753,-3.9806,-4.012,-4.0471,-6.311,-6.311,-6.311,-6.311,-6.306,-6.2826,-6.1952,-6.0831,-6.0194,-5.9269,-5.8166,-5.7997,-5.7997,-5.7997,-5.7997,-5.7997,-5.7997,-5.7997,-5.7997,-5.7997,-5.7997,-5.7997,-5.7997,-5.7997,-5.7997,-5.7997,-5.7997,-5.7997,-5.7997,-5.796,-5.774,-5.7409,-5.6675,-5.5868,-5.506,-5.3922,-5.2894,-5.205,-5.1242,-5.0655,-5.0068,-4.9187,-4.8636,-4.8986,-4.7865,-4.7314,-4.68,-4.6011,-4.5059,-4.4656,-4.3868,-4.3499,-4.3497,-4.3497,-4.3497,-4.3497,-4.3497,-4.3497,-4.3497,-4.3497,-4.3497,-4.3497,-4.3497,-4.3497,-4.3497,-4.3497,-4.3497,-4.3497,-4.3497,-4.3497,-4.3497,-4.3497,-4.3497,-4.3497,-4.3497,-4.3497,-4.3497,-4.3497,-4.3387,-4.313,-4.2837,-4.1956,-4.1075,-4.0267,-3.9533,-3.9239,-3.9019,-3.8799,-3.8762,-3.8689,-3.8689,-3.8689,-3.8762,-3.8799,-3.9166,-3.9386,-3.979,-3.9863,-4.0157,-4.0634,-4.0818,-4.1205,-4.1682,-4.2029,-4.2506,-4.2359,-4.1829,-4.1589,-4.1332,-4.0965,-4.0581,-4.0598,-4.0598,-4.0671,-4.1058,-6.2805,-6.2805,-6.2805,-6.267,-6.2475,-6.1851,-6.1031,-6.0052,-5.9501,-5.8767,-5.8143,-5.7997,-5.7997,-5.7997,-5.7997,-5.7997,-5.7997,-5.7997,-5.7997,-5.7997,-5.7997,-5.7997,-5.7997,-5.7997,-5.7997,-5.7997,-5.7997,-5.7997,-5.7997,-5.796,-5.796,-5.7923,-5.7079,-5.6492,-5.5868,-5.4987,-5.4032,-5.2858,-5.2013,-5.1463,-5.0986,-5.0251,-4.9921,-4.9627,-4.9038,-4.8246,-4.7565,-4.6539,-4.5698,-4.5333,-4.4327,-4.3887,-4.3884,-4.3644,-4.3497,-4.3497,-4.348,-4.3463,-4.348,-4.348,-4.3497,-4.3497,-4.3497,-4.3497,-4.3497,-4.3497,-4.3497,-4.3497,-4.3497,-4.3497,-4.3497,-4.3497,-4.3497,-4.3497,-4.3497,-4.3497,-4.3497,-4.3497,-4.3497,-4.3351,-4.313,-4.2947,-4.2066,-4.1222,-4.0524,-3.9937,-3.946,-3.9056,-3.9056,-3.9093,-3.9334,-3.9517,-3.9591,-3.9717,-3.9974,-4.0341,-4.0708,-4.1001,-4.1258,-4.1442,-4.1589,-4.1956,-4.2433,-4.269,-4.2837,-4.2837,-4.2616,-4.2396,-4.2139,-4.1735,-4.1405,-4.1405,-4.1442,-4.1499,-4.1719,-6.2805,-6.2805,-6.2805,-6.2365,-6.1704,-6.163,-6.0676,-5.9404,-5.9221,-5.8671,-5.8033,-5.7997,-5.7997,-5.7997,-5.7997,-5.7997,-5.7997,-5.7997,-5.7997,-5.7997,-5.7997,-5.7997,-5.7997,-5.7997,-5.7997,-5.7997,-5.7997,-5.7997,-5.7997,-5.7997,-5.7997,-5.7886,-5.7336,-5.6932,-5.6381,-5.5684,-5.4987,-5.3995,-5.3261,-5.2564,-5.1977,-5.1242,-5.0729,-5.0525,-4.9858,-4.9248,-4.9119,-4.7504,-4.6572,-4.6411,-4.5205,-4.44,-4.4289,-4.4086,-4.3884,-4.3719,-4.3831,-4.3759,-4.3649,-4.3519,-4.3497,-4.3497,-4.3497,-4.3497,-4.3497,-4.3497,-4.3497,-4.3497,-4.3497,-4.3497,-4.3497,-4.3497,-4.3497,-4.3497,-4.3497,-4.3497,-4.3497,-4.3497,-4.3497,-4.3497,-4.3351,-4.3167,-4.3057,-4.2176,-4.1111,-4.0487,-3.99,-3.946,-3.9937,-4.0084,-4.0471,-4.0691,-4.0765,-4.0838,-4.0912,-4.1168,-4.1368,-4.1699,-4.1992,-4.2139,-4.2249,-4.269,-4.302,-4.313,-4.3204,-4.3314,-4.3331,-4.291,-4.258,-4.2359,-4.2213,-4.2213,-4.2323,-4.247,-4.2727,-6.2511,-6.2071,-6.2071,-6.1887,-6.152,-6.0529,-5.9795,-5.9148,-5.8694,-5.8327,-5.7997,-5.7997,-5.7997,-5.7997,-5.7997,-5.7997,-5.7997,-5.7997,-5.7997,-5.7997,-5.7997,-5.7997,-5.7997,-5.7997,-5.7997,-5.7997,-5.7997,-5.7997,-5.7997,-5.7997,-5.7997,-5.785,-5.7593,-5.7226,-5.6748,-5.6161,-5.5537,-5.506,-5.4399,-5.3739,-5.3335,-5.2197,-5.1536,-5.1463,-5.0041,-4.9427,-4.8981,-4.7587,-4.7021,-4.6567,-4.5729,-4.5204,-4.4876,-4.4766,-4.4546,-4.4326,-4.4455,-4.4455,-4.3944,-4.3687,-4.3445,-4.3497,-4.3497,-4.3497,-4.3497,-4.3497,-4.3497,-4.3497,-4.3497,-4.3497,-4.3497,-4.3497,-4.3497,-4.3497,-4.3497,-4.3497,-4.3497,-4.3497,-4.3497,-4.3497,-4.3497,-4.3387,-4.3331,-4.3184,-4.2029,-4.1001,-4.0414,-4.0084,-4.0598,-4.1001,-4.1368,-4.1535,-4.1535,-4.1682,-4.1756,-4.1882,-4.1992,-4.2359,-4.269,-4.2763,-4.2837,-4.3057,-4.3351,-4.3461,-4.3497,-4.3461,-4.3351,-4.3204,-4.302,-4.2873,-4.291,-4.3037,-4.3184,-4.3294,-4.3404,-6.2108,-6.1557,-6.108,-6.0896,-6.075,-5.9661,-5.9038,-5.8767,-5.8253,-5.7997,-5.7997,-5.7997,-5.7997,-5.7997,-5.7997,-5.7997,-5.7997,-5.7997,-5.7997,-5.7997,-5.7997,-5.7997,-5.7997,-5.7997,-5.7997,-5.7997,-5.7997,-5.7997,-5.7997,-5.7997,-5.7997,-5.7997,-5.796,-5.7593,-5.7226,-5.6638,-5.6198,-5.5831,-5.5207,-5.4583,-5.4216,-5.3115,-5.2323,-5.2134,-5.0895,-5.0258,-4.9679,-4.8592,-4.77,-4.7248,-4.6597,-4.5782,-4.555,-4.546,-4.5387,-4.5314,-4.5277,-4.5349,-4.4746,-4.3871,-4.3413,-4.3375,-4.3445,-4.3445,-4.3463,-4.348,-4.3497,-4.3497,-4.3497,-4.3497,-4.3534,-4.3497,-4.3497,-4.3497,-4.3497,-4.3497,-4.3497,-4.3497,-4.3497,-4.3497,-4.3497,-4.3461,-4.3277,-4.3147,-4.2506,-4.1662,-4.1442,-4.1185,-4.1405,-4.1809,-4.2103,-4.2213,-4.2176,-4.2359,-4.2543,-4.2616,-4.269,-4.2837,-4.313,-4.324,-4.3351,-4.3497,-4.3497,-4.3497,-4.3497,-4.3497,-4.3424,-4.3314,-4.3351,-4.3424,-4.3424,-4.3368,-4.3368,-4.3387,-4.3424,-6.1557,-6.141,-5.9918,-5.9294,-5.9331,-5.9221,-5.8767,-5.818,-5.8033,-5.7997,-5.7997,-5.7997,-5.7997,-5.7997,-5.7997,-5.7997,-5.7997,-5.7997,-5.7997,-5.7997,-5.7997,-5.7997,-5.7997,-5.7997,-5.7997,-5.7997,-5.7997,-5.7997,-5.7997,-5.7997,-5.7997,-5.7997,-5.796,-5.7923,-5.7923,-5.7923,-5.7483,-5.6785,-5.5978,-5.528,-5.4656,-5.3775,-5.3219,-5.2782,-5.1798,-5.1107,-5.0671,-4.9488,-4.8669,-4.8333,-4.7482,-4.6779,-4.6477,-4.604,-4.5857,-4.5675,-4.569,-4.5651,-4.5414,-4.4034,-4.3543,-4.347,-4.3632,-4.3687,-4.3576,-4.3574,-4.381,-4.405,-4.3791,-4.3681,-4.3625,-4.3497,-4.3534,-4.3791,-4.3864,-4.3718,-4.3754,-4.3754,-4.3828,-4.3571,-4.3497,-4.3424,-4.3204,-4.2947,-4.2653,-4.2286,-4.2286,-4.2286,-4.2323,-4.247,-4.2763,-4.28,-4.2727,-4.2873,-4.3057,-4.324,-4.3387,-4.3497,-4.3497,-4.3497,-4.3497,-4.3497,-4.3497,-4.3497,-4.3497,-4.3497,-4.3497,-4.3461,-4.3608,-4.3718,-4.3534,-4.3461,-4.3461,-4.3497,-4.3497,-6.0493,-5.9979,-5.9404,-5.8914,-5.8474,-5.84,-5.8253,-5.8033,-5.7997,-5.7997,-5.7997,-5.7997,-5.7997,-5.7997,-5.7997,-5.7997,-5.7997,-5.7997,-5.7997,-5.7997,-5.7997,-5.7997,-5.7997,-5.7997,-5.7997,-5.7997,-5.7997,-5.7997,-5.7997,-5.7997,-5.7997,-5.7997,-5.7997,-5.7997,-5.796,-5.796,-5.7776,-5.7483,-5.6859,-5.6235,-5.5831,-5.4708,-5.3858,-5.3712,-5.2397,-5.1683,-5.1536,-5.0279,-4.9626,-4.9213,-4.827,-4.7767,-4.7232,-4.6706,-4.6852,-4.667,-4.663,-4.6735,-4.6186,-4.5154,-4.4432,-4.418,-4.4035,-4.4309,-4.471,-4.4967,-4.5004,-4.4821,-4.4435,-4.4526,-4.4966,-4.3975,-4.3901,-4.4819,-4.4929,-4.4488,-4.4378,-4.4342,-4.4305,-4.3754,-4.3497,-4.3588,-4.3461,-4.3681,-4.3461,-4.3057,-4.2983,-4.2947,-4.291,-4.3057,-4.324,-4.3277,-4.3277,-4.3351,-4.3497,-4.3497,-4.3497,-4.3497,-4.3497,-4.3497,-4.3497,-4.3497,-4.3497,-4.3497,-4.3497,-4.3497,-4.3608,-4.3754,-4.3938,-4.3975,-4.3975,-4.3864,-4.3864,-4.3718,-4.3515,-5.9685,-5.9184,-5.8891,-5.851,-5.8033,-5.7997,-5.7997,-5.7997,-5.7997,-5.7997,-5.7997,-5.7997,-5.7997,-5.7997,-5.7997,-5.7997,-5.7997,-5.7997,-5.7997,-5.7997,-5.7997,-5.7997,-5.7997,-5.7997,-5.7997,-5.7997,-5.7997,-5.7997,-5.7997,-5.7997,-5.7997,-5.7997,-5.7997,-5.7997,-5.7997,-5.796,-5.796,-5.7666,-5.7152,-5.6712,-5.6198,-5.5368,-5.4276,-5.3741,-5.2901,-5.201,-5.1637,-5.104,-5.0271,-4.9764,-4.9293,-4.8735,-4.8,-4.7767,-4.7985,-4.784,-4.7783,-4.7617,-4.6597,-4.6069,-4.5461,-4.5249,-4.4943,-4.5035,-4.5455,-4.5477,-4.5551,-4.5443,-4.5279,-4.5425,-4.5535,-4.4435,-4.4746,-4.5663,-4.5626,-4.5186,-4.5112,-4.5112,-4.5002,-4.4415,-4.3938,-4.3938,-4.3992,-4.4305,-4.4488,-4.4085,-4.3718,-4.3644,-4.3497,-4.3461,-4.3497,-4.3497,-4.3497,-4.3497,-4.3497,-4.3497,-4.3497,-4.3497,-4.3534,-4.3608,-4.3497,-4.3497,-4.3497,-4.3497,-4.3534,-4.3608,-4.3901,-4.4085,-4.4415,-4.4672,-4.4819,-4.4635,-4.4342,-4.4121,-4.3938,-5.9148,-5.9038,-5.8327,-5.7997,-5.7997,-5.7997,-5.7997,-5.7997,-5.7997,-5.7997,-5.7997,-5.7997,-5.7997,-5.7997,-5.7997,-5.7997,-5.7997,-5.7997,-5.7997,-5.7997,-5.7997,-5.7997,-5.7997,-5.7997,-5.7997,-5.7997,-5.7997,-5.7997,-5.7997,-5.7997,-5.7997,-5.7997,-5.7997,-5.7997,-5.7997,-5.7997,-5.7997,-5.7776,-5.7483,-5.7116,-5.6785,-5.5588,-5.4759,-5.4135,-5.3367,-5.2686,-5.2245,-5.1683,-5.1285,-5.0886,-5.0452,-4.9691,-4.9148,-4.8873,-4.8873,-4.8894,-4.8822,-4.7953,-4.7156,-4.6794,-4.654,-4.6311,-4.5952,-4.5702,-4.5777,-4.6091,-4.6202,-4.6113,-4.5896,-4.5916,-4.5827,-4.5718,-4.5682,-4.6012,-4.6085,-4.5993,-4.5957,-4.592,-4.5847,-4.548,-4.5002,-4.4819,-4.4819,-4.5076,-4.5333,-4.5076,-4.4709,-4.4452,-4.4195,-4.3551,-4.3551,-4.3497,-4.3497,-4.3497,-4.3497,-4.3497,-4.3497,-4.3497,-4.3754,-4.3828,-4.3681,-4.3681,-4.3828,-4.3864,-4.3662,-4.3754,-4.4158,-4.4635,-4.5112,-4.5333,-4.5663,-4.548,-4.5223,-4.4929,-4.4709,-5.8364,-5.8327,-5.807,-5.7997,-5.7997,-5.7997,-5.7997,-5.7997,-5.7997,-5.7997,-5.7997,-5.7997,-5.7997,-5.7997,-5.7997,-5.7997,-5.7997,-5.7997,-5.7997,-5.7997,-5.7997,-5.7997,-5.7997,-5.7997,-5.7997,-5.7997,-5.7997,-5.7997,-5.7997,-5.7997,-5.7997,-5.7997,-5.7997,-5.7997,-5.7997,-5.7997,-5.7997,-5.7923,-5.7643,-5.757,-5.729,-5.6365,-5.5569,-5.4798,-5.3882,-5.3258,-5.2599,-5.2299,-5.19,-5.1285,-5.1104,-5.0416,-4.8981,-4.8873,-4.8873,-4.8873,-4.8837,-4.8619,-4.8206,-4.7642,-4.7316,-4.7337,-4.7089,-4.7104,-4.7109,-4.7025,-4.705,-4.6815,-4.6617,-4.6623,-4.6701,-4.6666,-4.6834,-4.711,-4.7038,-4.6801,-4.6764,-4.6764,-4.6654,-4.614,-4.5663,-4.5736,-4.5736,-4.581,-4.5993,-4.5883,-4.57,-4.5406,-4.4892,-4.4232,-4.3938,-4.3938,-4.3534,-4.3534,-4.3534,-4.3534,-4.3497,-4.3534,-4.3864,-4.4232,-4.4378,-4.4378,-4.4378,-4.4268,-4.4121,-4.4268,-4.4562,-4.5095,-4.5792,-4.6342,-4.6636,-4.6361,-4.6067,-4.5792,-4.5572,-5.7997,-5.7997,-5.7997,-5.7997,-5.7997,-5.7997,-5.7997,-5.7997,-5.7997,-5.7997,-5.7997,-5.7997,-5.7997,-5.7997,-5.7997,-5.7997,-5.7997,-5.7997,-5.7997,-5.7997,-5.7997,-5.7997,-5.7997,-5.7997,-5.7997,-5.7997,-5.7997,-5.7997,-5.7997,-5.7997,-5.7997,-5.7997,-5.7997,-5.7997,-5.7997,-5.795,-5.7927,-5.7927,-5.789,-5.7927,-5.7587,-5.7018,-5.6244,-5.553,-5.4504,-5.3575,-5.301,-5.277,-5.2226,-5.1828,-5.1792,-5.1212,-5.0053,-4.9872,-4.9293,-4.9293,-4.9293,-4.9365,-4.9112,-4.8206,-4.8061,-4.7968,-4.7916,-4.7663,-4.7627,-4.7544,-4.7601,-4.7549,-4.7409,-4.7325,-4.7478,-4.763,-4.8055,-4.848,-4.8046,-4.759,-4.7553,-4.7609,-4.7186,-4.6636,-4.6507,-4.6617,-4.6691,-4.6728,-4.6838,-4.6911,-4.6764,-4.6397,-4.5736,-4.4929,-4.4782,-4.4819,-4.4085,-4.3588,-4.3698,-4.3864,-4.3864,-4.4011,-4.4268,-4.4599,-4.4911,-4.4892,-4.4672,-4.4635,-4.4635,-4.4948,-4.5388,-4.5957,-4.6581,-4.7076,-4.748,-4.7333,-4.7021,-4.6672,-4.6489,-5.7997,-5.7997,-5.7997,-5.7997,-5.7997,-5.7997,-5.7973,-5.7973,-5.795,-5.7973,-5.7997,-5.7997,-5.7997,-5.7997,-5.7997,-5.7997,-5.7997,-5.7997,-5.7997,-5.7997,-5.7997,-5.7997,-5.7997,-5.7997,-5.7997,-5.7997,-5.7973,-5.789,-5.7914,-5.7927,-5.7927,-5.7973,-5.7973,-5.795,-5.795,-5.7904,-5.7881,-5.7786,-5.781,-5.7774,-5.758,-5.701,-5.6345,-5.5982,-5.4965,-5.3938,-5.3554,-5.3096,-5.2552,-5.2516,-5.2371,-5.1973,-5.1393,-5.0995,-5.0234,-4.9945,-4.9981,-5.009,-4.9872,-4.9003,-4.8605,-4.8424,-4.8221,-4.7916,-4.7808,-4.7735,-4.7756,-4.7777,-4.7565,-4.7658,-4.7793,-4.7822,-4.8101,-4.8384,-4.8207,-4.7992,-4.7976,-4.7976,-4.7755,-4.7333,-4.7369,-4.7462,-4.7388,-4.7425,-4.7535,-4.7829,-4.7719,-4.7259,-4.6709,-4.5792,-4.5553,-4.5626,-4.4966,-4.4378,-4.4488,-4.4635,-4.4452,-4.4562,-4.4874,-4.5278,-4.5828,-4.5498,-4.4911,-4.5095,-4.5369,-4.5902,-4.6415,-4.6892,-4.7315,-4.7755,-4.8067,-4.8196,-4.7957,-4.748,-4.7333,-5.7997,-5.7997,-5.7997,-5.7997,-5.7997,-5.7904,-5.7857,-5.7857,-5.7726,-5.7834,-5.7973,-5.7997,-5.7997,-5.7997,-5.7997,-5.7973,-5.7997,-5.795,-5.7997,-5.7997,-5.7997,-5.7997,-5.7997,-5.7997,-5.7997,-5.7973,-5.7904,-5.7774,-5.7726,-5.7726,-5.7786,-5.7857,-5.7857,-5.7857,-5.7857,-5.7857,-5.781,-5.7691,-5.7607,-5.7607,-5.751,-5.7328,-5.6903,-5.6346,-5.5462,-5.4665,-5.4182,-5.353,-5.2987,-5.2661,-5.2516,-5.2045,-5.138,-5.1344,-5.1104,-5.085,-5.08,-5.0886,-5.0669,-4.9945,-4.9365,-4.8931,-4.8619,-4.8221,-4.7953,-4.7808,-4.7699,-4.7699,-4.7772,-4.7901,-4.8052,-4.8047,-4.8093,-4.8251,-4.8314,-4.8319,-4.8287,-4.8269,-4.8196,-4.8196,-4.8233,-4.8159,-4.8049,-4.8086,-4.8269,-4.8269,-4.8196,-4.7976,-4.7663,-4.7021,-4.6342,-4.625,-4.5847,-4.5443,-4.5516,-4.5369,-4.5186,-4.5516,-4.5902,-4.6342,-4.6709,-4.6342,-4.5902,-4.5957,-4.6177,-4.6636,-4.7113,-4.7609,-4.8049,-4.8269,-4.8306,-4.8306,-4.8306,-4.792,-4.8012,-5.7881,-5.7927,-5.7973,-5.7927,-5.7834,-5.781,-5.7786,-5.7679,-5.7607,-5.7691,-5.7834,-5.7881,-5.795,-5.7937,-5.7914,-5.7927,-5.7904,-5.7857,-5.7857,-5.7867,-5.7927,-5.795,-5.795,-5.795,-5.7904,-5.7881,-5.7786,-5.7655,-5.7583,-5.7607,-5.7691,-5.7715,-5.7679,-5.7679,-5.7739,-5.7726,-5.7679,-5.7547,-5.7461,-5.7437,-5.7437,-5.729,-5.7168,-5.6647,-5.6079,-5.5341,-5.4581,-5.3929,-5.3204,-5.2733,-5.2516,-5.2045,-5.1647,-5.1706,-5.1611,-5.1357,-5.1271,-5.1452,-5.138,-5.0873,-5.0017,-4.9582,-4.9003,-4.8568,-4.788,-4.7699,-4.7699,-4.7699,-4.7699,-4.7829,-4.8212,-4.8275,-4.8473,-4.8632,-4.8404,-4.8246,-4.8267,-4.8306,-4.8269,-4.8269,-4.8269,-4.8269,-4.8196,-4.8196,-4.8306,-4.8306,-4.8306,-4.8306,-4.8122,-4.7976,-4.7388,-4.6911,-4.6507,-4.6361,-4.6397,-4.6177,-4.592,-4.6361,-4.6856,-4.6892,-4.6966,-4.7003,-4.6966,-4.6782,-4.6838,-4.7149,-4.7626,-4.8049,-4.8196,-4.8306,-4.8306,-4.8306,-4.8306,-4.8306,-4.8269,-5.7545,-5.7774,-5.7904,-5.7834,-5.7631,-5.7715,-5.7655,-5.7559,-5.7534,-5.7534,-5.7619,-5.7679,-5.7797,-5.7844,-5.7844,-5.7797,-5.775,-5.7739,-5.7703,-5.7726,-5.781,-5.7881,-5.7904,-5.7881,-5.781,-5.7739,-5.7607,-5.7559,-5.7486,-5.7486,-5.7522,-5.7571,-5.7559,-5.7559,-5.7534,-5.7486,-5.7437,-5.7388,-5.7313,-5.7239,-5.7213,-5.7188,-5.7177,-5.6899,-5.65,-5.5776,-5.5051,-5.4399,-5.3603,-5.3132,-5.2842,-5.2299,-5.2009,-5.2045,-5.1937,-5.1756,-5.1647,-5.19,-5.2009,-5.1344,-5.0728,-5.0148,-4.9438,-4.8822,-4.8206,-4.7844,-4.7844,-4.788,-4.788,-4.7844,-4.8191,-4.8378,-4.8577,-4.8701,-4.84,-4.8226,-4.8285,-4.8287,-4.8287,-4.8287,-4.8306,-4.8306,-4.8306,-4.8306,-4.8306,-4.8306,-4.8306,-4.8306,-4.8269,-4.8196,-4.7902,-4.7535,-4.7241,-4.7149,-4.7223,-4.7039,-4.6764,-4.7021,-4.7443,-4.7333,-4.7296,-4.7443,-4.7516,-4.7369,-4.748,-4.7663,-4.7883,-4.8196,-4.8306,-4.8306,-4.8306,-4.8306,-4.8306,-4.8306,-4.8306,-5.7023,-5.7631,-5.7655,-5.7631,-5.7583,-5.751,-5.7461,-5.7412,-5.7313,-5.7338,-5.7412,-5.7461,-5.7534,-5.7679,-5.7786,-5.7726,-5.7607,-5.7559,-5.7583,-5.7631,-5.7679,-5.7786,-5.781,-5.7763,-5.7631,-5.7534,-5.7437,-5.7388,-5.7363,-5.7313,-5.7338,-5.7412,-5.7412,-5.7437,-5.7437,-5.7412,-5.7412,-5.7313,-5.7289,-5.7264,-5.7213,-5.7188,-5.7188,-5.708,-5.7043,-5.6464,-5.5921,-5.5667,-5.5124,-5.4544,-5.3748,-5.3023,-5.2625,-5.2408,-5.2263,-5.219,-5.2082,-5.219,-5.2118,-5.1937,-5.1502,-5.0873,-5.0234,-4.98,-4.9112,-4.8351,-4.8387,-4.8547,-4.8366,-4.7859,-4.7989,-4.7916,-4.8058,-4.8182,-4.8085,-4.8187,-4.8248,-4.8267,-4.8287,-4.8287,-4.8306,-4.8306,-4.8306,-4.8306,-4.8306,-4.8306,-4.8306,-4.8306,-4.8306,-4.8306,-4.8306,-4.8086,-4.7829,-4.8012,-4.8067,-4.7883,-4.7755,-4.7939,-4.8012,-4.7846,-4.7846,-4.8049,-4.8049,-4.781,-4.7883,-4.8122,-4.8306,-4.8306,-4.8306,-4.8306,-4.8306,-4.8306,-4.8306,-4.8306,-4.8306]},{"header":{"parameterUnit":"m.s-1","parameterCategory":1,"la1":31.0,"la2":29.5877,"lo1":-88.7671,"lo2":-86.6584,"dy":0.0162,"dx":0.0185,"nx":115,"ny":88,"refTime":"2024-05-04T18:00:00:Z","depth":0,"parameterNumber":3,"parameterNumberName":"V-component_of_WINDS"},"data":[0.0,0.0,0.0,0.0,0.0,0.0,0.0,0.0,0.0,0.0,0.0,0.0,0.0,0.0,0.0,0.0,0.0,0.0,0.0,0.0,0.0,0.0,0.0,0.0,0.0,0.0,0.0,0.0,0.0,0.0,0.0,0.0,0.0,0.0,0.0,0.0,0.0,0.0,0.0,0.0,0.0,0.0,0.0,0.0,0.0,0.0,0.0,0.0,0.0,0.0,0.0,0.0,0.0,0.0,0.0,0.0,0.0,0.0,0.0,0.0,0.0,0.0,0.0,0.0,0.0,0.0,0.0,0.0,0.0,0.0,0.0,0.0,0.0,0.0,0.0,0.0,0.0,0.0,0.0,0.0,0.0,0.0,0.0,0.0,0.0,0.0,0.0,0.0,0.0,0.0,0.0,0.0,0.0,0.0,0.0,0.0,0.0,0.0,0.0,0.0,0.0,0.0,0.0,0.0,0.0,0.0,0.0,0.0,0.0,0.0,0.0,0.0,0.0,0.0,0.0,0.0,0.0,0.0,0.0,0.0,0.0,0.0,0.0,0.0,0.0,0.0,0.0,0.0,0.0,0.0,0.0,0.0,0.0,0.0,0.0,0.0,0.0,0.0,0.0,0.0,0.0,0.0,0.0,0.0,0.0,0.0,0.0,0.0,0.0,0.0,0.0,0.0,0.0,0.0,0.0,0.0,0.0,0.0,0.0,0.0,0.0,0.0,0.0,0.0,0.0,0.0,0.0,0.0,0.0,0.0,0.0,0.0,0.0,0.0,0.0,0.0,0.0,0.0,0.0,0.0,0.0,0.0,0.0,0.0,0.0,0.0,0.0,0.0,0.0,0.0,0.0,0.0,0.0,0.0,0.0,0.0,0.0,0.0,0.0,0.0,0.0,0.0,0.0,0.0,0.0,0.0,0.0,0.0,0.0,0.0,0.0,0.0,0.0,0.0,0.0,0.0,0.0,0.0,0.0,0.0,0.0,0.0,0.0,0.0,0.0,0.0,0.0,0.0,0.0,0.0,0.0,0.0,0.0,0.0,0.0,0.0,0.0,0.0,0.0,0.0,0.0,0.0,0.0,0.0,0.0,0.0,0.0,0.0,0.0,0.0,0.0,0.0,0.0,0.0,0.0,0.0,0.0,0.0,0.0,0.0,0.0,0.0,0.0,0.0,0.0,0.0,0.0,0.0,0.0,0.0,0.0,0.0,0.0,0.0,0.0,0.0,0.0,0.0,0.0,0.0,0.0,0.0,0.0,0.0,0.0,0.0,0.0,0.0,0.0,0.0,0.0,0.0,0.0,0.0,0.0,0.0,0.0,0.0,0.0,0.0,0.0,0.0,0.0,0.0,0.0,0.0,0.0,0.0,0.0,0.0,0.0,0.0,0.0,0.0,0.0,0.0,0.0,0.0,0.0,0.0,0.0,0.0,0.0,0.0,0.0,0.0,0.0,0.0,0.0,0.0,0.0,0.0,0.0,0.0,0.0,0.0,0.0,0.0,0.0,0.0,0.0,0.0,0.0,0.0,0.0,0.0,0.0,0.0,0.0,0.0,0.0,0.0,0.0,0.0,0.0,0.0,0.0,0.0,0.0,0.0,0.0,0.0,0.0,0.0,0.0,0.0,0.0,0.0,0.0,0.0,0.0,0.0,0.0,0.0,0.0,0.0,0.0,0.0,0.0,0.0,0.0,0.0,0.0,0.0,0.0,0.0,0.0,0.0,0.0,0.0,0.0,0.0,0.0,0.0,0.0,0.0,0.0,0.0,0.0,0.0,0.0,0.0,0.0,0.0,0.0,0.0,0.0,0.0,0.0,0.0,0.0,0.0,0.0,0.0,0.0,0.0,0.0,0.0,0.0,0.0,0.0,0.0,0.0,0.0,0.0,0.0,0.0,0.0,0.0,0.0,0.0,0.0,0.0,0.0,0.0,0.0,0.0,0.0,0.0,0.0,0.0,0.0,0.0,0.0,0.0,0.0,0.0,0.0,0.0,0.0,0.0,0.0,0.0,0.0,0.0,0.0,0.0,0.0,0.0,0.0,0.0,0.0,0.0,0.0,0.0,0.0,0.0,0.0,0.0,0.0,0.0,0.0,0.0,0.0,0.0,0.0,0.0,0.0,0.0,0.0,0.0,0.0,0.0,0.0,0.0,0.0,0.0,0.0,0.0,0.0,0.0,0.0,0.0,0.0,0.0,0.0,0.0,0.0,0.0,0.0,0.0,0.0,0.0,0.0,0.0,0.0,0.0,0.0,0.0,0.0,0.0,0.0,0.0,0.0,0.0,0.0,0.0,0.0,0.0,0.0,0.0,0.0,0.0,0.0,0.0,0.0,0.0,0.0,0.0,0.0,0.0,0.0,0.0,0.0,0.0,0.0,0.0,0.0,0.0,0.0,0.0,0.0,0.0,0.0,0.0,0.0,0.0,0.0,0.0,0.0,0.0,0.0,0.0,0.0,0.0,0.0,0.0,0.0,0.0,0.0,0.0,0.0,0.0,0.0,0.0,0.0,0.0,0.0,0.0,0.0,0.0,0.0,0.0,0.0,0.0,0.0,0.0,0.0,0.0,0.0,0.0,0.0,0.0,0.0,0.0,0.0,0.0,0.0,0.0,0.0,0.0,0.0,0.0,0.0,0.0,0.0,0.0,0.0,0.0,0.0,0.0,0.0,0.0,0.0,0.0,0.0,0.0,0.0,0.0,0.0,0.0,0.0,0.0,0.0,0.0,0.0,0.0,0.0,0.0,0.0,0.0,0.0,0.0,0.0,0.0,0.0,0.0,0.0,0.0,0.0,0.0,0.0,0.0,0.0,0.0,0.0,0.0,0.0,0.0,0.0,0.0,0.0,0.0,0.0,0.0,0.0,0.0,0.0,0.0,0.0,0.0,0.0,0.0,0.0,0.0,0.0,0.0,0.0,0.0,0.0,0.0,0.0,0.0,0.0,0.0,0.0,0.0,0.0,0.0,0.0,0.0,0.0,0.0,0.0,0.0,0.0,0.0,0.0,0.0,0.0,0.0,0.0,0.0,0.0,0.0,0.0,0.0,0.0,0.0,0.0,0.0,0.0,0.0,0.0,0.0,0.0,0.0,0.0,0.0,0.0,0.0,0.0,0.0,0.0,0.0,0.0,0.0,0.0,0.0,0.0,0.0,0.0,0.0,0.0,0.0,0.0,0.0,0.0,0.0,0.0,0.0,0.0,0.0,0.0,0.0,0.0,0.0,0.0,0.0,0.0,0.0,0.0,0.0,0.0,0.0,0.0,0.0,0.0,0.0,0.0,0.0,0.0,0.0,0.0,0.0,0.0,0.0,0.0,0.0,0.0,0.0,0.0,0.0,0.0,0.0,0.0,0.0,0.0,0.0,0.0,0.0,0.0,0.0,0.0,0.0,0.0,0.0,0.0,0.0,0.0,0.0,0.0,0.0,0.0,0.0,0.0,0.0,0.0,0.0,0.0,0.0,0.0,0.0,0.0,0.0,0.0,0.0,0.0,0.0,0.0,0.0,0.0,0.0,0.0,0.0,0.0,0.0,0.0,0.0,0.0,0.0,0.0,0.0,0.0,0.0,0.0,0.0,0.0,0.0,0.0,0.0,0.0,0.0,0.0,0.0,0.0,0.0,0.0,0.0,0.0,0.0,0.0,0.0,0.0,0.0,0.0,0.0,0.0,0.0,0.0,0.0,0.0,0.0,0.0,0.0,0.0,0.0,0.0,0.0,0.0,0.0,0.0,0.0,0.0,0.0,0.0,0.0,0.0,0.0,0.0,0.0,0.0,0.0,0.0,0.0,0.0,0.0,0.0,0.0,0.0,0.0,0.0,0.0,0.0,0.0,0.0,0.0,0.0,0.0,0.0,0.0,0.0,0.0,0.0,0.0,0.0,0.0,0.0,0.0,0.0,0.0,0.0,0.0,0.0,0.0,0.0,0.0,0.0,0.0,0.0,0.0,0.0,0.0,0.0,0.0,0.0,0.0,0.0,0.0,0.0,0.0,0.0,0.0,0.0,0.0,0.0,0.0,0.0,0.0,0.0,0.0,0.0,0.0,0.0,0.0,0.0,0.0,0.0,0.0,0.0,0.0,0.0,0.0,0.0,0.0,0.0,0.0,0.0,0.0,0.0,0.0,0.0,0.0,0.0,0.0,0.0,0.0,0.0,0.0,0.0,0.0,0.0,0.0,0.0,0.0,0.0,0.0,0.0,0.0,0.0,0.0,0.0,0.0,0.0,0.0,0.0,0.0,0.0,0.0,0.0,0.0,0.0,0.0,0.0,0.0,0.0,0.3765,0.0,0.0,0.0,0.0,0.0,0.0,0.0,0.0,0.0,0.0,0.0,0.0,0.0,0.0,0.0,0.0,0.0,0.0,0.0,0.0,0.0,0.0,0.0,0.0,0.0,0.0,0.0,0.0,0.0,0.0,0.0,0.0,0.0,0.0,0.0,0.0,0.0,0.0,0.0,0.0,0.0,0.0,0.0,0.0,0.0,0.0,0.0,0.0,0.0,0.0,0.0,0.0,0.0,0.0,0.0,0.0,0.0,0.0,0.0,0.0,0.0,0.0,0.0,0.0,0.0,0.0,0.0,0.0,0.0,0.0,0.0,0.0,0.0,0.0,0.0,0.0,0.0,0.0,0.0,0.0,0.0,0.0,0.0,0.0,0.0,0.0,0.0,0.0,0.0,0.0,0.0,0.0,0.0,0.0,0.0,0.0,0.0,0.0,0.0,0.0,0.0,0.0,0.0,0.0,0.0,0.0,0.0,0.0,0.0,0.0,0.3808,0.3778,0.371,0.3699,0.3699,0.0,0.0,0.0,0.0,0.0,0.0,0.0,0.0,0.0,0.0,0.0,0.0,0.0,0.0,0.0,0.0,0.0,0.0,0.0,0.0,0.0,0.0,0.0,0.0,0.0,0.0,0.0,0.0,0.0,0.0,0.0,0.0,0.0,0.0,0.0,0.0,0.0,0.0,0.0,0.0,0.0,0.0,0.0,0.0,0.0,0.0,0.0,0.0,0.0,0.0,0.0,0.0,0.0,0.0,0.0,0.0,0.0,0.0,0.0,0.0,0.0,0.0,0.0,0.0,0.0,0.0,0.0,0.0,0.0,0.0,0.0,0.0,0.0,0.0,0.0,0.0,0.0,0.0,0.0,0.0,0.0,0.0,0.0,0.0,0.0,0.0,0.0,0.0,0.0,0.0,0.0,0.0,0.0,0.0,0.0,0.0,0.0,0.0,0.0,0.0,0.0,0.0,0.0,0.0,0.0,0.0,0.0,0.0,0.0,0.0,0.0,0.0,0.3856,0.3877,0.3904,0.0,0.0,0.0,0.0,0.0,0.0,0.0,0.0,0.0,0.0,0.0,0.0,0.0,0.0,0.0,0.0,0.0,0.0,0.0,0.0,0.0,0.0,0.0,0.0,0.0,0.0,0.0,0.0,0.0,0.0,0.0,0.0,0.0,0.0,0.0,0.0,0.0,0.0,0.0,0.0,0.0,0.0,0.0,0.0,0.0,0.0,0.0,0.0,0.0,0.0,0.0,0.0,0.0,0.0,0.0,0.0,0.0,0.0,0.0,0.0,0.0,0.0,0.0,0.0,0.0,0.0,0.0,0.0,0.0,0.0,0.0,0.0,0.0,0.0,0.0,0.0,0.0,0.0,0.0,0.0,0.0,0.0,0.0,0.0,0.0,0.0,0.0,0.0,0.0,0.0,0.0,0.0,0.0,0.0,0.0,0.0,0.0,0.0,0.0,0.0,0.0,0.0,0.0,0.0,0.0,0.0,0.0,0.0,0.0,0.0,0.4043,0.46,0.4579,0.0,0.4769,0.0,0.0,0.0,0.0,0.0,0.0,0.0,0.0,0.0,0.0,0.0,0.0,0.0,0.0,0.0,0.0,0.0,0.0,0.0,0.0,0.0,0.0,0.0,0.0,0.0,0.0,0.0,0.0,0.0,0.0,0.0,0.0,0.0,0.0,0.0,0.0,0.0,0.0,0.0,0.0,0.0,0.0,0.0,0.0,0.0,0.0,0.0,0.0,0.0,0.0,0.0,0.0,0.0,0.0,0.0,0.0,0.0,0.0,0.0,0.0,0.0,0.0,0.0,0.0,0.0,0.0,0.0,0.0,0.0,0.0,0.0,0.0,0.0,0.0,0.0,0.0,0.0,0.0,0.0,0.0,0.0,0.0,0.0,0.0,0.0,0.0,0.0,0.0,0.0,0.0,0.0,0.0,0.0,0.0,0.0,0.0,0.0,0.0,0.0,0.0,0.0,0.0,0.0,0.0,0.0,0.0,0.0,0.0,0.0,0.0,0.4219,0.458,0.458,0.4573,0.0,0.0,0.0,0.0,0.0,0.0,0.0,0.0,0.0,0.0,0.0,0.0,0.0,0.0,0.0,0.0,0.0,0.0,0.0,0.0,0.0,0.0,0.0,0.0,0.0,0.0,0.0,0.0,0.0,0.0,0.0,0.0,0.0,0.0,0.0,0.0,0.0,0.0,0.0,0.0,0.0,0.0,0.0,0.0,0.0,0.0,0.0,0.0,0.0,0.0,0.0,0.0,0.0,0.0,0.0,0.0,0.0,0.0,0.0,0.0,0.0,0.0,0.0,0.0,0.0,0.0,0.0,0.0,0.0,0.0,0.0,0.0,0.0,0.0,0.0,0.0,0.0,0.0,0.0,0.0,0.0,0.0,0.0,0.0,0.0,0.0,0.0,0.0,0.0,0.0,0.0,0.0,0.0,0.0,0.0,0.0,0.0,0.0,0.0,0.0,0.0,0.0,0.0,0.0,0.0,0.0,0.0,0.0,0.0,0.0,0.4226,0.4436,0.4745,0.4621,0.4457,0.4287,0.0,0.0,0.0,0.0,0.0,0.0,0.0,0.0,0.0,0.0,0.0,0.0,0.0,0.0,0.0,0.0,0.0,0.0,0.0,0.0,0.0,0.0,0.0,0.0,0.0,0.0,0.0,0.0,0.0,0.0,0.0,0.0,0.0,0.0,0.0,0.0,0.0,0.0,0.0,0.0,0.0,0.0,0.0,0.0,0.0,0.0,0.0,0.0,0.0,0.0,0.0,0.0,0.0,0.0,0.0,0.0,0.0,0.0,0.0,0.0,0.0,0.0,0.0,0.0,0.0,0.0,0.0,0.0,0.0,0.0,0.0,0.0,0.0,0.0,0.0,0.0,0.0,0.0,0.0,0.0,0.0,0.0,0.0,0.0,0.0,0.0,0.0,0.0,0.0,0.0,0.0,0.0,0.0,0.0,0.0,0.0,0.0,0.0,0.0,0.0,0.0,0.0,0.0,0.0,0.0,0.0,0.0,0.0,0.5214,0.4757,0.4757,0.5317,0.4935,0.4634,0.0,0.0,0.0,0.0,0.0,0.0,0.0,0.0,0.0,0.0,0.0,0.0,0.0,0.0,0.0,0.0,0.0,0.0,0.0,0.0,0.0,0.0,0.0,0.0,0.0,0.0,0.0,0.0,0.0,0.0,0.0,0.0,0.0,0.0,0.0,0.0,0.0,0.0,0.0,0.0,0.0,0.0,0.0,0.0,0.0,0.0,0.0,0.0,0.0,0.0,0.0,0.0,0.0,0.0,0.0,0.0,0.0,0.0,0.0,0.0,0.0,0.0,0.0,0.0,0.0,0.0,0.0,0.0,0.0,0.0,0.0,0.0,0.0,0.0,0.0,0.0,0.0,0.0,0.0,0.0,0.0,0.0,0.0,0.0,0.0,0.0,0.0,0.0,0.0,0.0,0.0,0.0,0.0,0.0,0.0,0.0,0.0,0.0,0.0,0.0,0.0,0.0,0.0,0.0,0.0,0.0,0.0,0.0,0.0,0.4232,0.4402,0.4825,0.5487,0.4914,0.4641,0.0,0.0,0.0,0.0,0.0,0.0,0.0,0.0,0.0,0.0,0.0,0.0,0.0,0.0,0.0,0.0,0.0,0.0,0.0,0.0,0.0,0.0,0.0,0.0,0.0,0.0,0.0,0.0,0.0,0.0,0.0,0.0,0.0,0.0,0.0,0.0,0.0,0.0,0.0,0.0,0.0,0.0,0.0,0.0,0.0,0.0,0.0,0.0,0.0,0.0,0.0,0.0,0.0,0.0,0.0,0.0,0.0,0.0,0.0,0.0,0.0,0.0,0.0,0.0,0.0,0.0,0.0,0.0,0.0,0.0,0.0,0.0,0.0,0.0,0.0,0.0,0.0,0.0,0.0,0.0,0.0,0.0,0.0,0.0,0.0,0.0,0.0,0.0,0.0,0.0,0.0,0.0,0.0,0.0,0.0,0.0,0.0,0.0,0.0,0.0,0.0,0.0,0.0,0.0,0.0,0.0,0.0,0.0,0.0,0.4016,0.0,0.4982,0.5325,0.4812,0.4498,0.0,0.0,0.0,0.0,0.0,0.0,0.0,0.0,0.0,0.0,0.0,0.0,0.0,0.0,0.0,0.0,0.0,0.0,0.0,0.0,0.0,0.0,0.0,0.0,0.0,0.0,0.0,0.0,0.0,0.0,0.0,0.0,0.0,0.0,0.0,0.0,0.0,0.0,0.0,0.0,0.0,0.0,0.0,0.0,0.0,0.0,0.0,0.0,0.0,0.0,0.0,0.0,0.0,0.0,0.0,0.0,0.0,0.0,0.0,0.0,0.0,0.0,0.0,0.0,0.0,0.0,0.0,0.0,0.0,0.0,0.0,0.0,0.0,0.0,0.0,0.0,0.0,0.0,0.0,0.0,0.0,0.0,0.0,0.0,0.0,0.0,0.0,0.0,0.0,0.0,0.0,0.0,0.0,0.0,0.0,0.0,0.0,0.0,0.0,0.0,0.0,0.0,0.0,0.0,0.0,0.0,0.0,0.0,0.4016,0.485,0.5194,0.5189,0.4938,0.4648,0.4218,0.0,0.0,0.0,0.0,0.0,0.0,0.0,0.0,0.0,0.0,0.0,0.0,0.0,0.0,0.0,0.0,0.0,0.0,0.0,0.0,0.0,0.0,0.0,0.0,0.0,0.0,0.0,0.0,0.0,0.0,0.0,0.0,0.0,0.0,0.0,0.0,0.0,0.0,0.0,0.0,0.0,0.0,0.0,0.0,0.0,0.0,0.0,0.0,0.0,0.0,0.0,0.0,0.0,0.0,0.0,0.0,0.0,0.0,0.0,0.0,0.0,0.0,0.0,0.0,0.0,0.0,0.0,0.0,0.0,0.0,0.0,0.0,0.0,0.0,0.0,0.0,0.0,0.0,0.0,0.0,0.0,0.0,0.0,0.0,0.0,0.0,0.0,0.0,0.0,0.0,0.0,0.0,0.0,0.0,0.0,0.0,0.0,0.0,0.0,0.0,0.0,0.0,0.0,0.0,0.0,0.0,0.0,0.0,0.0,0.4281,0.4694,0.5053,0.5338,0.4484,0.4206,0.0,0.0,0.0,0.0,0.0,0.0,0.0,0.0,0.0,0.0,0.0,0.0,0.0,0.0,0.0,0.0,0.0,0.0,0.0,0.0,0.0,0.0,0.0,0.0,0.0,0.0,0.0,0.0,0.0,0.0,0.0,0.0,0.0,0.0,0.0,0.0,0.0,0.0,0.0,0.0,0.0,0.0,0.0,0.0,0.0,0.0,0.0,0.0,0.0,0.0,0.0,0.0,0.0,0.0,0.0,0.0,0.0,0.0,0.0,0.0,0.0,0.0,0.0,0.0,0.0,0.0,0.0,0.0,0.0,0.0,0.0,0.0,0.0,0.0,0.0,0.0,0.0,0.0,0.0,0.0,0.0,0.0,0.0,0.0,0.0,0.0,0.0,0.0,0.0,0.0,0.0,0.0,0.0,0.0,0.0,0.0,0.0,0.0,0.0,0.0,0.0,0.0,0.0,0.0,0.0,0.0,0.0,0.0,0.0,0.4707,0.5074,0.5405,0.5589,0.4748,0.4395,0.4577,0.0,0.0,0.0,0.0,0.0,0.0,0.0,0.0,0.0,0.0,0.0,0.0,0.0,0.0,0.0,0.0,0.0,0.0,0.0,0.0,0.0,0.0,0.0,0.0,0.0,0.0,0.0,0.0,0.0,0.0,0.0,0.0,0.0,0.0,0.0,0.0,0.0,0.0,0.0,0.0,0.0,0.0,0.0,0.0,0.0,0.0,0.0,0.0,0.0,0.0,0.0,0.0,0.0,0.0,0.0,0.0,0.0,0.0,0.0,0.0,0.0,0.0,0.0,0.0,0.0,0.0,0.0,0.0,0.0,0.0,0.0,0.0,0.0,0.0,0.0,0.0,0.0,0.0,0.0,0.0,0.0,0.0,0.0,0.0,0.0,0.0,0.0,0.0,0.0,0.0,0.0,0.0,0.0,0.0,0.0,0.0,0.0,0.0,0.0,0.0,0.0,0.0,0.0,0.0,0.0,0.0,0.0,0.0,0.5854,0.6238,0.6218,0.5767,0.5338,0.4719,0.0,0.0,0.0,0.0,0.0,0.0,0.0,0.0,0.0,0.0,0.0,0.0,0.0,0.0,0.0,0.0,0.0,0.0,0.0,0.0,0.0,0.0,0.0,0.0,0.0,0.0,0.0,0.0,0.0,0.0,0.0,0.0,0.0,0.0,0.0,0.0,0.0,0.0,0.0,0.0,0.0,0.0,0.0,0.0,0.0,0.0,0.0,0.0,0.0,0.0,0.0,0.0,0.0,0.0,0.0,0.0,0.0,0.0,0.0,0.0,0.0,0.0,0.0,0.0,0.0,0.0,0.0,0.0,0.0,0.0,0.0,0.0,0.0,0.0,0.0,0.0,0.0,0.0,0.0,0.0,0.0,0.0,0.0,0.0,0.0,0.0,0.0,0.0,0.0,0.0,0.0,0.0,0.0,0.0,0.0,0.0,0.0,0.0,0.0,0.0,0.0,0.0,0.0,0.0,0.0,0.0,0.0,0.0,0.0,0.6471,0.7407,0.7638,0.7075,0.5958,0.5228,0.0,0.0,0.0,0.0,0.0,0.0,0.0,0.0,0.0,0.0,0.0,0.0,0.0,0.0,0.0,0.0,0.0,0.0,0.0,0.0,0.0,0.0,0.0,0.0,0.0,0.0,0.0,0.0,0.0,0.0,0.0,0.0,0.0,0.0,0.0,0.0,0.0,0.0,0.0,0.0,0.0,0.0,0.0,0.0,0.0,0.0,0.0,0.0,0.0,0.0,0.0,0.0,0.0,0.0,0.0,0.0,0.0,0.0,0.0,0.0,0.0,0.0,0.0,0.0,0.0,0.0,0.0,0.0,0.0,0.0,0.0,0.0,0.0,0.0,0.0,0.0,0.0,0.0,0.0,0.0,0.0,0.0,0.0,0.0,0.0,0.0,0.0,0.0,0.0,0.0,0.0,0.0,0.0,0.0,0.0,0.0,0.0,0.0,0.0,0.0,0.0,0.0,0.0,0.0,0.0,0.0,0.0,0.0,0.6437,0.7163,0.8275,0.8696,0.8357,0.7003,0.5911,0.0,0.0,0.0,0.0,0.0,0.0,0.0,0.0,0.0,0.0,0.0,0.0,0.0,0.0,0.0,0.0,0.0,0.0,0.0,0.0,0.0,0.0,0.0,0.0,0.0,0.0,0.0,0.0,0.0,0.0,0.0,0.0,0.0,0.0,0.0,0.0,0.0,0.0,0.0,0.0,0.0,0.0,0.0,0.0,0.0,0.0,0.0,0.0,0.0,0.0,0.0,0.0,0.0,0.0,0.0,0.0,0.0,0.0,0.0,0.0,0.0,0.0,0.0,0.0,0.0,0.0,0.0,0.0,0.0,0.0,0.0,0.0,0.0,0.0,0.0,0.0,0.0,0.0,0.0,0.0,0.0,0.0,0.0,0.0,0.0,0.0,0.0,0.0,0.0,0.0,0.0,0.0,0.0,0.0,0.0,0.0,0.0,0.0,0.0,0.0,0.0,0.0,0.0,0.0,0.0,0.0,0.0,0.0,0.6932,0.7821,0.8879,0.948,0.9425,0.8122,0.6654,0.0,0.0,0.0,0.0,0.0,0.0,0.0,0.0,0.0,0.0,0.0,0.0,0.0,0.0,0.0,0.0,0.0,0.0,0.0,0.0,0.0,0.0,0.0,0.0,0.0,0.0,0.0,0.0,0.0,0.0,0.0,0.0,0.0,0.0,0.0,0.0,0.0,0.0,0.0,0.0,0.0,0.0,0.0,0.0,0.0,0.0,0.0,0.0,0.0,0.0,0.0,0.0,0.0,0.0,0.0,0.0,0.0,0.0,0.0,0.0,0.0,0.0,0.0,0.0,0.0,0.0,0.0,0.0,0.0,0.0,0.0,0.0,0.0,0.0,0.0,0.0,0.0,0.0,0.0,0.0,0.0,0.0,0.0,0.0,0.0,0.0,0.0,0.0,0.0,0.0,0.0,0.0,0.0,0.0,0.0,0.0,0.0,0.0,0.0,0.0,0.0,0.0,0.0,0.0,0.0,0.0,0.0,0.0,0.7088,0.7934,0.913,0.9792,0.9853,0.8117,0.6654,0.0,0.0,0.0,0.0,0.0,0.0,0.0,0.0,0.0,0.0,0.0,0.0,0.0,0.0,0.0,0.0,0.0,0.0,0.0,0.0,0.0,0.0,0.0,0.0,0.0,0.0,0.0,0.0,0.0,0.0,0.0,0.0,0.0,0.0,0.0,0.0,0.0,0.0,0.0,0.0,0.0,0.0,0.0,0.0,0.0,0.0,0.0,0.0,0.6574,0.0,0.0,0.0,0.0,0.0,0.0,0.0,0.0,0.0,0.0,0.0,0.0,0.0,0.0,0.0,0.0,0.0,0.0,0.0,0.0,0.0,0.0,0.0,0.0,0.0,0.0,0.0,0.0,0.0,0.0,0.0,0.0,0.0,0.0,0.0,0.0,0.0,0.0,0.0,0.0,0.0,0.0,0.0,0.0,0.0,0.0,0.0,0.0,0.0,0.0,0.0,0.0,0.0,0.0,0.0,0.0,0.0,0.0,0.0,0.7312,0.8336,0.9252,0.9712,0.9697,0.8394,0.7215,0.0,0.0,0.0,0.0,0.0,0.0,0.0,0.0,0.0,0.0,0.0,0.0,0.0,0.0,0.0,0.0,0.0,0.0,0.0,0.0,0.0,0.0,0.0,0.0,0.0,0.0,0.0,0.0,0.0,0.0,0.0,0.0,0.0,0.0,0.0,0.0,0.0,0.0,0.0,0.0,0.0,0.0,0.0,0.0,0.0,0.0,0.0,0.0,0.0,0.0,0.0,0.0,0.0,0.0,0.0,0.0,0.0,0.0,0.0,0.0,0.0,0.0,0.0,0.0,0.0,0.0,0.0,0.0,0.0,0.0,0.0,0.0,0.0,0.0,0.0,0.0,0.0,0.0,0.0,0.0,0.0,0.0,0.0,0.0,0.0,0.0,0.0,0.0,0.0,0.0,0.0,0.0,0.0,0.0,0.0,0.0,0.0,0.0,0.0,0.0,0.0,0.0,0.0,0.0,0.0,0.0,0.0,0.643,0.7509,0.873,0.932,0.9537,0.9432,0.8769,0.7865,0.6686,0.0,0.0,0.0,0.0,0.0,0.0,0.0,0.0,0.0,0.0,0.0,0.0,0.0,0.0,0.0,0.0,0.0,0.0,0.0,0.0,0.0,0.0,0.0,0.0,0.0,0.0,0.0,0.0,0.0,0.0,0.0,0.0,0.0,0.0,0.0,0.0,0.0,0.0,0.5597,0.576,0.0,0.0,0.0,0.0,0.0,0.0,0.0,0.0,0.6229,0.0,0.0,0.0,0.0,0.0,0.0,0.0,0.0,0.0,0.0,0.0,0.0,0.0,0.0,0.0,0.0,0.0,0.0,0.0,0.0,0.0,0.0,0.0,0.0,0.0,0.0,0.0,0.0,0.0,0.0,0.0,0.0,0.0,0.0,0.0,0.0,0.0,0.0,0.0,0.0,0.0,0.0,0.0,0.0,0.0,0.0,0.0,0.0,0.0,0.0,0.0,0.0,0.0,0.0,0.0,0.0,0.6261,0.6586,0.7502,0.9091,0.9422,0.9655,0.9708,0.8874,0.7903,0.6798,0.0,0.0,0.0,0.0,0.0,0.0,0.0,0.0,0.0,0.0,0.0,0.0,0.0,0.0,0.0,0.0,0.0,0.0,0.0,0.0,0.0,0.0,0.0,0.0,0.0,0.0,0.0,0.0,0.0,0.0,0.0,0.0,0.0,0.0,0.0,0.0,0.0,0.0,0.0,0.5932,0.608,0.0,0.0,0.0,0.0,0.0,0.0,0.0,0.0,0.6564,0.0,0.0,0.0,0.0,0.0,0.0,0.0,0.0,0.0,0.0,0.0,0.0,0.0,0.0,0.0,0.0,0.0,0.0,0.0,0.0,0.0,0.0,0.0,0.0,0.0,0.0,0.0,0.0,0.0,0.0,0.0,0.0,0.0,0.0,0.0,0.0,0.0,0.0,0.0,0.0,0.0,0.0,0.0,0.0,0.0,0.0,0.0,0.0,0.0,0.0,0.0,0.0,0.0,0.0,0.0,0.6084,0.681,0.774,0.8886,0.9465,0.9629,0.9412,0.8635,0.7752,0.0,0.0,0.0,0.0,0.0,0.0,0.0,0.0,0.0,0.0,0.0,0.0,0.0,0.0,0.0,0.0,0.0,0.0,0.0,0.0,0.0,0.0,0.0,0.0,0.0,0.0,0.0,0.0,0.0,0.0,0.0,0.0,0.0,0.0,0.0,0.0,0.0,0.0,0.0,0.0,0.5859,0.5861,0.6165,0.0,0.0,0.0,0.0,0.0,0.0,0.6611,0.6558,0.0,0.0,0.0,0.0,0.0,0.0,0.0,0.0,0.0,0.0,0.0,0.0,0.0,0.0,0.0,0.0,0.0,0.0,0.0,0.0,0.0,0.0,0.0,0.0,0.0,0.0,0.0,0.0,0.0,0.0,0.0,0.0,0.0,0.0,0.0,0.0,0.0,0.0,0.0,0.0,0.0,0.0,0.0,0.0,0.0,0.0,0.0,0.0,0.0,0.0,0.0,0.0,0.0,0.0,0.0,0.5806,0.6926,0.7882,0.8635,0.93,0.9427,0.9083,0.8254,0.7371,0.0,0.0,0.0,0.0,0.0,0.0,0.0,0.0,0.0,0.0,0.0,0.0,0.0,0.0,0.0,0.0,0.0,0.0,0.0,0.0,0.0,0.0,0.0,0.0,0.0,0.0,0.0,0.0,0.0,0.0,0.0,0.0,0.0,0.0,0.0,0.0,0.0,0.0,0.0,0.0,0.0,0.5922,0.6561,0.6274,0.0,0.0,0.0,0.0,0.6259,0.686,0.0,0.0,0.0,0.0,0.0,0.0,0.0,0.0,0.0,0.0,0.0,0.0,0.0,0.0,0.0,0.0,0.0,0.0,0.0,0.0,0.0,0.0,0.0,0.0,0.0,0.0,0.0,0.0,0.0,0.0,0.0,0.0,0.0,0.0,0.0,0.0,0.0,0.0,0.0,0.0,0.0,0.0,0.0,0.0,0.0,0.0,0.0,0.0,0.0,0.0,0.0,0.0,0.0,0.0,0.0,0.0,0.5793,0.6715,0.7624,0.8472,0.8825,0.9002,0.8934,0.7558,0.6791,0.0,0.0,0.0,0.0,0.0,0.0,0.0,0.0,0.0,0.0,0.0,0.0,0.0,0.0,0.0,0.0,0.0,0.0,0.0,0.0,0.0,0.0,0.0,0.0,0.0,0.0,0.0,0.0,0.0,0.0,0.0,0.0,0.0,0.0,0.0,0.0,0.0,0.0,0.0,0.0,0.0,0.6891,0.6051,0.709,0.7641,0.0,0.0,0.8497,0.7767,0.8717,0.0,0.0,0.0,0.0,0.0,0.0,0.0,0.0,0.0,0.0,0.0,0.0,0.0,0.0,0.0,0.0,0.0,0.0,0.0,0.0,0.0,0.0,0.0,0.0,0.0,0.0,0.0,0.0,0.0,0.0,0.0,0.0,0.0,0.0,0.0,0.0,0.0,0.0,0.0,0.0,0.0,0.0,0.0,0.0,0.0,0.0,0.0,0.0,0.0,0.0,0.0,0.0,0.0,0.0,0.0,0.511,0.5928,0.7026,0.7951,0.8594,0.9104,0.9279,0.9056,0.7514,0.6626,0.0,0.0,0.0,0.0,0.0,0.0,0.0,0.0,0.0,0.0,0.0,0.0,0.0,0.0,0.0,0.0,0.0,0.0,0.0,0.0,0.0,0.0,0.0,0.0,0.0,0.0,0.0,0.0,0.0,0.0,0.0,0.0,0.0,0.0,0.0,0.0,0.0,0.0,0.0,0.0,0.0,0.0,0.6744,0.7234,0.0,0.0,0.0,0.8942,0.8563,0.0,0.0,0.0,0.0,0.0,0.0,0.0,0.0,0.0,0.0,0.0,0.0,0.0,0.0,0.0,0.0,0.0,0.0,0.0,0.0,0.0,0.0,0.0,0.0,0.0,0.0,0.0,0.0,0.0,0.0,0.0,0.0,0.0,0.0,0.0,0.0,0.0,0.0,0.0,0.0,0.0,0.0,0.0,0.0,0.0,0.0,0.0,0.0,0.0,0.0,0.0,0.0,0.0,0.0,0.0,0.0,0.0,0.6105,0.7375,0.8239,0.87,0.9286,0.9415,0.9151,0.7573,0.0,0.0,0.0,0.0,0.0,0.0,0.0,0.0,0.0,0.0,0.0,0.0,0.0,0.0,0.0,0.0,0.0,0.0,0.0,0.0,0.0,0.0,0.0,0.0,0.0,0.0,0.0,0.6317,0.0,0.0,0.0,0.0,0.0,0.0,0.0,0.0,0.0,0.0,0.0,0.0,0.0,0.0,0.7573,0.7727,0.7944,0.8228,0.0,0.0,0.9612,0.9337,0.9661,0.9517,0.0,0.0,0.0,0.0,0.0,0.0,0.0,0.0,0.0,0.0,0.0,0.0,0.0,0.0,0.0,0.0,0.0,0.0,0.0,0.0,0.0,0.0,0.0,0.0,0.0,0.0,0.0,0.0,0.0,0.0,0.0,0.0,0.0,0.0,0.0,0.0,0.0,0.0,0.0,0.0,0.0,0.0,0.0,0.0,0.0,0.0,0.0,0.0,0.0,0.0,0.0,0.0,0.0,0.0,0.0,0.6396,0.7525,0.8308,0.8775,0.9004,0.9087,0.8979,0.7576,0.6651,0.0,0.0,0.0,0.0,0.0,0.0,0.0,0.0,0.0,0.0,0.0,0.0,0.0,0.0,0.0,0.0,0.0,0.0,0.0,0.0,0.0,0.0,0.0,0.0,0.0,0.0,0.0,0.0,0.0,0.0,0.0,0.0,0.0,0.0,0.0,0.0,0.0,0.0,0.0,0.0,0.0,0.9319,0.8762,0.9925,1.0581,0.0,0.0,1.1037,1.0155,1.1295,1.1386,0.8773,0.0,0.0,0.0,0.0,0.0,0.0,0.0,0.0,0.0,0.0,0.0,0.0,0.0,0.0,0.0,0.0,0.0,0.0,0.0,0.0,0.0,0.0,0.0,0.0,0.0,0.0,0.0,0.0,0.0,0.0,0.0,0.0,0.0,0.0,0.0,0.0,0.0,0.0,0.0,0.0,0.0,0.0,0.0,0.0,0.0,0.0,0.0,0.0,0.0,0.0,0.0,0.0,0.0,0.543,0.6311,0.7254,0.8097,0.8795,0.8943,0.9057,0.906,0.7677,0.6728,0.0,0.0,0.0,0.0,0.0,0.0,0.0,0.0,0.0,0.0,0.0,0.0,0.0,0.0,0.0,0.0,0.0,0.0,0.0,0.0,0.0,0.0,0.0,0.0,0.0,0.0,0.0,0.0,0.7379,0.7548,0.7504,0.0,0.0,0.0,0.0,0.0,0.0,0.0,0.0,0.0,0.0,0.9229,0.8854,0.9654,0.0,0.0,1.0787,1.1313,1.1262,1.1544,1.1179,0.9436,0.875,0.0,0.0,0.0,0.0,0.0,0.0,0.0,0.0,0.0,0.0,0.0,0.0,0.0,0.0,0.0,0.0,0.0,0.0,0.0,0.0,0.0,0.0,0.0,0.0,0.0,0.0,0.0,0.0,0.0,0.0,0.0,0.0,0.0,0.0,0.0,0.0,0.0,0.0,0.0,0.0,0.0,0.0,0.0,0.0,0.0,0.0,0.0,0.0,0.0,0.0,0.0,0.0,0.5557,0.6518,0.7401,0.8222,0.9008,0.9106,0.9084,0.9072,0.7902,0.6955,0.0,0.0,0.0,0.0,0.0,0.0,0.0,0.0,0.0,0.0,0.0,0.0,0.0,0.0,0.0,0.0,0.0,0.0,0.0,0.0,0.0,0.0,0.0,0.0,0.0,0.0,0.0,0.0,0.7602,0.7709,0.7517,0.0,0.0,0.0,0.0,0.0,0.0,0.0,0.0,0.0,0.0,0.9153,0.9232,0.9744,1.0297,1.077,1.1062,1.1386,1.1754,1.1556,1.0819,0.9402,0.0,0.0,0.0,0.0,0.0,0.0,0.0,0.0,0.0,0.0,0.0,0.0,0.0,0.0,0.0,0.0,0.0,0.0,0.0,0.0,0.0,0.0,0.0,0.0,0.0,0.0,0.0,0.0,0.0,0.0,0.5872,0.0,0.0,0.0,0.0,0.0,0.0,0.0,0.0,0.0,0.0,0.0,0.0,0.0,0.0,0.0,0.0,0.0,0.0,0.0,0.0,0.0,0.0,0.5947,0.6965,0.7984,0.8864,0.9534,0.9445,0.9267,0.908,0.8211,0.7437,0.6676,0.0,0.0,0.0,0.0,0.0,0.0,0.0,0.0,0.0,0.0,0.0,0.0,0.0,0.0,0.0,0.0,0.0,0.0,0.0,0.0,0.0,0.0,0.0,0.0,0.0,0.0,0.706,0.7308,0.7527,0.0,0.0,0.0,0.0,0.0,0.0,0.0,0.0,0.0,0.0,0.8448,0.9313,1.0031,1.0586,1.1155,1.2059,1.1744,1.1373,1.1429,1.1402,1.0691,0.0,0.0,0.0,0.0,0.0,0.0,0.0,0.0,0.0,0.0,0.0,0.0,0.0,0.0,0.0,0.0,0.0,0.0,0.0,0.0,0.0,0.0,0.0,0.0,0.0,0.0,0.0,0.6849,0.6637,0.0,0.0,0.0,0.0,0.0,0.0,0.0,0.0,0.0,0.0,0.0,0.6993,0.6958,0.0,0.0,0.0,0.0,0.0,0.0,0.0,0.0,0.0,0.0,0.0,0.0,0.5807,0.6588,0.7628,0.8426,0.8958,0.8965,0.8901,0.8864,0.8204,0.7298,0.6189,0.0,0.0,0.0,0.0,0.0,0.0,0.0,0.0,0.0,0.0,0.0,0.0,0.0,0.0,0.0,0.0,0.0,0.0,0.0,0.0,0.0,0.0,0.0,0.0,0.0,0.745,0.0,0.0,0.0,0.0,0.0,0.0,0.0,0.0,0.0,0.0,0.0,0.8536,0.9176,0.9718,0.9982,0.9817,1.0432,1.1019,0.0,0.0,0.0,0.0,0.0,0.0,0.0,0.0,0.0,0.0,0.0,0.0,0.0,0.0,0.8587,0.7238,0.6918,0.674,0.641,0.0,0.0,0.0,0.0,0.0,0.0,0.0,0.0,0.0,0.0,0.0,0.0,0.0,0.0,0.7559,0.0,0.7322,0.0,0.0,0.0,0.0,0.0,0.0,0.0,0.0,0.7425,0.7749,0.7988,0.7932,0.7899,0.0,0.7485,0.6643,0.0,0.0,0.0,0.0,0.0,0.0,0.0,0.0,0.598,0.6634,0.7647,0.8372,0.8831,0.8791,0.8726,0.8731,0.804,0.7257,0.6318,0.5677,0.5222,0.0,0.0,0.0,0.0,0.0,0.0,0.0,0.0,0.0,0.0,0.0,0.0,0.0,0.0,0.0,0.0,0.0,0.0,0.0,0.0,0.0,0.0,0.0,0.7839,0.0,0.0,0.0,0.0,0.0,0.0,0.0,0.0,0.0,0.8778,0.8854,0.9167,0.988,0.988,0.9767,0.9689,0.0,0.0,0.0,0.0,0.0,0.0,0.0,1.0817,1.0206,1.0213,1.0502,1.1088,1.1446,1.1272,1.0007,0.0,0.0,0.74,0.7051,0.6885,0.6512,0.628,0.6138,0.6197,0.6102,0.5903,0.0,0.0,0.0,0.0,0.0,0.0,0.0,0.0,0.7959,0.8114,0.0,0.8033,0.0,0.0,0.0,0.0,0.0,0.7894,0.0,0.0,0.8816,0.9045,0.8406,0.856,0.8536,0.8357,0.8341,0.7885,0.709,0.6274,0.0,0.0,0.0,0.0,0.0,0.0,0.6467,0.7029,0.8038,0.8739,0.9064,0.8909,0.8723,0.8563,0.7877,0.7339,0.6963,0.6286,0.6096,0.6502,0.5274,0.0,0.0,0.0,0.0,0.0,0.0,0.0,0.0,0.0,0.0,0.0,0.0,0.0,0.0,0.0,0.0,0.0,0.0,0.0,0.0,0.8216,0.0,0.0,0.0,0.0,0.0,0.0,0.0,0.0,0.0,0.0,0.8965,0.9082,0.9343,0.9796,0.0,0.0,0.0,0.0,0.9578,1.0074,1.0661,1.0942,1.072,1.1363,1.151,1.0381,0.0,0.0,1.1528,1.1765,1.1924,1.1565,1.05,0.9249,0.7888,0.7407,0.725,0.7408,0.6736,0.6254,0.6405,0.6006,0.5548,1.0704,0.0,0.0,0.0,0.0,0.914,0.9501,1.0111,0.9933,0.9689,0.9413,0.9194,0.0,0.0,0.0,0.0,0.0,0.0,0.8276,0.8658,0.9267,0.9575,0.9682,0.9811,0.9803,0.9616,0.9282,0.8942,0.8678,0.8112,0.7013,0.5508,0.0,0.0,0.0,0.0,0.6733,0.736,0.8151,0.8674,0.8893,0.8731,0.8373,0.7813,0.7472,0.7066,0.6587,0.6375,0.6121,0.5908,0.6018,0.0,0.0,0.0,0.0,0.0,0.0,0.0,0.0,0.0,0.0,0.0,0.0,0.0,0.0,0.0,0.0,0.0,0.0,0.0,0.7912,0.8551,0.8591,0.0,0.0,0.0,0.0,0.0,0.0,0.0,0.0,0.0,1.0589,1.0541,1.0581,0.0,0.0,1.0266,1.0341,1.0611,1.0839,1.1002,1.1369,0.0,1.1784,1.1873,1.1948,1.2009,1.2336,1.2379,1.1764,1.2064,1.2308,1.1922,1.156,1.0955,0.992,0.8409,0.7451,0.7451,0.6957,0.6426,0.6468,0.6377,0.6308,1.2621,1.1411,1.0515,1.0329,1.0526,1.0417,1.0667,1.1167,1.0988,1.0761,1.0501,1.0193,0.9689,0.9056,0.8674,0.0,0.0,0.0,0.9147,0.9648,0.9989,1.0233,1.0379,1.0566,1.0517,1.0257,0.9918,0.9649,0.9453,0.8906,0.7999,0.6765,0.0,0.0,0.6036,0.6694,0.7232,0.7692,0.8282,0.8649,0.8812,0.8511,0.8073,0.7543,0.7317,0.6976,0.644,0.6489,0.644,0.6258,0.6634,0.6912,0.0,0.0,0.0,0.0,0.0,0.0,0.0,0.0,0.0,0.0,0.0,0.7752,0.0,0.0,0.0,0.0,0.7872,0.8023,0.838,0.8791,0.0,0.0,0.0,0.0,0.0,0.0,0.0,0.9434,1.0224,1.0995,1.1677,1.14,1.1407,1.2018,1.1579,1.1201,1.1255,0.0,1.1472,1.1567,1.1944,1.2275,1.2291,1.2465,1.2772,1.34,1.3539,1.3517,1.3145,1.3138,1.3025,1.2458,1.1867,1.1283,1.0754,0.8886,0.756,0.7983,0.7694,0.7186,0.6819,0.681,0.6878,1.4156,1.3839,1.2353,1.1695,1.163,1.1622,1.163,1.1614,1.1435,1.1427,1.1516,1.1013,1.0745,1.0647,1.003,0.0,0.9933,1.0188,1.0314,1.0493,1.0842,1.0915,1.0745,1.0907,1.081,1.0423,1.0282,1.0006,0.9648,0.9053,0.856,0.8357,0.806,0.7612,0.7053,0.7525,0.7827,0.8016,0.8349,0.8601,0.8763,0.826,0.7821,0.7464,0.7285,0.6892,0.6383,0.657,0.683,0.7157,0.7259,0.7677,0.8498,0.0,0.0,0.0,0.0,0.0,0.0,0.0,0.0,0.0,0.0,0.0,0.0,0.0,0.0,0.0,0.7961,0.0,0.9202,0.9112,0.0,0.0,0.0,0.9983,1.0466,1.0327,1.0421,1.0942,0.0,0.0,1.2265,1.1891,1.1973,1.3121,1.218,1.1572,1.2063,1.1701,1.1511,1.1824,1.2329,1.2568,1.2398,1.2962,1.3566,1.4051,1.4405,1.4366,1.4568,1.4317,1.3736,1.3037,1.1772,1.0906,1.0796,0.9279,0.8078,0.882,0.8589,0.8089,0.7285,0.7065,0.7065,1.4927,1.4473,1.3953,1.3344,1.2718,1.2718,1.271,1.2702,1.2467,1.2328,1.2085,1.1695,1.1216,1.0688,1.0664,1.0526,1.0314,1.0631,1.0802,1.0867,1.1208,1.1273,1.1102,1.1143,1.1053,1.0834,1.0517,1.0249,1.003,0.9721,0.934,0.8926,0.8815,0.8258,0.7202,0.7442,0.7708,0.8008,0.8097,0.8235,0.8398,0.8024,0.765,0.7293,0.6985,0.657,0.6042,0.6319,0.6634,0.6967,0.7768,0.8224,0.8279,0.7898,0.0,0.0,0.0,0.0,0.0,0.0,0.0,0.0,0.0,0.7482,0.7211,0.0,0.8273,0.0,0.9286,0.9922,0.9897,1.0247,0.0,0.0,1.0157,1.0265,0.994,1.0621,1.1042,1.0995,1.1806,1.2529,1.2946,1.3041,1.329,1.3773,1.1846,1.0478,1.0796,1.0755,1.0954,1.1685,1.1804,1.1885,1.2519,1.2935,1.3275,1.3336,1.3553,1.3619,1.3471,1.3397,1.333,1.3458,1.34,1.2955,1.2024,1.1358,1.0411,0.9419,0.8265,0.7356,0.7143,0.7098,0.7098,1.5171,1.4806,1.4538,1.4099,1.3563,1.3409,1.3295,1.3206,1.3027,1.2791,1.2523,1.2247,1.1817,1.1305,1.1395,1.1289,1.1053,1.124,1.1388,1.1338,1.1533,1.1524,1.1346,1.1265,1.1135,1.102,1.0607,1.0379,1.0274,1.0014,0.9738,0.9445,0.9372,0.8869,0.7934,0.7878,0.7943,0.8138,0.8138,0.8187,0.8276,0.8016,0.7626,0.7123,0.6757,0.6286,0.5677,0.5809,0.5964,0.6115,0.7107,0.7666,0.7693,0.7734,0.7642,0.0,0.0,0.0,0.0,0.0,0.0,0.0,0.0,0.0,0.0,0.0,0.8978,0.8992,0.9658,1.0108,1.011,1.0408,1.0555,1.0474,1.0755,1.1002,1.1069,1.1623,1.2051,1.2158,1.2746,1.3253,1.3561,1.3363,1.3255,1.3464,1.1815,1.0931,1.1834,1.2034,1.2252,1.2741,1.2686,1.2662,1.3058,1.3214,1.3302,1.3272,1.3083,1.2897,1.2873,1.2525,1.2206,1.2049,1.2143,1.1877,1.0777,1.0324,0.9761,0.8774,0.7775,0.7194,0.7098,0.7098,0.7085,1.5082,1.4871,1.4513,1.4278,1.4115,1.3734,1.3506,1.3392,1.3206,1.3019,1.2758,1.267,1.2402,1.2069,1.206,1.1955,1.1837,1.1837,1.1837,1.1837,1.1837,1.1679,1.1492,1.1313,1.1135,1.1012,1.0623,1.0391,1.0387,1.0079,0.9884,0.9811,0.9665,0.9348,0.8869,0.8528,0.8325,0.826,0.8316,0.8349,0.8316,0.8032,0.7586,0.7004,0.6513,0.5947,0.5333,0.5289,0.5271,0.5275,0.6188,0.6934,0.7356,0.7623,0.7933,0.0,0.7973,0.0,0.0,0.0,0.0,0.0,0.0,0.0,0.0,0.9713,0.9766,0.9846,0.9812,0.99,1.0292,1.0381,1.0669,1.1402,1.1543,1.1864,1.2663,1.2811,1.3013,1.3533,1.364,1.3801,1.3986,1.3349,1.2869,1.2924,1.2334,1.2287,1.3633,1.3662,1.348,1.387,1.3886,1.3435,1.3285,1.3341,1.3421,1.3449,1.3128,1.2654,1.2899,1.2283,1.1456,1.0593,1.0549,1.0028,0.864,0.8332,0.812,0.7775,0.7415,0.7143,0.7098,0.7098,0.7051,1.483,1.4497,1.4148,1.3985,1.3912,1.3417,1.3352,1.3579,1.3401,1.3141,1.2774,1.28,1.2588,1.2264,1.2255,1.2077,1.1837,1.1837,1.1837,1.1837,1.1837,1.1679,1.1492,1.1313,1.1135,1.0964,1.0745,1.0493,1.0269,1.0196,0.9935,0.951,0.9421,0.9331,0.9047,0.0,0.0,0.0,0.8495,0.8658,0.8531,0.7657,0.7126,0.6971,0.6011,0.0,0.5157,0.5244,0.5514,0.5925,0.6815,0.0,0.0,0.0,0.0,0.0,0.0,0.0,0.0,0.0,0.0,0.0,1.0318,1.0074,0.9755,0.99,1.0234,1.0701,1.0929,1.1193,1.1516,1.1757,1.1957,1.2104,1.2131,1.2305,1.2744,1.2998,1.3267,1.356,1.3854,1.4015,1.4041,1.3913,1.3815,1.3747,1.3701,1.3701,1.3984,1.2899,1.2229,1.2772,1.2908,1.2589,1.2184,1.24,1.288,1.3367,1.3771,1.3694,1.3662,1.3591,1.3137,1.2057,1.2057,1.1456,0.9724,0.9288,0.893,0.8025,0.7584,0.737,0.7143,0.7092,0.7051,1.4757,0.0,1.4237,1.4058,0.0,1.3514,1.3417,1.349,1.3222,1.3011,1.2774,1.2766,1.2686,1.2434,1.2345,1.2158,1.1898,1.1817,1.1837,1.1828,1.1679,1.1589,1.1492,1.1224,1.1053,1.102,1.0777,1.0599,1.042,1.0294,1.0073,0.9804,0.9583,0.9445,0.9356,0.9219,0.8909,0.8292,0.8373,0.8471,0.858,0.7854,0.7429,0.7241,0.644,0.0,0.0,0.0,0.0,0.0,0.0,0.0,0.0,0.9313,0.0,1.0301,1.0224,1.0301,1.0715,1.0736,1.0955,1.1417,1.1457,1.1203,1.0595,1.0942,1.1316,1.161,1.177,1.1917,1.2064,1.2211,1.2305,1.2305,1.2305,1.2462,1.2744,1.2918,1.3132,1.3333,1.3561,1.3654,1.3654,1.3654,1.3654,1.3654,1.3654,1.3667,1.3599,1.3142,1.2887,1.3075,1.2905,1.2667,1.2386,1.2411,1.2644,1.3108,1.296,1.2924,1.315,1.2811,1.2331,1.1938,1.1929,1.1574,1.0582,0.9932,0.9383,0.8611,0.7903,0.7353,0.7125,0.7078,0.7031,1.4659,1.4335,1.431,1.4107,1.3798,1.362,1.3441,1.3254,0.0,0.0,0.0,1.2766,1.2718,1.2571,1.2369,1.219,1.1979,1.1841,1.1837,1.1768,1.1622,1.1516,1.1435,1.1151,1.1037,1.0915,1.0761,1.0655,1.059,1.0359,1.018,1.0046,0.977,0.9624,0.9575,0.9592,0.9275,0.8682,0.8357,0.8316,0.8588,0.8113,0.774,0.7447,0.6863,0.6408,0.6147,0.6145,0.6069,0.594,0.7022,0.7794,0.8067,0.9252,1.0154,1.0488,1.0728,1.1136,1.1623,1.1663,1.1891,1.2425,1.2465,1.2211,1.1623,1.2024,1.2305,1.2305,1.2305,1.2305,1.2305,1.2305,1.2305,1.2305,1.2345,1.2492,1.2757,1.2837,1.2959,1.316,1.3227,1.3213,1.3227,1.324,1.3213,1.3213,1.3253,1.3213,1.3267,1.3532,1.3609,1.3372,1.3134,1.2974,1.2759,1.2746,1.2784,1.2799,1.2286,1.1942,1.2188,1.1863,1.1467,1.1592,1.1498,1.1445,1.109,1.0453,0.9736,0.9237,0.8359,0.7595,0.7217,0.7168,0.7114,1.4302,1.3961,1.3744,1.3636,1.3433,1.3254,1.3076,1.2905,1.279,1.2766,1.2766,1.2766,1.2653,1.2345,1.2312,1.2125,1.1817,1.1784,1.1837,1.1837,1.1752,1.1565,1.1265,1.1208,1.1029,1.0745,1.0704,1.0534,1.031,1.0245,1.0006,0.9738,0.9657,0.9624,0.9616,0.947,0.9322,0.9023,0.8974,0.882,0.8604,0.7764,0.728,0.7228,0.6465,0.5977,0.5959,0.6599,0.6593,0.5979,0.7946,0.9048,0.8964,1.0326,1.1389,1.1944,1.2037,1.2211,1.2569,1.2596,1.2744,1.3039,1.308,1.2826,1.2251,1.2251,1.2305,1.2305,1.2331,1.2305,1.2305,1.2318,1.2318,1.2318,1.2569,1.2744,1.277,1.2985,1.3106,1.316,1.3213,1.3186,1.316,1.3173,1.3146,1.3186,1.3106,1.3173,1.316,1.3267,1.32,1.2998,1.2878,1.273,1.2492,1.2623,1.273,1.2784,1.2855,1.2805,1.2948,1.2956,1.2754,1.229,1.2343,1.2151,1.1531,1.1198,1.0682,0.989,0.9354,0.8777,0.7789,0.7619,0.7447,1.4513,1.4196,1.4107,1.3855,1.3498,1.3214,1.2994,1.2774,1.2766,1.2766,1.2766,1.2766,1.2743,1.2588,1.2393,1.2223,1.2052,1.1866,1.1837,1.1768,1.1671,1.1541,1.1362,1.1175,1.0997,1.0842,1.0737,1.0607,1.0452,1.0355,1.0176,0.9916,0.9721,0.9624,0.9624,0.9543,0.9413,0.9234,0.9047,0.882,0.8568,0.8065,0.7756,0.7611,0.7155,0.689,0.6792,0.7121,0.7328,0.744,0.8862,0.9823,1.0195,1.1431,1.2301,1.2556,1.2705,1.2852,1.3025,1.2999,1.3066,1.32,1.3213,1.3106,1.2826,1.2786,1.2786,1.2799,1.2761,1.2719,1.2559,1.2583,1.2516,1.2318,1.2462,1.2543,1.2518,1.2612,1.2705,1.2719,1.2719,1.2719,1.2719,1.2719,1.2719,1.2719,1.2719,1.2719,1.2732,1.2732,1.2732,1.277,1.265,1.2465,1.2331,1.2398,1.2529,1.2543,1.2625,1.2852,1.3093,1.32,1.316,1.3265,1.3255,1.31,1.2747,1.2357,1.1829,1.1238,0.9986,0.9108,0.837,0.7745,0.7126,1.4667,1.4375,1.4286,1.3969,1.3429,1.3173,1.2962,1.2774,1.2766,1.2766,1.2766,1.2766,1.2816,1.2743,1.2442,1.2288,1.2207,1.1922,1.1837,1.176,1.163,1.1541,1.1476,1.1208,1.1126,1.1013,1.0842,1.0729,1.068,1.0517,1.0322,1.0139,0.9778,0.9624,0.9624,0.9624,0.9543,0.9396,0.9039,0.8796,0.8625,0.8406,0.8219,0.8081,0.7902,0.7771,0.76,0.773,0.8022,0.8437,0.9528,1.0395,1.0856,1.2029,1.2717,1.2797,1.3012,1.3173,1.3293,1.3373,1.3414,1.3414,1.34,1.3414,1.3414,1.34,1.3347,1.324,1.3186,1.3093,1.2931,1.2891,1.2797,1.2532,1.2572,1.2585,1.2438,1.2465,1.2438,1.2358,1.2305,1.2318,1.2305,1.2305,1.2331,1.2345,1.2305,1.2305,1.2305,1.2305,1.2412,1.2556,1.2476,1.2331,1.2305,1.2318,1.2318,1.2305,1.2133,1.2306,1.2646,1.2621,1.2792,1.338,1.3524,1.3522,1.3873,1.3519,1.288,1.2332,1.1149,0.9977,0.9413,0.8228,0.7115,1.4375,1.4164,1.3888,1.3498,1.3157,1.2954,1.279,1.2774,1.2766,1.2766,1.2766,1.2766,1.2743,1.258,1.2402,1.2231,1.2069,1.1866,1.1837,1.1837,1.176,1.1663,1.1516,1.1459,1.1362,1.12,1.1021,1.0914,1.0704,1.0517,1.0266,0.9925,0.9721,0.9632,0.9632,0.9632,0.9535,0.9404,0.9216,0.8982,0.8742,0.8471,0.8284,0.8268,0.8089,0.791,0.778,0.8475,0.8464,0.788,0.9765,1.0669,1.0282,1.1515,1.2478,1.277,1.2824,1.3013,1.3507,1.3854,1.3975,1.4043,1.3975,1.4017,1.3975,1.3988,1.3774,1.3373,1.3227,1.324,1.3173,1.3173,1.3133,1.3066,1.3227,1.328,1.2878,1.2959,1.2919,1.2345,1.2318,1.2305,1.2305,1.2305,1.2305,1.2305,1.2305,1.2305,1.2305,1.2305,1.2305,1.2345,1.2318,1.2318,1.2305,1.2305,1.2305,1.2268,1.17,1.1789,1.2131,1.1782,1.1324,1.3079,1.3023,1.3113,1.3762,1.3955,1.3548,1.2692,1.2115,1.1809,1.0856,0.9387,0.8144,1.4432,1.4164,1.4026,1.3685,1.3254,1.2954,1.2766,1.2766,1.2766,1.2766,1.2766,1.2766,1.2791,1.271,1.254,1.2361,1.2182,1.2012,1.1866,1.1784,1.1837,1.1736,1.1663,1.1549,1.1451,1.1378,1.1208,1.1029,1.0834,1.0574,1.0302,1.0193,0.9925,0.9778,0.977,0.9681,0.9542,0.951,0.934,0.9208,0.8966,0.8633,0.8406,0.8292,0.8211,0.8097,0.7967,0.8267,0.8426,0.8555,0.9449,1.0315,1.0992,1.1851,1.258,1.32,1.344,1.3641,1.3881,1.4028,1.4082,1.4082,1.4082,1.4082,1.4082,1.4082,1.3975,1.3788,1.3734,1.3667,1.3494,1.3427,1.336,1.3267,1.332,1.3293,1.3105,1.3012,1.2851,1.2623,1.2398,1.2305,1.2305,1.2305,1.2305,1.2305,1.2305,1.2305,1.2305,1.2305,1.2305,1.2305,1.2305,1.2305,1.2305,1.2305,1.2305,1.2231,1.2046,1.2059,1.2231,1.1652,1.1438,1.2936,1.266,1.2762,1.3622,1.3416,1.3057,1.2457,1.1294,1.0564,1.0069,0.8946,0.7988,1.4456,1.418,1.4075,1.375,1.3279,1.3019,1.2881,1.2774,1.2766,1.2766,1.2766,1.2766,1.2766,1.2742,1.2645,1.2491,1.2353,1.2134,1.1971,1.1849,1.1801,1.1837,1.176,1.1646,1.1573,1.1549,1.1386,1.1183,1.0956,1.0664,1.0431,1.0396,1.0111,0.9941,0.9876,0.9754,0.9673,0.9567,0.9445,0.9339,0.9192,0.8869,0.8645,0.839,0.8365,0.8276,0.8097,0.8089,0.8304,0.8828,0.9073,0.9887,1.1353,1.1892,1.2597,1.349,1.3921,1.4082,1.4082,1.4082,1.4082,1.4082,1.4082,1.4082,1.4082,1.4082,1.4082,1.4068,1.4082,1.3961,1.3773,1.372,1.3626,1.348,1.3454,1.3427,1.3333,1.3106,1.2985,1.2797,1.2596,1.2385,1.2331,1.2305,1.2305,1.2305,1.2305,1.2305,1.2305,1.2305,1.2305,1.2305,1.2305,1.2305,1.2305,1.2305,1.2305,1.2231,1.212,1.2,1.241,1.1615,1.1487,1.2607,1.2286,1.2566,1.3568,1.3374,1.2673,1.2105,1.1098,0.9938,0.9908,0.8604,0.8392,1.4343,1.4131,1.3815,1.3474,1.3108,1.3084,1.2986,1.2766,1.2766,1.2766,1.2766,1.2766,1.2766,1.2758,1.2653,1.2628,1.2571,1.219,1.2028,1.1987,1.1849,1.1837,1.1837,1.1828,1.182,1.1727,1.1573,1.1313,1.1037,1.0777,1.0599,1.0383,1.0249,1.0063,0.9925,0.9876,0.9786,0.9575,0.9462,0.9404,0.9363,0.9161,0.8947,0.8733,0.8604,0.8463,0.83,0.8318,0.8287,0.8065,0.8896,0.9745,1.0668,1.1468,1.246,1.3477,1.3935,1.4082,1.4082,1.4082,1.4082,1.4082,1.4082,1.4082,1.4082,1.4082,1.4082,1.4082,1.4082,1.4068,1.4041,1.4015,1.4015,1.4001,1.4015,1.3881,1.3613,1.3561,1.332,1.2971,1.2811,1.2663,1.2371,1.2305,1.2318,1.2318,1.2305,1.2305,1.2305,1.2305,1.2305,1.2305,1.2305,1.2305,1.2305,1.2305,1.2305,1.2231,1.1972,1.1527,1.1502,1.155,1.2015,1.2293,1.2203,1.2588,1.355,1.3579,1.2814,1.2187,1.156,1.0779,1.0229,0.927,0.8955,1.4164,1.3977,1.3742,1.3498,1.3271,1.3149,1.2994,1.2774,1.2766,1.2766,1.2766,1.2766,1.2766,1.2766,1.2767,1.2678,1.2612,1.2312,1.2142,1.202,1.1857,1.1837,1.1837,1.1837,1.1837,1.1768,1.1703,1.1484,1.1126,1.0842,1.0664,1.0582,1.0428,1.0241,1.0071,0.9992,0.9803,0.9591,0.9559,0.9478,0.9412,0.9339,0.9465,0.9813,0.9095,0.8649,0.8471,0.9018,0.9284,0.9213,1.0054,1.0984,1.1908,1.2796,1.3428,1.388,1.4028,1.4082,1.4082,1.4082,1.4082,1.4082,1.4082,1.4082,1.4082,1.4082,1.4082,1.4082,1.4082,1.4082,1.4082,1.4082,1.4082,1.4082,1.4082,1.4041,1.3921,1.372,1.3507,1.3333,1.3173,1.2919,1.2717,1.2623,1.2543,1.2345,1.2305,1.2305,1.2305,1.2305,1.2305,1.2305,1.2305,1.2305,1.2305,1.2305,1.2305,1.2231,1.2083,1.2046,1.1987,1.1515,1.1714,1.226,1.2244,1.2368,1.316,1.296,1.2332,1.1523,1.0987,1.0975,1.0659,0.9477,0.9178,1.4018,1.3888,1.3774,1.3628,1.3441,1.3262,1.3084,1.2921,1.2865,1.2766,1.2766,1.2766,1.2766,1.2766,1.2766,1.2775,1.2629,1.2418,1.2239,1.2101,1.1882,1.1837,1.1837,1.1837,1.1837,1.176,1.1711,1.1516,1.1224,1.0923,1.0753,1.0688,1.0574,1.0396,1.0176,1.009,0.9868,0.9681,0.992,1.0089,1.0026,1.0298,1.0677,1.1032,1.0426,0.9867,0.9677,1.011,1.0332,1.0419,1.0982,1.1714,1.2668,1.3616,1.4082,1.4082,1.4082,1.4082,1.4082,1.4082,1.4082,1.4082,1.4082,1.4082,1.4082,1.4082,1.4082,1.4082,1.4082,1.4082,1.4082,1.4082,1.4082,1.4082,1.4082,1.4082,1.4082,1.3908,1.372,1.356,1.336,1.312,1.2971,1.2851,1.2703,1.2502,1.2371,1.2305,1.2305,1.2305,1.2305,1.2305,1.2305,1.2305,1.2305,1.2305,1.2305,1.2268,1.2231,1.2268,1.2194,1.1713,1.1639,1.214,1.2357,1.2374,1.2312,1.2158,1.1629,1.0841,1.069,1.0781,1.02,0.9496,0.9247,1.3904,1.3896,1.3896,1.3774,1.3579,1.3417,1.3254,1.3043,1.2905,1.2766,1.2766,1.2766,1.2766,1.2766,1.2766,1.2766,1.2751,1.2458,1.2312,1.2272,1.1939,1.1784,1.1801,1.1784,1.1837,1.1768,1.1598,1.1411,1.1216,1.1029,1.0858,1.072,1.068,1.0501,1.0228,1.0196,1.0033,0.9962,1.0609,1.1121,1.1317,1.1968,1.2395,1.2487,1.2386,1.2159,1.1837,1.1511,1.1348,1.1327,1.1413,1.18,1.2784,1.3616,1.4082,1.4082,1.4082,1.4095,1.4108,1.4095,1.4095,1.4122,1.4095,1.4082,1.4082,1.4082,1.4082,1.4082,1.4082,1.4082,1.4082,1.4082,1.4082,1.4082,1.4082,1.4082,1.4082,1.4082,1.3975,1.3666,1.3427,1.3253,1.316,1.3012,1.2824,1.2717,1.2465,1.2305,1.2305,1.2305,1.2305,1.2305,1.2305,1.2305,1.2305,1.2305,1.2305,1.2305,1.2305,1.2305,1.2305,1.1972,1.2037,1.2414,1.2454,1.2447,1.2447,1.2283,1.208,1.1461,1.1176,1.0773,1.0252,0.9735,0.9182,1.3904,1.3904,1.3904,1.3725,1.3474,1.3392,1.3206,1.2929,1.279,1.2766,1.2766,1.2766,1.2766,1.2766,1.2766,1.2766,1.2742,1.2483,1.2369,1.2393,1.1996,1.1841,1.1914,1.1833,1.1837,1.1744,1.1589,1.1403,1.1224,1.1045,1.0875,1.0729,1.0688,1.0574,1.0347,1.0277,1.0339,1.0815,1.1049,1.1512,1.2145,1.2533,1.3032,1.3624,1.3496,1.3574,1.3937,1.3065,1.2458,1.2295,1.2881,1.3349,1.3659,1.3913,1.4082,1.4082,1.4082,1.4188,1.4335,1.4215,1.4202,1.4309,1.4215,1.4095,1.4082,1.4108,1.4108,1.4095,1.4082,1.4082,1.4082,1.4082,1.4095,1.4082,1.4082,1.4082,1.4082,1.4082,1.4041,1.3975,1.3868,1.3734,1.3467,1.3253,1.3038,1.2837,1.2556,1.2331,1.2318,1.2318,1.2305,1.2305,1.2305,1.2305,1.2305,1.2305,1.2305,1.2305,1.2305,1.2305,1.2305,1.2318,1.2385,1.2425,1.2465,1.2478,1.2502,1.2414,1.2138,1.2125,1.1888,1.1351,1.0697,1.0186,0.9771,1.3904,1.3904,1.3904,1.3742,1.3474,1.3401,1.3206,1.2946,1.2865,1.2766,1.2766,1.2766,1.2766,1.2766,1.2766,1.2766,1.2742,1.2532,1.2499,1.2548,1.2036,1.1882,1.1987,1.1857,1.1837,1.1744,1.1589,1.1403,1.1216,1.1053,1.0875,1.072,1.0688,1.0607,1.0436,1.0302,1.0578,1.129,1.1619,1.2242,1.3162,1.3644,1.4184,1.4746,1.4644,1.4743,1.5046,1.434,1.3762,1.3534,1.3943,1.4202,1.4108,1.4188,1.4242,1.4269,1.4362,1.4509,1.4643,1.4579,1.4482,1.4616,1.4522,1.4429,1.4416,1.4416,1.4416,1.4459,1.4472,1.4362,1.4282,1.4242,1.4202,1.4095,1.4082,1.4082,1.4082,1.4082,1.4082,1.4068,1.4068,1.3988,1.3814,1.352,1.332,1.308,1.277,1.2502,1.2438,1.2371,1.2345,1.2318,1.2305,1.2305,1.2305,1.2305,1.2305,1.2305,1.2305,1.2305,1.2305,1.2305,1.2345,1.2345,1.2371,1.2385,1.2385,1.2358,1.222,1.2331,1.2412,1.1929,1.1328,1.1004,1.0456,1.3904,1.3904,1.3904,1.3782,1.3587,1.3441,1.3246,1.3051,1.2905,1.2766,1.2766,1.2766,1.2766,1.2766,1.2766,1.2766,1.2734,1.2637,1.2629,1.2661,1.237,1.2159,1.1955,1.1841,1.1837,1.1812,1.1614,1.1435,1.1265,1.1094,1.0947,1.0745,1.0704,1.0623,1.0522,1.0326,1.0871,1.169,1.2407,1.3352,1.4352,1.5153,1.5689,1.5689,1.5663,1.5564,1.5345,1.5219,1.4993,1.4585,1.4506,1.4442,1.4269,1.4402,1.4549,1.4563,1.4803,1.4955,1.5008,1.4941,1.4955,1.4963,1.4968,1.5008,1.4928,1.4888,1.4888,1.4901,1.4928,1.4803,1.4603,1.4549,1.4429,1.4175,1.4108,1.4095,1.4082,1.4082,1.4082,1.4082,1.4082,1.4082,1.4028,1.3788,1.3586,1.3453,1.3106,1.2878,1.2757,1.2599,1.2385,1.2345,1.2371,1.2305,1.2305,1.2305,1.2305,1.2305,1.2305,1.2305,1.2358,1.2371,1.2412,1.2398,1.2425,1.2398,1.2398,1.2465,1.2505,1.2572,1.25,1.226,1.2016,1.1717,1.1222,1.3904,1.3904,1.3904,1.3725,1.3457,1.3384,1.3189,1.2921,1.2865,1.2766,1.2766,1.2766,1.2766,1.2766,1.2766,1.2766,1.2726,1.2653,1.2661,1.2873,1.3518,1.2882,1.2056,1.1869,1.1845,1.1897,1.1788,1.1614,1.1419,1.1298,1.1118,1.0899,1.0927,1.0781,1.0707,1.1336,1.204,1.2842,1.3712,1.451,1.5239,1.5594,1.5784,1.5832,1.5832,1.5685,1.5431,1.5391,1.5231,1.4941,1.4888,1.4861,1.4723,1.4803,1.4843,1.487,1.4981,1.5084,1.5204,1.5097,1.5084,1.5231,1.5124,1.5022,1.5008,1.5022,1.5022,1.5008,1.5008,1.4995,1.487,1.4843,1.4696,1.4442,1.4229,1.4108,1.4082,1.4082,1.4082,1.4082,1.4082,1.4082,1.4028,1.3868,1.364,1.3573,1.3373,1.3119,1.3026,1.2824,1.2559,1.2556,1.2543,1.2371,1.2305,1.2305,1.2305,1.2305,1.2305,1.2318,1.2398,1.2505,1.2623,1.2677,1.2786,1.2812,1.2812,1.2891,1.2866,1.2826,1.2775,1.2674,1.2635,1.2397,1.1988,1.3904,1.3904,1.3904,1.3742,1.349,1.3409,1.3206,1.297,1.2798,1.2766,1.2766,1.2766,1.2766,1.2766,1.2766,1.2766,1.2816,1.2726,1.2743,1.2964,1.3934,1.4126,1.3708,1.3276,1.2865,1.2665,1.2187,1.1736,1.1643,1.1845,1.1725,1.1383,1.1897,1.2019,1.1538,1.2379,1.332,1.4059,1.4583,1.5095,1.5936,1.5838,1.5832,1.5832,1.5818,1.5678,1.5591,1.5578,1.5431,1.5177,1.511,1.5124,1.5084,1.5169,1.5182,1.515,1.5303,1.5418,1.5498,1.5404,1.5418,1.5524,1.5404,1.5351,1.5351,1.5324,1.5324,1.5351,1.5324,1.5271,1.5196,1.5089,1.483,1.4549,1.4362,1.4229,1.4108,1.4082,1.4082,1.4082,1.4082,1.4082,1.4082,1.3921,1.3854,1.3788,1.356,1.3413,1.3307,1.3013,1.2811,1.2784,1.261,1.2398,1.2331,1.2318,1.2305,1.2305,1.2371,1.2371,1.2583,1.2717,1.2824,1.2958,1.3093,1.3213,1.3186,1.3133,1.3066,1.3053,1.3105,1.3134,1.312,1.3118,1.27,1.3904,1.3904,1.3904,1.3807,1.362,1.3449,1.3254,1.3076,1.317,1.3161,1.3161,1.3227,1.3613,1.3227,1.3416,1.3095,1.3095,1.2882,1.321,1.3692,1.464,1.5519,1.6739,1.5174,1.4508,1.4208,1.3031,1.2604,1.2729,1.332,1.2846,1.2484,1.3689,1.3737,1.3148,1.3688,1.4594,1.5068,1.5267,1.5568,1.6139,1.6072,1.5939,1.5925,1.5845,1.5832,1.5792,1.5778,1.5611,1.5278,1.5391,1.5404,1.5291,1.5404,1.5431,1.5471,1.5618,1.5765,1.5805,1.5765,1.5792,1.5778,1.5792,1.5832,1.5752,1.5725,1.5725,1.5712,1.5818,1.5658,1.5458,1.5204,1.4963,1.475,1.4629,1.4429,1.4215,1.4108,1.4082,1.4082,1.4082,1.4082,1.4082,1.4082,1.4068,1.3961,1.3801,1.3693,1.3547,1.3333,1.312,1.3038,1.2784,1.2398,1.2358,1.2345,1.2318,1.2318,1.2425,1.2543,1.2784,1.2931,1.3052,1.316,1.3414,1.3494,1.3454,1.3387,1.3307,1.34,1.3507,1.3601,1.3625,1.369,1.348,1.3904,1.3904,1.3904,1.3807,1.3628,1.3449,1.3271,1.3218,1.4086,1.4324,1.4651,1.5554,1.5944,1.5944,1.4912,1.4455,1.4324,1.3678,1.3875,1.6063,1.6291,1.7972,1.8959,1.736,1.6073,1.5824,1.5638,1.5227,1.5113,1.4875,1.4934,1.4489,1.4657,1.4643,1.4362,1.5135,1.5583,1.564,1.6164,1.6504,1.6481,1.6339,1.6166,1.6139,1.5939,1.5832,1.5832,1.5832,1.5792,1.5691,1.5712,1.5685,1.5624,1.5698,1.5698,1.5712,1.5765,1.5832,1.5832,1.5832,1.5832,1.5832,1.5832,1.5832,1.5832,1.5832,1.5832,1.5832,1.5818,1.5744,1.5651,1.5471,1.5271,1.5137,1.4977,1.475,1.4469,1.4229,1.4122,1.4095,1.4082,1.4082,1.4082,1.4082,1.4082,1.4124,1.4041,1.4001,1.3814,1.3587,1.3427,1.3253,1.2959,1.2652,1.2556,1.2516,1.2438,1.2478,1.2572,1.2759,1.2999,1.3133,1.3267,1.3494,1.3761,1.3774,1.3707,1.3654,1.3574,1.3761,1.3895,1.3908,1.3948,1.4108,1.4093,1.3904,1.3904,1.3904,1.3847,1.3734,1.349,1.3721,1.4177,1.464,1.5294,1.5944,1.6721,1.698,1.698,1.6268,1.5879,1.5749,1.5229,1.5879,1.756,1.7999,1.91,2.05,1.9537,1.8316,1.7564,1.6622,1.6263,1.6095,1.6343,1.6074,1.5572,1.6229,1.6275,1.5704,1.649,1.6794,1.6611,1.6885,1.7112,1.6951,1.6633,1.638,1.6246,1.5992,1.5832,1.5832,1.5832,1.5832,1.5832,1.5832,1.5832,1.5832,1.5832,1.5832,1.5832,1.5832,1.5832,1.5832,1.5832,1.5832,1.5832,1.5832,1.5832,1.5832,1.5832,1.5832,1.5832,1.5832,1.5818,1.5771,1.5725,1.5565,1.5391,1.5271,1.5089,1.4763,1.4469,1.4215,1.4135,1.4082,1.4082,1.4082,1.4082,1.4082,1.4082,1.4082,1.4028,1.3961,1.3761,1.36,1.3454,1.3173,1.2933,1.2784,1.269,1.2623,1.2717,1.2864,1.3066,1.3293,1.34,1.348,1.3774,1.4015,1.4001,1.3948,1.3895,1.3868,1.3935,1.4015,1.4068,1.4095,1.4135,1.4122,1.4252,1.4252,1.4252,1.4252,1.4131,1.3694,1.4139,1.519,1.5318,1.6124,1.7238,1.7496,1.8011,1.7689,1.7431,1.7238,1.6915,1.698,1.7431,1.8588,1.878,1.9686,2.0703,2.07,2.0155,1.9062,1.8093,1.7291,1.7294,1.7446,1.7612,1.6681,1.7905,1.7994,1.7257,1.7492,1.7821,1.7503,1.7343,1.73,1.7219,1.6927,1.6647,1.638,1.6005,1.5851,1.5899,1.5885,1.5832,1.5832,1.5832,1.5832,1.5832,1.5832,1.5832,1.5832,1.5832,1.5832,1.5832,1.5832,1.5832,1.5832,1.5832,1.5832,1.5832,1.5832,1.5832,1.5832,1.5832,1.5832,1.5832,1.5792,1.5685,1.5538,1.5471,1.5324,1.507,1.479,1.4576,1.4242,1.4215,1.4215,1.4135,1.4082,1.4082,1.4082,1.4082,1.4068,1.4001,1.3948,1.3828,1.3666,1.3454,1.3173,1.2973,1.2945,1.2878,1.2958,1.308,1.332,1.3586,1.3773,1.388,1.4041,1.4188,1.4188,1.4202,1.4175,1.4148,1.4135,1.4148,1.4215,1.4188,1.4135,1.4122,1.5735,1.5735,1.5735,1.5735,1.5486,1.4238,1.4457,1.544,1.6517,1.7543,1.8728,1.9814,2.0208,2.0005,1.91,1.8139,1.756,1.756,1.8011,1.8972,1.9228,1.9941,2.0856,2.1096,2.0866,2.079,2.0079,1.9787,1.9658,2.0073,1.9279,1.9114,1.9305,1.9047,1.8529,1.8488,1.825,1.7876,1.7649,1.7515,1.7408,1.7233,1.6914,1.6607,1.6131,1.6032,1.6086,1.5965,1.5832,1.5832,1.5832,1.5832,1.5832,1.5832,1.5832,1.5832,1.5832,1.5832,1.5832,1.5832,1.5832,1.5832,1.5832,1.5832,1.5832,1.5832,1.5832,1.5832,1.5832,1.5832,1.5832,1.5832,1.5818,1.5752,1.5698,1.5618,1.5391,1.5231,1.5003,1.4603,1.4482,1.4362,1.4242,1.4135,1.4082,1.4082,1.4082,1.4082,1.4055,1.4041,1.4015,1.3895,1.3761,1.3467,1.32,1.3173,1.3146,1.3213,1.3347,1.3507,1.3773,1.4133,1.4306,1.4335,1.4376,1.4416,1.4429,1.4389,1.4282,1.4148,1.4242,1.4349,1.4229,1.4135,1.4175,1.7268,1.7268,1.7268,1.7268,1.7157,1.6341,1.6608,1.7669,1.8226,1.903,2.0017,2.0779,2.1109,2.0919,2.0462,1.9686,1.924,1.91,1.9495,2.0081,2.0144,2.0335,2.1046,2.1109,2.1109,2.1032,2.1082,2.0962,2.0681,2.042,2.0321,2.0007,1.9893,1.9573,1.9185,1.8795,1.8477,1.8075,1.7903,1.7742,1.7582,1.7353,1.7112,1.686,1.6526,1.6313,1.6206,1.6166,1.5979,1.5858,1.5832,1.5832,1.5832,1.5832,1.5832,1.5832,1.5832,1.5832,1.5832,1.5832,1.5832,1.5832,1.5832,1.5832,1.5832,1.5832,1.5832,1.5832,1.5832,1.5832,1.5832,1.5832,1.5832,1.5832,1.5832,1.5765,1.5671,1.5631,1.5351,1.4963,1.471,1.4522,1.4362,1.4242,1.4122,1.4082,1.4082,1.4082,1.4082,1.4082,1.4082,1.4001,1.3868,1.3694,1.3467,1.3454,1.344,1.3507,1.3641,1.3773,1.3959,1.4306,1.4426,1.4469,1.4522,1.4736,1.4442,1.4322,1.4242,1.4188,1.4215,1.4242,1.4175,1.4148,1.4242,1.8879,1.8868,1.8879,1.8868,1.8776,1.8335,1.8698,1.9645,1.9561,2.0063,2.0996,2.1109,2.1109,2.1109,2.1109,2.0969,2.1109,2.0969,2.0919,2.0919,2.0982,2.1046,2.1109,2.1109,2.1109,2.1109,2.1096,2.0989,2.0815,2.0628,2.0441,2.0267,2.004,1.9746,1.9452,1.9065,1.8637,1.8328,1.8089,1.7969,1.7675,1.7393,1.7246,1.7233,1.6901,1.6607,1.6576,1.6362,1.6152,1.5979,1.5824,1.5832,1.5832,1.5832,1.5832,1.5832,1.5832,1.5832,1.5832,1.5832,1.5832,1.5832,1.5832,1.5832,1.5832,1.5832,1.5832,1.5832,1.5832,1.5832,1.5832,1.5832,1.5832,1.5832,1.5832,1.5818,1.5805,1.5765,1.5685,1.5324,1.495,1.4683,1.4522,1.4242,1.4108,1.4082,1.4082,1.4082,1.4082,1.4082,1.4082,1.4028,1.3948,1.3841,1.3748,1.3748,1.3734,1.3761,1.3948,1.4148,1.4322,1.4522,1.4589,1.471,1.503,1.5137,1.471,1.4376,1.4416,1.4402,1.4242,1.4202,1.4269,1.4376,1.4496,2.0352,2.0352,2.0352,2.034,2.0132,1.9033,1.8981,1.9802,1.9851,2.0291,2.1109,2.1109,2.1109,2.1109,2.1109,2.1109,2.1109,2.1109,2.1109,2.1109,2.1109,2.1109,2.1109,2.1109,2.1109,2.1109,2.1109,2.1096,2.1002,2.0949,2.0842,2.0615,2.0334,2.004,1.9733,1.9292,1.8848,1.8715,1.8544,1.8277,1.7956,1.7475,1.7434,1.7341,1.7088,1.682,1.6962,1.6666,1.6321,1.6241,1.5952,1.5845,1.5832,1.5832,1.5832,1.5832,1.5832,1.5832,1.5832,1.5832,1.5832,1.5832,1.5832,1.5832,1.5832,1.5832,1.5832,1.5832,1.5832,1.5832,1.5832,1.5832,1.5832,1.5832,1.5832,1.5832,1.5832,1.5818,1.5718,1.5611,1.5257,1.4923,1.4683,1.4362,1.4082,1.4082,1.4082,1.4095,1.4082,1.4082,1.4082,1.4055,1.4055,1.3975,1.4028,1.4041,1.4095,1.4068,1.4269,1.4482,1.4603,1.475,1.4923,1.5097,1.5404,1.5444,1.503,1.479,1.4736,1.4629,1.4509,1.4469,1.4439,1.4603,1.478,2.1885,2.1885,2.1885,2.1885,2.179,2.1021,2.0804,2.0946,2.0874,2.0916,2.1099,2.1109,2.1109,2.1109,2.1109,2.1109,2.1109,2.1109,2.1109,2.1109,2.1109,2.1109,2.1109,2.1109,2.1109,2.1109,2.1109,2.1109,2.1109,2.1096,2.1015,2.0895,2.0628,2.0334,2.004,1.9626,1.9252,1.8945,1.8651,1.8437,1.8223,1.7903,1.7702,1.7769,1.7422,1.7338,1.7265,1.7032,1.6679,1.653,1.6184,1.594,1.5832,1.5832,1.5832,1.5832,1.5832,1.5832,1.5832,1.5832,1.5832,1.5832,1.5832,1.5832,1.5832,1.5832,1.5832,1.5832,1.5832,1.5832,1.5832,1.5832,1.5832,1.5832,1.5832,1.5832,1.5832,1.5832,1.5792,1.5698,1.5591,1.5271,1.495,1.4656,1.4389,1.4282,1.4202,1.4122,1.4108,1.4082,1.4082,1.4082,1.4108,1.4122,1.4255,1.4335,1.4482,1.4509,1.4616,1.479,1.4856,1.5048,1.5223,1.5297,1.5471,1.5418,1.5276,1.5137,1.5044,1.491,1.4821,1.4776,1.4776,1.4803,1.4995,2.2859,2.2859,2.2859,2.2887,2.2739,2.2512,2.2138,2.1857,2.1657,2.139,2.1162,2.1109,2.1109,2.1109,2.1109,2.1109,2.1109,2.1109,2.1109,2.1109,2.1109,2.1109,2.1109,2.1109,2.1109,2.1109,2.1109,2.1109,2.1109,2.1096,2.1096,2.1082,2.0775,2.0561,2.0334,2.0013,1.9666,1.9239,1.8931,1.8731,1.8557,1.829,1.817,1.8063,1.797,1.7859,1.7784,1.7516,1.72,1.6949,1.6518,1.6245,1.6027,1.5885,1.5832,1.5832,1.5879,1.5927,1.5879,1.5879,1.5832,1.5832,1.5832,1.5832,1.5832,1.5832,1.5832,1.5832,1.5832,1.5832,1.5832,1.5832,1.5832,1.5832,1.5832,1.5832,1.5832,1.5832,1.5832,1.5778,1.5698,1.5631,1.5311,1.5003,1.475,1.4536,1.4362,1.4215,1.4215,1.4229,1.4365,1.4432,1.4459,1.4456,1.4549,1.4683,1.4816,1.4923,1.5017,1.5084,1.5137,1.5271,1.5444,1.5538,1.5591,1.5591,1.5511,1.5431,1.5337,1.519,1.507,1.507,1.5084,1.5156,1.5236,2.2859,2.2859,2.2859,2.2699,2.2458,2.2432,2.2084,2.1695,2.1628,2.1427,2.1122,2.1109,2.1109,2.1109,2.1109,2.1109,2.1109,2.1109,2.1109,2.1109,2.1109,2.1109,2.1109,2.1109,2.1109,2.1109,2.1109,2.1109,2.1109,2.1109,2.1109,2.1069,2.0869,2.0722,2.0521,2.0267,2.0013,1.9653,1.9386,1.9132,1.8918,1.8651,1.8464,1.8452,1.8455,1.8413,1.8426,1.8057,1.7761,1.7525,1.707,1.6545,1.6284,1.6155,1.6027,1.6021,1.617,1.6252,1.6211,1.6001,1.5832,1.5832,1.5832,1.5832,1.5832,1.5832,1.5832,1.5832,1.5832,1.5832,1.5832,1.5832,1.5832,1.5832,1.5832,1.5832,1.5832,1.5832,1.5832,1.5832,1.5778,1.5712,1.5671,1.5351,1.4963,1.4736,1.4522,1.4362,1.4536,1.4589,1.478,1.4861,1.4888,1.4914,1.4941,1.5035,1.5057,1.5177,1.5284,1.5337,1.5378,1.5538,1.5658,1.5698,1.5725,1.5765,1.5718,1.5618,1.5498,1.5418,1.5364,1.5364,1.5404,1.5458,1.5551,2.2752,2.2592,2.2592,2.2525,2.2392,2.2031,2.1764,2.1601,2.1363,2.1229,2.1109,2.1109,2.1109,2.1109,2.1109,2.1109,2.1109,2.1109,2.1109,2.1109,2.1109,2.1109,2.1109,2.1109,2.1109,2.1109,2.1109,2.1109,2.1109,2.1109,2.1109,2.1056,2.0962,2.0828,2.0655,2.0441,2.0214,2.004,1.98,1.9559,1.9412,1.8998,1.8758,1.8731,1.8523,1.8603,1.8679,1.8386,1.8226,1.7992,1.7668,1.7183,1.6723,1.657,1.6489,1.6408,1.6621,1.6732,1.6649,1.6334,1.5974,1.5832,1.5832,1.5832,1.5832,1.5832,1.5832,1.5832,1.5832,1.5832,1.5832,1.5832,1.5832,1.5832,1.5832,1.5832,1.5832,1.5832,1.5832,1.5832,1.5832,1.5792,1.5718,1.5664,1.5297,1.4923,1.471,1.4589,1.4776,1.4923,1.5057,1.5169,1.5169,1.5223,1.5249,1.5244,1.5284,1.5418,1.5538,1.5565,1.5591,1.5671,1.5778,1.5818,1.5832,1.5818,1.5778,1.5725,1.5658,1.5605,1.5618,1.5611,1.5664,1.5704,1.5744,2.2605,2.2405,2.2231,2.2164,2.2111,2.1789,2.1561,2.139,2.1203,2.1109,2.1109,2.1109,2.1109,2.1109,2.1109,2.1109,2.1109,2.1109,2.1109,2.1109,2.1109,2.1109,2.1109,2.1109,2.1109,2.1109,2.1109,2.1109,2.1109,2.1109,2.1109,2.1109,2.1096,2.0962,2.0828,2.0615,2.0454,2.0321,2.0094,1.9867,1.9733,1.9332,1.9109,1.9169,1.9029,1.9167,1.9257,1.9141,1.885,1.8611,1.8238,1.7746,1.7371,1.7167,1.7139,1.7112,1.721,1.7351,1.7176,1.6731,1.6285,1.6163,1.5974,1.5974,1.5927,1.5879,1.5832,1.5832,1.5832,1.5832,1.5845,1.5832,1.5832,1.5832,1.5832,1.5832,1.5832,1.5832,1.5832,1.5832,1.5832,1.5818,1.5752,1.5651,1.5471,1.5164,1.5084,1.499,1.507,1.5217,1.5324,1.5364,1.5351,1.5418,1.5484,1.5511,1.5538,1.5591,1.5698,1.5738,1.5778,1.5832,1.5832,1.5832,1.5832,1.5832,1.5805,1.5765,1.5778,1.5805,1.5805,1.5731,1.5731,1.5792,1.5805,2.2405,2.2352,2.1882,2.1655,2.1668,2.1628,2.139,2.1176,2.1122,2.1109,2.1109,2.1109,2.1109,2.1109,2.1109,2.1109,2.1109,2.1109,2.1109,2.1109,2.1109,2.1109,2.1109,2.1109,2.1109,2.1109,2.1109,2.1109,2.1109,2.1109,2.1109,2.1109,2.1096,2.1082,2.1082,2.1082,2.0922,2.0668,2.0374,2.012,1.9893,1.9573,1.9502,1.9669,1.9624,1.9682,1.9832,1.9744,1.9478,1.9161,1.8763,1.8309,1.7899,1.7731,1.766,1.759,1.7768,1.7868,1.7832,1.7069,1.6714,1.6578,1.6368,1.6334,1.6184,1.6075,1.6,1.6142,1.5939,1.5899,1.5824,1.5832,1.5845,1.5939,1.5965,1.5912,1.5925,1.5925,1.5952,1.5858,1.5832,1.5805,1.5725,1.5631,1.5524,1.5391,1.5391,1.5391,1.5404,1.5458,1.5565,1.5578,1.5551,1.5605,1.5671,1.5738,1.5792,1.5832,1.5832,1.5832,1.5832,1.5832,1.5832,1.5832,1.5832,1.5832,1.5832,1.5818,1.5872,1.5912,1.5845,1.5818,1.5818,1.5832,1.5832,2.2017,2.183,2.1695,2.1443,2.1283,2.1256,2.1203,2.1122,2.1109,2.1109,2.1109,2.1109,2.1109,2.1109,2.1109,2.1109,2.1109,2.1109,2.1109,2.1109,2.1109,2.1109,2.1109,2.1109,2.1109,2.1109,2.1109,2.1109,2.1109,2.1109,2.1109,2.1109,2.1109,2.1109,2.1096,2.1096,2.1029,2.0922,2.0695,2.0468,2.0321,1.998,1.9802,2.0082,1.9917,2.0033,2.0301,2.0186,1.9924,1.9696,1.9319,1.8997,1.8546,1.828,1.8337,1.8266,1.8368,1.8527,1.8427,1.7957,1.7446,1.7125,1.6848,1.6898,1.7051,1.6813,1.6715,1.6535,1.6338,1.6316,1.6366,1.6005,1.5979,1.6313,1.6353,1.6192,1.6152,1.6139,1.6126,1.5925,1.5832,1.5811,1.5818,1.5899,1.5818,1.5671,1.5645,1.5631,1.5618,1.5671,1.5738,1.5752,1.5752,1.5778,1.5832,1.5832,1.5832,1.5832,1.5832,1.5832,1.5832,1.5832,1.5832,1.5832,1.5832,1.5832,1.5872,1.5925,1.5992,1.6005,1.6005,1.5965,1.5965,1.5912,1.5784,2.1724,2.1614,2.1507,2.1296,2.1122,2.1109,2.1109,2.1109,2.1109,2.1109,2.1109,2.1109,2.1109,2.1109,2.1109,2.1109,2.1109,2.1109,2.1109,2.1109,2.1109,2.1109,2.1109,2.1109,2.1109,2.1109,2.1109,2.1109,2.1109,2.1109,2.1109,2.1109,2.1109,2.1109,2.1109,2.1096,2.1096,2.0989,2.0802,2.0641,2.0454,2.0221,2.0023,2.0227,2.024,2.016,2.0471,2.0492,2.0311,2.0106,1.9916,1.9628,1.915,1.8997,1.9083,1.9026,1.9063,1.9057,1.8767,1.8613,1.8137,1.7824,1.7534,1.7513,1.7619,1.7343,1.7258,1.7103,1.6873,1.6815,1.6742,1.6338,1.6397,1.6733,1.6607,1.6446,1.642,1.642,1.638,1.6166,1.5992,1.5992,1.5957,1.6126,1.6192,1.6046,1.5912,1.5885,1.5832,1.5818,1.5832,1.5832,1.5832,1.5832,1.5832,1.5832,1.5832,1.5832,1.5845,1.5872,1.5832,1.5832,1.5832,1.5832,1.5845,1.5872,1.5979,1.6046,1.6166,1.6259,1.6313,1.6246,1.6139,1.6059,1.5992,2.1601,2.1561,2.1229,2.1109,2.1109,2.1109,2.1109,2.1109,2.1109,2.1109,2.1109,2.1109,2.1109,2.1109,2.1109,2.1109,2.1109,2.1109,2.1109,2.1109,2.1109,2.1109,2.1109,2.1109,2.1109,2.1109,2.1109,2.1109,2.1109,2.1109,2.1109,2.1109,2.1109,2.1109,2.1109,2.1109,2.1109,2.1029,2.0922,2.0788,2.0668,2.0301,2.0405,2.051,2.0552,2.0687,2.0844,2.0881,2.072,2.0559,2.0384,2.0077,1.9857,1.9808,1.9808,1.9755,1.9725,1.9374,1.9052,1.8906,1.8803,1.8535,1.8275,1.806,1.7974,1.7924,1.7851,1.7759,1.756,1.7396,1.7191,1.7036,1.6909,1.6918,1.6831,1.674,1.6727,1.6714,1.6687,1.6553,1.638,1.6313,1.6313,1.6406,1.65,1.6406,1.6273,1.6179,1.6086,1.5798,1.5798,1.5832,1.5832,1.5832,1.5832,1.5832,1.5832,1.5832,1.5925,1.5952,1.5899,1.5899,1.5952,1.5965,1.5838,1.5925,1.6072,1.6246,1.642,1.65,1.662,1.6553,1.646,1.6353,1.6273,2.1243,2.1229,2.1136,2.1109,2.1109,2.1109,2.1109,2.1109,2.1109,2.1109,2.1109,2.1109,2.1109,2.1109,2.1109,2.1109,2.1109,2.1109,2.1109,2.1109,2.1109,2.1109,2.1109,2.1109,2.1109,2.1109,2.1109,2.1109,2.1109,2.1109,2.1109,2.1109,2.1109,2.1109,2.1109,2.1109,2.1109,2.1082,2.1052,2.1025,2.0994,2.0794,2.0915,2.0966,2.0953,2.1046,2.1118,2.113,2.0969,2.072,2.0647,2.0369,1.9852,1.9808,1.9808,1.9808,1.9793,1.9705,1.9477,1.9309,1.9177,1.9125,1.8906,1.8972,1.8854,1.8642,1.8474,1.8323,1.8187,1.7955,1.7752,1.7622,1.751,1.7438,1.7295,1.7034,1.7021,1.7021,1.6981,1.6794,1.662,1.6647,1.6647,1.6673,1.674,1.67,1.6633,1.6526,1.6339,1.6099,1.5992,1.5992,1.5845,1.5845,1.5845,1.5845,1.5832,1.5845,1.5965,1.6099,1.6152,1.6152,1.6152,1.6112,1.6059,1.6112,1.6219,1.6469,1.6723,1.6924,1.7032,1.6874,1.6767,1.6723,1.6643,2.1109,2.1109,2.1109,2.1109,2.1109,2.1109,2.1109,2.1109,2.1109,2.1109,2.1109,2.1109,2.1109,2.1109,2.1109,2.1109,2.1109,2.1109,2.1109,2.1109,2.1109,2.1109,2.1109,2.1109,2.1109,2.1109,2.1109,2.1109,2.1109,2.1109,2.1109,2.1109,2.1109,2.1109,2.1109,2.1235,2.1299,2.1299,2.1285,2.1299,2.1317,2.1389,2.1449,2.1455,2.1401,2.1306,2.135,2.132,2.1101,2.094,2.0925,2.0691,2.0223,2.015,1.9916,1.9916,1.9916,1.9945,1.9842,1.9477,1.9418,1.9441,1.936,1.9257,1.9242,1.9028,1.8991,1.891,1.8735,1.8522,1.8344,1.8164,1.8146,1.8126,1.7725,1.738,1.7367,1.7328,1.7233,1.7032,1.6927,1.6967,1.6994,1.7007,1.7048,1.7074,1.7021,1.6887,1.6647,1.6353,1.6299,1.6313,1.6046,1.5811,1.5851,1.5965,1.5965,1.6019,1.6112,1.6233,1.6402,1.6339,1.6259,1.6246,1.6246,1.6415,1.6576,1.6727,1.6954,1.7192,1.734,1.7286,1.7114,1.7045,1.6978,2.1109,2.1109,2.1109,2.1109,2.1109,2.1109,2.1172,2.1172,2.1235,2.1172,2.1109,2.1109,2.1109,2.1109,2.1109,2.1109,2.1109,2.1109,2.1109,2.1109,2.1109,2.1109,2.1109,2.1109,2.1109,2.1109,2.1172,2.1285,2.1222,2.1299,2.1299,2.1172,2.1172,2.1235,2.1235,2.1362,2.1425,2.1677,2.1614,2.1601,2.1672,2.1742,2.1841,2.1911,2.1721,2.1451,2.1569,2.1452,2.1233,2.1218,2.1159,2.0998,2.0764,2.0603,2.0296,2.0179,2.0194,2.0237,2.015,1.9798,1.9638,1.9564,1.9544,1.936,1.9316,1.9286,1.9234,1.9182,1.8977,1.8954,1.8826,1.8537,1.8464,1.8271,1.7964,1.7646,1.7462,1.7462,1.7382,1.7286,1.73,1.7275,1.7248,1.7261,1.7301,1.7408,1.7368,1.7259,1.7058,1.6723,1.658,1.6607,1.6366,1.6152,1.6192,1.6246,1.6179,1.6219,1.6388,1.6536,1.6737,1.6616,1.6402,1.6469,1.6513,1.6764,1.6951,1.7125,1.7221,1.7382,1.7554,1.7542,1.7514,1.734,1.7286,2.1109,2.1109,2.1109,2.1109,2.1109,2.1362,2.1488,2.1488,2.1727,2.1551,2.1172,2.1109,2.1109,2.1109,2.1109,2.1172,2.1109,2.1235,2.1109,2.1109,2.1109,2.1109,2.1109,2.1109,2.1109,2.1172,2.1362,2.1601,2.1727,2.1727,2.1677,2.1488,2.1488,2.1488,2.1488,2.1488,2.1614,2.1929,2.2041,2.2041,2.2076,2.2222,2.2343,2.2266,2.2057,2.1947,2.1891,2.1628,2.1408,2.1276,2.1218,2.1028,2.0694,2.0679,2.0647,2.0545,2.046,2.0559,2.0472,2.0179,1.9945,1.9769,1.9705,1.9544,1.9374,1.9316,1.9272,1.9272,1.9301,1.9293,1.9232,1.8926,1.8702,1.8401,1.8124,1.7886,1.7635,1.7569,1.7542,1.7542,1.7555,1.7528,1.7488,1.7502,1.7569,1.7569,1.7542,1.7462,1.7407,1.7114,1.6924,1.6834,1.6687,1.654,1.6567,1.6513,1.6446,1.6567,1.6764,1.6924,1.7058,1.6924,1.6764,1.6727,1.6807,1.7032,1.7206,1.7328,1.7488,1.7569,1.7582,1.7582,1.7582,1.7501,1.7475,2.1425,2.1299,2.1172,2.1299,2.1551,2.1614,2.1677,2.1853,2.2041,2.1929,2.1551,2.1425,2.1235,2.1159,2.1222,2.1299,2.1362,2.1488,2.1488,2.1348,2.1299,2.1235,2.1235,2.1235,2.1362,2.1425,2.1677,2.1915,2.2104,2.2041,2.1929,2.1866,2.1853,2.1853,2.1803,2.1727,2.1853,2.2306,2.2418,2.248,2.248,2.264,2.2736,2.2672,2.2515,2.2359,2.2052,2.1789,2.1496,2.1306,2.1218,2.1028,2.0867,2.0825,2.0852,2.075,2.065,2.0723,2.0694,2.0489,2.0208,2.0033,1.9798,1.9623,1.9345,1.9272,1.9272,1.9272,1.9272,1.9263,1.9357,1.9199,1.8911,1.8607,1.8218,1.7859,1.7687,1.7582,1.7569,1.7569,1.7569,1.7569,1.7542,1.7542,1.7582,1.7582,1.7582,1.7582,1.7515,1.7462,1.7248,1.7074,1.6927,1.6874,1.6887,1.6807,1.6714,1.6874,1.7112,1.7125,1.7152,1.7166,1.7152,1.7085,1.7048,1.7219,1.7393,1.7488,1.7542,1.7582,1.7582,1.7582,1.7582,1.7582,1.7569,2.1874,2.1601,2.1362,2.1551,2.1978,2.1866,2.1915,2.2167,2.223,2.223,2.2118,2.1853,2.1538,2.1411,2.1411,2.1538,2.1664,2.1803,2.179,2.1727,2.1614,2.1425,2.1362,2.1425,2.1614,2.1803,2.2041,2.2167,2.2355,2.2355,2.2369,2.2244,2.2167,2.2167,2.223,2.2355,2.248,2.2606,2.2793,2.2981,2.3043,2.3106,2.3029,2.2988,2.2828,2.2535,2.2242,2.1979,2.1657,2.1467,2.135,2.113,2.1013,2.1028,2.0984,2.0911,2.0867,2.0969,2.1013,2.0679,2.0431,2.0197,1.9974,1.9725,1.9477,1.933,1.933,1.9345,1.9345,1.933,1.9409,1.9362,1.9074,1.8755,1.8337,1.7911,1.7753,1.7635,1.7635,1.7635,1.7582,1.7582,1.7582,1.7582,1.7582,1.7582,1.7582,1.7582,1.7569,1.7542,1.7435,1.7301,1.7194,1.7219,1.7246,1.7179,1.7021,1.7114,1.7326,1.7286,1.7273,1.7326,1.7353,1.73,1.734,1.7407,1.7487,1.7542,1.7582,1.7582,1.7582,1.7582,1.7582,1.7582,1.7582,2.1818,2.1978,2.1915,2.1978,2.2104,2.2292,2.2418,2.2543,2.2793,2.2731,2.2543,2.2418,2.223,2.1853,2.1677,2.1727,2.2041,2.2167,2.2104,2.1978,2.1853,2.1677,2.1614,2.174,2.1978,2.223,2.248,2.2606,2.2668,2.2793,2.2731,2.2543,2.2543,2.248,2.248,2.2543,2.2543,2.2793,2.2856,2.2918,2.3043,2.3106,2.3106,2.3062,2.3047,2.2813,2.2593,2.2491,2.2271,2.2037,2.1715,2.1423,2.1262,2.1174,2.1115,2.1086,2.1042,2.1086,2.1057,2.0984,2.0808,2.0489,2.0296,2.012,1.9842,1.9535,1.955,1.9676,1.9603,1.9397,1.9389,1.936,1.9112,1.8797,1.8398,1.8016,1.774,1.7687,1.7635,1.7635,1.7582,1.7582,1.7582,1.7582,1.7582,1.7582,1.7582,1.7582,1.7582,1.7582,1.7582,1.7502,1.7408,1.7475,1.7554,1.7487,1.7382,1.7448,1.7475,1.7474,1.7474,1.7488,1.7488,1.746,1.7487,1.7515,1.7582,1.7582,1.7582,1.7582,1.7582,1.7582,1.7582,1.7582,1.7582]}]]